<?xml version="1.0" encoding="UTF-8" standalone="no" ?>
<gpx xmlns="http://www.topografix.com/GPX/1/1" xmlns:xsi="http://www.w3.org/2001/XMLSchema-instance" xsi:schemaLocation="http://www.topografix.com/GPX/1/1 http://www.topografix.com/GPX/1/1/gpx.xsd" version="1.1" creator="VisuGPX - https://www.visugpx.com">
  <metadata>
    <name>Jusqu\'à Gambaiseuil</name>
    <desc><![CDATA[Beaucoup de dénivelés, et de belles côtes !
un pas actif et très régulier dès le départ !]]></desc>
  </metadata>
  <trk>
    <name><![CDATA[Untitled]]></name>
    <trkseg>
      <trkpt lat="48.7096" lon="1.74922">
        <ele>177</ele>
        <time>2012-07-31T11:46:47.000Z</time>
      </trkpt>
      <trkpt lat="48.70973" lon="1.74908">
        <ele>177.80000305176</ele>
        <time>2012-07-31T11:46:57.000Z</time>
      </trkpt>
      <trkpt lat="48.70982" lon="1.74898">
        <ele>178.19999694824</ele>
        <time>2012-07-31T11:47:04.000Z</time>
      </trkpt>
      <trkpt lat="48.70993" lon="1.74887">
        <ele>178.80000305176</ele>
        <time>2012-07-31T11:47:13.000Z</time>
      </trkpt>
      <trkpt lat="48.70994" lon="1.74885">
        <ele>178.80000305176</ele>
        <time>2012-07-31T11:47:14.000Z</time>
      </trkpt>
      <trkpt lat="48.70999" lon="1.74877">
        <ele>179</ele>
        <time>2012-07-31T11:47:20.000Z</time>
      </trkpt>
      <trkpt lat="48.71003" lon="1.74872">
        <ele>178.80000305176</ele>
        <time>2012-07-31T11:47:24.000Z</time>
      </trkpt>
      <trkpt lat="48.71009" lon="1.74861">
        <ele>178.60000610352</ele>
        <time>2012-07-31T11:47:32.000Z</time>
      </trkpt>
      <trkpt lat="48.71012" lon="1.74851">
        <ele>178.39999389648</ele>
        <time>2012-07-31T11:47:38.000Z</time>
      </trkpt>
      <trkpt lat="48.7101" lon="1.74835">
        <ele>178.39999389648</ele>
        <time>2012-07-31T11:47:46.000Z</time>
      </trkpt>
      <trkpt lat="48.71008" lon="1.74831">
        <ele>178.39999389648</ele>
        <time>2012-07-31T11:47:49.000Z</time>
      </trkpt>
      <trkpt lat="48.71001" lon="1.74822">
        <ele>178.80000305176</ele>
        <time>2012-07-31T11:47:57.000Z</time>
      </trkpt>
      <trkpt lat="48.70994" lon="1.74813">
        <ele>178.80000305176</ele>
        <time>2012-07-31T11:48:03.000Z</time>
      </trkpt>
      <trkpt lat="48.70987" lon="1.74803">
        <ele>178.60000610352</ele>
        <time>2012-07-31T11:48:10.000Z</time>
      </trkpt>
      <trkpt lat="48.70981" lon="1.74795">
        <ele>178.39999389648</ele>
        <time>2012-07-31T11:48:16.000Z</time>
      </trkpt>
      <trkpt lat="48.70972" lon="1.74786">
        <ele>178.19999694824</ele>
        <time>2012-07-31T11:48:23.000Z</time>
      </trkpt>
      <trkpt lat="48.70964" lon="1.74776">
        <ele>178.19999694824</ele>
        <time>2012-07-31T11:48:30.000Z</time>
      </trkpt>
      <trkpt lat="48.70958" lon="1.74765">
        <ele>178</ele>
        <time>2012-07-31T11:48:37.000Z</time>
      </trkpt>
      <trkpt lat="48.70956" lon="1.74764">
        <ele>178</ele>
        <time>2012-07-31T11:48:39.000Z</time>
      </trkpt>
      <trkpt lat="48.70955" lon="1.74762">
        <ele>178</ele>
        <time>2012-07-31T11:48:43.000Z</time>
      </trkpt>
      <trkpt lat="48.70949" lon="1.74756">
        <ele>178</ele>
        <time>2012-07-31T11:49:09.000Z</time>
      </trkpt>
      <trkpt lat="48.70944" lon="1.74751">
        <ele>178</ele>
        <time>2012-07-31T11:49:12.000Z</time>
      </trkpt>
      <trkpt lat="48.70939" lon="1.74743">
        <ele>178</ele>
        <time>2012-07-31T11:49:18.000Z</time>
      </trkpt>
      <trkpt lat="48.70935" lon="1.74738">
        <ele>177.80000305176</ele>
        <time>2012-07-31T11:49:22.000Z</time>
      </trkpt>
      <trkpt lat="48.70933" lon="1.74735">
        <ele>177.80000305176</ele>
        <time>2012-07-31T11:49:24.000Z</time>
      </trkpt>
      <trkpt lat="48.70923" lon="1.74722">
        <ele>177.39999389648</ele>
        <time>2012-07-31T11:49:34.000Z</time>
      </trkpt>
      <trkpt lat="48.70915" lon="1.74712">
        <ele>177.19999694824</ele>
        <time>2012-07-31T11:49:42.000Z</time>
      </trkpt>
      <trkpt lat="48.70905" lon="1.74699">
        <ele>176.80000305176</ele>
        <time>2012-07-31T11:49:52.000Z</time>
      </trkpt>
      <trkpt lat="48.70895" lon="1.74687">
        <ele>176.60000610352</ele>
        <time>2012-07-31T11:50:02.000Z</time>
      </trkpt>
      <trkpt lat="48.70884" lon="1.74669">
        <ele>176</ele>
        <time>2012-07-31T11:50:14.000Z</time>
      </trkpt>
      <trkpt lat="48.70882" lon="1.74666">
        <ele>176</ele>
        <time>2012-07-31T11:50:16.000Z</time>
      </trkpt>
      <trkpt lat="48.70878" lon="1.74656">
        <ele>176</ele>
        <time>2012-07-31T11:50:23.000Z</time>
      </trkpt>
      <trkpt lat="48.70876" lon="1.74653">
        <ele>176</ele>
        <time>2012-07-31T11:50:25.000Z</time>
      </trkpt>
      <trkpt lat="48.70866" lon="1.74645">
        <ele>176</ele>
        <time>2012-07-31T11:50:33.000Z</time>
      </trkpt>
      <trkpt lat="48.70859" lon="1.74637">
        <ele>175.80000305176</ele>
        <time>2012-07-31T11:50:40.000Z</time>
      </trkpt>
      <trkpt lat="48.70852" lon="1.74628">
        <ele>175.80000305176</ele>
        <time>2012-07-31T11:50:47.000Z</time>
      </trkpt>
      <trkpt lat="48.70851" lon="1.74627">
        <ele>176</ele>
        <time>2012-07-31T11:50:48.000Z</time>
      </trkpt>
      <trkpt lat="48.70845" lon="1.74619">
        <ele>176</ele>
        <time>2012-07-31T11:50:54.000Z</time>
      </trkpt>
      <trkpt lat="48.70837" lon="1.74607">
        <ele>176</ele>
        <time>2012-07-31T11:51:02.000Z</time>
      </trkpt>
      <trkpt lat="48.70835" lon="1.74605">
        <ele>176</ele>
        <time>2012-07-31T11:51:04.000Z</time>
      </trkpt>
      <trkpt lat="48.70826" lon="1.74594">
        <ele>176.19999694824</ele>
        <time>2012-07-31T11:51:13.000Z</time>
      </trkpt>
      <trkpt lat="48.70817" lon="1.74582">
        <ele>176.19999694824</ele>
        <time>2012-07-31T11:51:22.000Z</time>
      </trkpt>
      <trkpt lat="48.70807" lon="1.7457">
        <ele>176.39999389648</ele>
        <time>2012-07-31T11:51:32.000Z</time>
      </trkpt>
      <trkpt lat="48.708" lon="1.7456">
        <ele>176.39999389648</ele>
        <time>2012-07-31T11:51:40.000Z</time>
      </trkpt>
      <trkpt lat="48.70798" lon="1.74558">
        <ele>176.39999389648</ele>
        <time>2012-07-31T11:51:42.000Z</time>
      </trkpt>
      <trkpt lat="48.70791" lon="1.74547">
        <ele>176.60000610352</ele>
        <time>2012-07-31T11:51:50.000Z</time>
      </trkpt>
      <trkpt lat="48.70785" lon="1.74539">
        <ele>176.60000610352</ele>
        <time>2012-07-31T11:51:57.000Z</time>
      </trkpt>
      <trkpt lat="48.70779" lon="1.74533">
        <ele>176.60000610352</ele>
        <time>2012-07-31T11:52:03.000Z</time>
      </trkpt>
      <trkpt lat="48.70774" lon="1.74524">
        <ele>176.80000305176</ele>
        <time>2012-07-31T11:52:09.000Z</time>
      </trkpt>
      <trkpt lat="48.70766" lon="1.74514">
        <ele>176.80000305176</ele>
        <time>2012-07-31T11:52:17.000Z</time>
      </trkpt>
      <trkpt lat="48.70758" lon="1.74505">
        <ele>177</ele>
        <time>2012-07-31T11:52:25.000Z</time>
      </trkpt>
      <trkpt lat="48.70751" lon="1.74498">
        <ele>177</ele>
        <time>2012-07-31T11:52:31.000Z</time>
      </trkpt>
      <trkpt lat="48.70747" lon="1.74493">
        <ele>177.19999694824</ele>
        <time>2012-07-31T11:52:35.000Z</time>
      </trkpt>
      <trkpt lat="48.70739" lon="1.74482">
        <ele>177.60000610352</ele>
        <time>2012-07-31T11:52:43.000Z</time>
      </trkpt>
      <trkpt lat="48.70733" lon="1.74475">
        <ele>178</ele>
        <time>2012-07-31T11:52:49.000Z</time>
      </trkpt>
      <trkpt lat="48.7073" lon="1.74468">
        <ele>178.19999694824</ele>
        <time>2012-07-31T11:52:55.000Z</time>
      </trkpt>
      <trkpt lat="48.70728" lon="1.74467">
        <ele>178.19999694824</ele>
        <time>2012-07-31T11:53:00.000Z</time>
      </trkpt>
      <trkpt lat="48.70737" lon="1.74452">
        <ele>178</ele>
        <time>2012-07-31T11:53:53.000Z</time>
      </trkpt>
      <trkpt lat="48.70742" lon="1.74449">
        <ele>178</ele>
        <time>2012-07-31T11:53:57.000Z</time>
      </trkpt>
      <trkpt lat="48.7075" lon="1.74443">
        <ele>177.60000610352</ele>
        <time>2012-07-31T11:54:05.000Z</time>
      </trkpt>
      <trkpt lat="48.70759" lon="1.74439">
        <ele>177.60000610352</ele>
        <time>2012-07-31T11:54:11.000Z</time>
      </trkpt>
      <trkpt lat="48.70766" lon="1.74434">
        <ele>177.39999389648</ele>
        <time>2012-07-31T11:54:18.000Z</time>
      </trkpt>
      <trkpt lat="48.70773" lon="1.74428">
        <ele>177.39999389648</ele>
        <time>2012-07-31T11:54:24.000Z</time>
      </trkpt>
      <trkpt lat="48.70782" lon="1.74423">
        <ele>177.19999694824</ele>
        <time>2012-07-31T11:54:32.000Z</time>
      </trkpt>
      <trkpt lat="48.70792" lon="1.74419">
        <ele>177</ele>
        <time>2012-07-31T11:54:40.000Z</time>
      </trkpt>
      <trkpt lat="48.70797" lon="1.74415">
        <ele>176.80000305176</ele>
        <time>2012-07-31T11:54:45.000Z</time>
      </trkpt>
      <trkpt lat="48.70806" lon="1.74408">
        <ele>176.80000305176</ele>
        <time>2012-07-31T11:54:52.000Z</time>
      </trkpt>
      <trkpt lat="48.70814" lon="1.74401">
        <ele>176.60000610352</ele>
        <time>2012-07-31T11:54:59.000Z</time>
      </trkpt>
      <trkpt lat="48.70815" lon="1.744">
        <ele>176.60000610352</ele>
        <time>2012-07-31T11:55:00.000Z</time>
      </trkpt>
      <trkpt lat="48.70825" lon="1.74392">
        <ele>176.60000610352</ele>
        <time>2012-07-31T11:55:08.000Z</time>
      </trkpt>
      <trkpt lat="48.70831" lon="1.74384">
        <ele>176.39999389648</ele>
        <time>2012-07-31T11:55:14.000Z</time>
      </trkpt>
      <trkpt lat="48.70835" lon="1.74378">
        <ele>176.39999389648</ele>
        <time>2012-07-31T11:55:19.000Z</time>
      </trkpt>
      <trkpt lat="48.70843" lon="1.74369">
        <ele>176.39999389648</ele>
        <time>2012-07-31T11:55:27.000Z</time>
      </trkpt>
      <trkpt lat="48.70847" lon="1.74361">
        <ele>176.60000610352</ele>
        <time>2012-07-31T11:55:32.000Z</time>
      </trkpt>
      <trkpt lat="48.70852" lon="1.74348">
        <ele>176.60000610352</ele>
        <time>2012-07-31T11:55:40.000Z</time>
      </trkpt>
      <trkpt lat="48.70859" lon="1.74336">
        <ele>176.60000610352</ele>
        <time>2012-07-31T11:55:48.000Z</time>
      </trkpt>
      <trkpt lat="48.70867" lon="1.74324">
        <ele>177</ele>
        <time>2012-07-31T11:55:57.000Z</time>
      </trkpt>
      <trkpt lat="48.7087" lon="1.74319">
        <ele>177.19999694824</ele>
        <time>2012-07-31T11:56:02.000Z</time>
      </trkpt>
      <trkpt lat="48.70875" lon="1.7431">
        <ele>177.60000610352</ele>
        <time>2012-07-31T11:56:08.000Z</time>
      </trkpt>
      <trkpt lat="48.7088" lon="1.74303">
        <ele>178</ele>
        <time>2012-07-31T11:56:14.000Z</time>
      </trkpt>
      <trkpt lat="48.70885" lon="1.74296">
        <ele>178.19999694824</ele>
        <time>2012-07-31T11:56:20.000Z</time>
      </trkpt>
      <trkpt lat="48.70888" lon="1.74285">
        <ele>178.80000305176</ele>
        <time>2012-07-31T11:56:26.000Z</time>
      </trkpt>
      <trkpt lat="48.70889" lon="1.74284">
        <ele>178.80000305176</ele>
        <time>2012-07-31T11:56:27.000Z</time>
      </trkpt>
      <trkpt lat="48.70892" lon="1.7428">
        <ele>179.19999694824</ele>
        <time>2012-07-31T11:56:31.000Z</time>
      </trkpt>
      <trkpt lat="48.70897" lon="1.74272">
        <ele>179.60000610352</ele>
        <time>2012-07-31T11:56:37.000Z</time>
      </trkpt>
      <trkpt lat="48.709" lon="1.7427">
        <ele>179.80000305176</ele>
        <time>2012-07-31T11:56:40.000Z</time>
      </trkpt>
      <trkpt lat="48.70904" lon="1.74262">
        <ele>180.19999694824</ele>
        <time>2012-07-31T11:56:45.000Z</time>
      </trkpt>
      <trkpt lat="48.70906" lon="1.74254">
        <ele>180.60000610352</ele>
        <time>2012-07-31T11:56:50.000Z</time>
      </trkpt>
      <trkpt lat="48.70905" lon="1.74246">
        <ele>181</ele>
        <time>2012-07-31T11:56:54.000Z</time>
      </trkpt>
      <trkpt lat="48.70907" lon="1.74239">
        <ele>181.19999694824</ele>
        <time>2012-07-31T11:57:00.000Z</time>
      </trkpt>
      <trkpt lat="48.70907" lon="1.74239">
        <ele>181.19999694824</ele>
        <time>2012-07-31T11:57:02.000Z</time>
      </trkpt>
      <trkpt lat="48.70912" lon="1.74224">
        <ele>181.60000610352</ele>
        <time>2012-07-31T11:58:49.000Z</time>
      </trkpt>
      <trkpt lat="48.70916" lon="1.74211">
        <ele>182</ele>
        <time>2012-07-31T11:58:54.000Z</time>
      </trkpt>
      <trkpt lat="48.7092" lon="1.74199">
        <ele>182.19999694824</ele>
        <time>2012-07-31T11:59:01.000Z</time>
      </trkpt>
      <trkpt lat="48.70922" lon="1.74185">
        <ele>182.39999389648</ele>
        <time>2012-07-31T11:59:08.000Z</time>
      </trkpt>
      <trkpt lat="48.70925" lon="1.74174">
        <ele>182.60000610352</ele>
        <time>2012-07-31T11:59:13.000Z</time>
      </trkpt>
      <trkpt lat="48.70925" lon="1.74166">
        <ele>182.60000610352</ele>
        <time>2012-07-31T11:59:16.000Z</time>
      </trkpt>
      <trkpt lat="48.70926" lon="1.74157">
        <ele>182.60000610352</ele>
        <time>2012-07-31T11:59:20.000Z</time>
      </trkpt>
      <trkpt lat="48.70928" lon="1.74151">
        <ele>182.60000610352</ele>
        <time>2012-07-31T11:59:24.000Z</time>
      </trkpt>
      <trkpt lat="48.7093" lon="1.7414">
        <ele>182.60000610352</ele>
        <time>2012-07-31T11:59:29.000Z</time>
      </trkpt>
      <trkpt lat="48.7093" lon="1.7414">
        <ele>182.60000610352</ele>
        <time>2012-07-31T11:59:31.000Z</time>
      </trkpt>
      <trkpt lat="48.70933" lon="1.7413">
        <ele>182.60000610352</ele>
        <time>2012-07-31T11:59:38.000Z</time>
      </trkpt>
      <trkpt lat="48.70935" lon="1.74123">
        <ele>182.60000610352</ele>
        <time>2012-07-31T11:59:40.000Z</time>
      </trkpt>
      <trkpt lat="48.70938" lon="1.74108">
        <ele>182.60000610352</ele>
        <time>2012-07-31T11:59:47.000Z</time>
      </trkpt>
      <trkpt lat="48.70941" lon="1.74103">
        <ele>182.60000610352</ele>
        <time>2012-07-31T11:59:50.000Z</time>
      </trkpt>
      <trkpt lat="48.70944" lon="1.74087">
        <ele>182.60000610352</ele>
        <time>2012-07-31T11:59:58.000Z</time>
      </trkpt>
      <trkpt lat="48.70947" lon="1.74073">
        <ele>182.60000610352</ele>
        <time>2012-07-31T12:00:06.000Z</time>
      </trkpt>
      <trkpt lat="48.70951" lon="1.74062">
        <ele>182.60000610352</ele>
        <time>2012-07-31T12:00:12.000Z</time>
      </trkpt>
      <trkpt lat="48.70952" lon="1.74048">
        <ele>182.60000610352</ele>
        <time>2012-07-31T12:00:18.000Z</time>
      </trkpt>
      <trkpt lat="48.70953" lon="1.74044">
        <ele>182.60000610352</ele>
        <time>2012-07-31T12:00:20.000Z</time>
      </trkpt>
      <trkpt lat="48.70958" lon="1.74028">
        <ele>182.60000610352</ele>
        <time>2012-07-31T12:00:30.000Z</time>
      </trkpt>
      <trkpt lat="48.70958" lon="1.74026">
        <ele>182.39999389648</ele>
        <time>2012-07-31T12:00:31.000Z</time>
      </trkpt>
      <trkpt lat="48.70961" lon="1.74014">
        <ele>182.39999389648</ele>
        <time>2012-07-31T12:00:37.000Z</time>
      </trkpt>
      <trkpt lat="48.70966" lon="1.73993">
        <ele>182.60000610352</ele>
        <time>2012-07-31T12:00:46.000Z</time>
      </trkpt>
      <trkpt lat="48.70969" lon="1.73979">
        <ele>182.80000305176</ele>
        <time>2012-07-31T12:00:53.000Z</time>
      </trkpt>
      <trkpt lat="48.70973" lon="1.73959">
        <ele>183.39999389648</ele>
        <time>2012-07-31T12:01:02.000Z</time>
      </trkpt>
      <trkpt lat="48.70977" lon="1.7394">
        <ele>183.80000305176</ele>
        <time>2012-07-31T12:01:11.000Z</time>
      </trkpt>
      <trkpt lat="48.70981" lon="1.73917">
        <ele>184.60000610352</ele>
        <time>2012-07-31T12:01:22.000Z</time>
      </trkpt>
      <trkpt lat="48.70985" lon="1.73904">
        <ele>184.39999389648</ele>
        <time>2012-07-31T12:01:29.000Z</time>
      </trkpt>
      <trkpt lat="48.70989" lon="1.73887">
        <ele>184</ele>
        <time>2012-07-31T12:01:37.000Z</time>
      </trkpt>
      <trkpt lat="48.70991" lon="1.73874">
        <ele>183.60000610352</ele>
        <time>2012-07-31T12:01:43.000Z</time>
      </trkpt>
      <trkpt lat="48.70991" lon="1.73869">
        <ele>183.60000610352</ele>
        <time>2012-07-31T12:01:45.000Z</time>
      </trkpt>
      <trkpt lat="48.70995" lon="1.7385">
        <ele>183.19999694824</ele>
        <time>2012-07-31T12:01:54.000Z</time>
      </trkpt>
      <trkpt lat="48.70999" lon="1.73835">
        <ele>183</ele>
        <time>2012-07-31T12:02:02.000Z</time>
      </trkpt>
      <trkpt lat="48.71001" lon="1.7383">
        <ele>183</ele>
        <time>2012-07-31T12:02:05.000Z</time>
      </trkpt>
      <trkpt lat="48.71003" lon="1.7382">
        <ele>182.60000610352</ele>
        <time>2012-07-31T12:02:11.000Z</time>
      </trkpt>
      <trkpt lat="48.71005" lon="1.73812">
        <ele>182.39999389648</ele>
        <time>2012-07-31T12:02:15.000Z</time>
      </trkpt>
      <trkpt lat="48.71008" lon="1.73804">
        <ele>182.39999389648</ele>
        <time>2012-07-31T12:02:20.000Z</time>
      </trkpt>
      <trkpt lat="48.7101" lon="1.73801">
        <ele>182.19999694824</ele>
        <time>2012-07-31T12:02:22.000Z</time>
      </trkpt>
      <trkpt lat="48.71014" lon="1.73799">
        <ele>182.19999694824</ele>
        <time>2012-07-31T12:02:27.000Z</time>
      </trkpt>
      <trkpt lat="48.71022" lon="1.73793">
        <ele>182.19999694824</ele>
        <time>2012-07-31T12:02:35.000Z</time>
      </trkpt>
      <trkpt lat="48.71027" lon="1.73788">
        <ele>182.19999694824</ele>
        <time>2012-07-31T12:02:40.000Z</time>
      </trkpt>
      <trkpt lat="48.71031" lon="1.73782">
        <ele>182</ele>
        <time>2012-07-31T12:02:43.000Z</time>
      </trkpt>
      <trkpt lat="48.71041" lon="1.73769">
        <ele>182.19999694824</ele>
        <time>2012-07-31T12:02:51.000Z</time>
      </trkpt>
      <trkpt lat="48.71045" lon="1.73765">
        <ele>182.19999694824</ele>
        <time>2012-07-31T12:02:55.000Z</time>
      </trkpt>
      <trkpt lat="48.71052" lon="1.73759">
        <ele>182.19999694824</ele>
        <time>2012-07-31T12:03:01.000Z</time>
      </trkpt>
      <trkpt lat="48.71057" lon="1.73754">
        <ele>182.39999389648</ele>
        <time>2012-07-31T12:03:05.000Z</time>
      </trkpt>
      <trkpt lat="48.71063" lon="1.73748">
        <ele>182.39999389648</ele>
        <time>2012-07-31T12:03:11.000Z</time>
      </trkpt>
      <trkpt lat="48.71067" lon="1.73745">
        <ele>182.39999389648</ele>
        <time>2012-07-31T12:03:14.000Z</time>
      </trkpt>
      <trkpt lat="48.71071" lon="1.73742">
        <ele>182.39999389648</ele>
        <time>2012-07-31T12:03:17.000Z</time>
      </trkpt>
      <trkpt lat="48.71079" lon="1.73734">
        <ele>182.19999694824</ele>
        <time>2012-07-31T12:03:24.000Z</time>
      </trkpt>
      <trkpt lat="48.71088" lon="1.73726">
        <ele>182</ele>
        <time>2012-07-31T12:03:30.000Z</time>
      </trkpt>
      <trkpt lat="48.71097" lon="1.73715">
        <ele>181.60000610352</ele>
        <time>2012-07-31T12:03:37.000Z</time>
      </trkpt>
      <trkpt lat="48.71106" lon="1.73706">
        <ele>181.60000610352</ele>
        <time>2012-07-31T12:03:44.000Z</time>
      </trkpt>
      <trkpt lat="48.71112" lon="1.73698">
        <ele>181.39999389648</ele>
        <time>2012-07-31T12:03:51.000Z</time>
      </trkpt>
      <trkpt lat="48.71123" lon="1.73687">
        <ele>181.60000610352</ele>
        <time>2012-07-31T12:03:59.000Z</time>
      </trkpt>
      <trkpt lat="48.71124" lon="1.73686">
        <ele>181.60000610352</ele>
        <time>2012-07-31T12:04:00.000Z</time>
      </trkpt>
      <trkpt lat="48.71131" lon="1.73677">
        <ele>181.60000610352</ele>
        <time>2012-07-31T12:04:07.000Z</time>
      </trkpt>
      <trkpt lat="48.71133" lon="1.73675">
        <ele>181.60000610352</ele>
        <time>2012-07-31T12:04:09.000Z</time>
      </trkpt>
      <trkpt lat="48.7114" lon="1.73669">
        <ele>181.80000305176</ele>
        <time>2012-07-31T12:04:14.000Z</time>
      </trkpt>
      <trkpt lat="48.71148" lon="1.7366">
        <ele>182</ele>
        <time>2012-07-31T12:04:21.000Z</time>
      </trkpt>
      <trkpt lat="48.71157" lon="1.73651">
        <ele>182</ele>
        <time>2012-07-31T12:04:29.000Z</time>
      </trkpt>
      <trkpt lat="48.71161" lon="1.73646">
        <ele>182</ele>
        <time>2012-07-31T12:04:33.000Z</time>
      </trkpt>
      <trkpt lat="48.71167" lon="1.7364">
        <ele>182</ele>
        <time>2012-07-31T12:04:38.000Z</time>
      </trkpt>
      <trkpt lat="48.71169" lon="1.73638">
        <ele>182</ele>
        <time>2012-07-31T12:04:40.000Z</time>
      </trkpt>
      <trkpt lat="48.71174" lon="1.73632">
        <ele>182</ele>
        <time>2012-07-31T12:04:45.000Z</time>
      </trkpt>
      <trkpt lat="48.71185" lon="1.73623">
        <ele>182</ele>
        <time>2012-07-31T12:04:53.000Z</time>
      </trkpt>
      <trkpt lat="48.71189" lon="1.73616">
        <ele>182</ele>
        <time>2012-07-31T12:05:00.000Z</time>
      </trkpt>
      <trkpt lat="48.71192" lon="1.7361">
        <ele>182</ele>
        <time>2012-07-31T12:05:04.000Z</time>
      </trkpt>
      <trkpt lat="48.71195" lon="1.73605">
        <ele>182</ele>
        <time>2012-07-31T12:05:08.000Z</time>
      </trkpt>
      <trkpt lat="48.71199" lon="1.73603">
        <ele>182.19999694824</ele>
        <time>2012-07-31T12:05:12.000Z</time>
      </trkpt>
      <trkpt lat="48.71201" lon="1.73603">
        <ele>182.19999694824</ele>
        <time>2012-07-31T12:05:14.000Z</time>
      </trkpt>
      <trkpt lat="48.7121" lon="1.7361">
        <ele>182.80000305176</ele>
        <time>2012-07-31T12:05:22.000Z</time>
      </trkpt>
      <trkpt lat="48.71218" lon="1.73614">
        <ele>183</ele>
        <time>2012-07-31T12:05:29.000Z</time>
      </trkpt>
      <trkpt lat="48.71225" lon="1.73614">
        <ele>183.39999389648</ele>
        <time>2012-07-31T12:05:35.000Z</time>
      </trkpt>
      <trkpt lat="48.71234" lon="1.73615">
        <ele>183.60000610352</ele>
        <time>2012-07-31T12:05:41.000Z</time>
      </trkpt>
      <trkpt lat="48.71237" lon="1.73614">
        <ele>183.80000305176</ele>
        <time>2012-07-31T12:05:43.000Z</time>
      </trkpt>
      <trkpt lat="48.7124" lon="1.73617">
        <ele>183.80000305176</ele>
        <time>2012-07-31T12:05:46.000Z</time>
      </trkpt>
      <trkpt lat="48.71249" lon="1.73617">
        <ele>184.19999694824</ele>
        <time>2012-07-31T12:05:53.000Z</time>
      </trkpt>
      <trkpt lat="48.71253" lon="1.73617">
        <ele>183.80000305176</ele>
        <time>2012-07-31T12:05:56.000Z</time>
      </trkpt>
      <trkpt lat="48.71257" lon="1.73615">
        <ele>183.19999694824</ele>
        <time>2012-07-31T12:06:00.000Z</time>
      </trkpt>
      <trkpt lat="48.71262" lon="1.73611">
        <ele>182.39999389648</ele>
        <time>2012-07-31T12:06:05.000Z</time>
      </trkpt>
      <trkpt lat="48.71267" lon="1.73608">
        <ele>181.60000610352</ele>
        <time>2012-07-31T12:06:11.000Z</time>
      </trkpt>
      <trkpt lat="48.71273" lon="1.73605">
        <ele>180.60000610352</ele>
        <time>2012-07-31T12:06:15.000Z</time>
      </trkpt>
      <trkpt lat="48.71274" lon="1.73604">
        <ele>180.39999389648</ele>
        <time>2012-07-31T12:06:16.000Z</time>
      </trkpt>
      <trkpt lat="48.71284" lon="1.73593">
        <ele>179</ele>
        <time>2012-07-31T12:06:25.000Z</time>
      </trkpt>
      <trkpt lat="48.71286" lon="1.7359">
        <ele>178.80000305176</ele>
        <time>2012-07-31T12:06:27.000Z</time>
      </trkpt>
      <trkpt lat="48.71291" lon="1.73584">
        <ele>178.19999694824</ele>
        <time>2012-07-31T12:06:33.000Z</time>
      </trkpt>
      <trkpt lat="48.71293" lon="1.73577">
        <ele>178</ele>
        <time>2012-07-31T12:06:39.000Z</time>
      </trkpt>
      <trkpt lat="48.71295" lon="1.73569">
        <ele>177.80000305176</ele>
        <time>2012-07-31T12:06:43.000Z</time>
      </trkpt>
      <trkpt lat="48.71298" lon="1.73559">
        <ele>177.60000610352</ele>
        <time>2012-07-31T12:06:49.000Z</time>
      </trkpt>
      <trkpt lat="48.71303" lon="1.7355">
        <ele>177.19999694824</ele>
        <time>2012-07-31T12:06:55.000Z</time>
      </trkpt>
      <trkpt lat="48.71308" lon="1.73543">
        <ele>176.80000305176</ele>
        <time>2012-07-31T12:07:01.000Z</time>
      </trkpt>
      <trkpt lat="48.71312" lon="1.73544">
        <ele>176.39999389648</ele>
        <time>2012-07-31T12:07:05.000Z</time>
      </trkpt>
      <trkpt lat="48.71316" lon="1.7354">
        <ele>176</ele>
        <time>2012-07-31T12:07:09.000Z</time>
      </trkpt>
      <trkpt lat="48.71323" lon="1.73533">
        <ele>175.60000610352</ele>
        <time>2012-07-31T12:07:16.000Z</time>
      </trkpt>
      <trkpt lat="48.71326" lon="1.73529">
        <ele>175.60000610352</ele>
        <time>2012-07-31T12:07:19.000Z</time>
      </trkpt>
      <trkpt lat="48.71331" lon="1.73528">
        <ele>175.19999694824</ele>
        <time>2012-07-31T12:07:24.000Z</time>
      </trkpt>
      <trkpt lat="48.7134" lon="1.73532">
        <ele>173.80000305176</ele>
        <time>2012-07-31T12:07:31.000Z</time>
      </trkpt>
      <trkpt lat="48.71345" lon="1.73536">
        <ele>173</ele>
        <time>2012-07-31T12:07:35.000Z</time>
      </trkpt>
      <trkpt lat="48.71353" lon="1.73548">
        <ele>171.19999694824</ele>
        <time>2012-07-31T12:07:45.000Z</time>
      </trkpt>
      <trkpt lat="48.71363" lon="1.73556">
        <ele>169.60000610352</ele>
        <time>2012-07-31T12:07:52.000Z</time>
      </trkpt>
      <trkpt lat="48.7137" lon="1.73562">
        <ele>168.39999389648</ele>
        <time>2012-07-31T12:07:58.000Z</time>
      </trkpt>
      <trkpt lat="48.7138" lon="1.73566">
        <ele>167</ele>
        <time>2012-07-31T12:08:06.000Z</time>
      </trkpt>
      <trkpt lat="48.71382" lon="1.73567">
        <ele>166.60000610352</ele>
        <time>2012-07-31T12:08:09.000Z</time>
      </trkpt>
      <trkpt lat="48.71388" lon="1.73573">
        <ele>165.80000305176</ele>
        <time>2012-07-31T12:08:15.000Z</time>
      </trkpt>
      <trkpt lat="48.71396" lon="1.73575">
        <ele>164.60000610352</ele>
        <time>2012-07-31T12:08:21.000Z</time>
      </trkpt>
      <trkpt lat="48.71399" lon="1.73574">
        <ele>164.39999389648</ele>
        <time>2012-07-31T12:08:23.000Z</time>
      </trkpt>
      <trkpt lat="48.71409" lon="1.73572">
        <ele>163.39999389648</ele>
        <time>2012-07-31T12:08:30.000Z</time>
      </trkpt>
      <trkpt lat="48.71421" lon="1.73571">
        <ele>162.19999694824</ele>
        <time>2012-07-31T12:08:39.000Z</time>
      </trkpt>
      <trkpt lat="48.7143" lon="1.73571">
        <ele>161.19999694824</ele>
        <time>2012-07-31T12:08:46.000Z</time>
      </trkpt>
      <trkpt lat="48.71438" lon="1.73568">
        <ele>160.60000610352</ele>
        <time>2012-07-31T12:08:53.000Z</time>
      </trkpt>
      <trkpt lat="48.71446" lon="1.73562">
        <ele>159.80000305176</ele>
        <time>2012-07-31T12:09:01.000Z</time>
      </trkpt>
      <trkpt lat="48.71454" lon="1.7356">
        <ele>159.19999694824</ele>
        <time>2012-07-31T12:09:07.000Z</time>
      </trkpt>
      <trkpt lat="48.71458" lon="1.73559">
        <ele>158.60000610352</ele>
        <time>2012-07-31T12:09:11.000Z</time>
      </trkpt>
      <trkpt lat="48.71465" lon="1.73557">
        <ele>157.80000305176</ele>
        <time>2012-07-31T12:09:17.000Z</time>
      </trkpt>
      <trkpt lat="48.71473" lon="1.73555">
        <ele>157</ele>
        <time>2012-07-31T12:09:22.000Z</time>
      </trkpt>
      <trkpt lat="48.71484" lon="1.73554">
        <ele>155.80000305176</ele>
        <time>2012-07-31T12:09:31.000Z</time>
      </trkpt>
      <trkpt lat="48.71494" lon="1.73552">
        <ele>154.60000610352</ele>
        <time>2012-07-31T12:09:39.000Z</time>
      </trkpt>
      <trkpt lat="48.71504" lon="1.7355">
        <ele>153.39999389648</ele>
        <time>2012-07-31T12:09:47.000Z</time>
      </trkpt>
      <trkpt lat="48.71513" lon="1.7355">
        <ele>152.39999389648</ele>
        <time>2012-07-31T12:09:55.000Z</time>
      </trkpt>
      <trkpt lat="48.71526" lon="1.73549">
        <ele>151</ele>
        <time>2012-07-31T12:10:04.000Z</time>
      </trkpt>
      <trkpt lat="48.71537" lon="1.73547">
        <ele>149.60000610352</ele>
        <time>2012-07-31T12:10:12.000Z</time>
      </trkpt>
      <trkpt lat="48.71545" lon="1.73545">
        <ele>148.60000610352</ele>
        <time>2012-07-31T12:10:19.000Z</time>
      </trkpt>
      <trkpt lat="48.71554" lon="1.73541">
        <ele>147.60000610352</ele>
        <time>2012-07-31T12:10:27.000Z</time>
      </trkpt>
      <trkpt lat="48.7156" lon="1.7354">
        <ele>147</ele>
        <time>2012-07-31T12:10:32.000Z</time>
      </trkpt>
      <trkpt lat="48.71571" lon="1.73537">
        <ele>145.80000305176</ele>
        <time>2012-07-31T12:10:39.000Z</time>
      </trkpt>
      <trkpt lat="48.71574" lon="1.73537">
        <ele>145.39999389648</ele>
        <time>2012-07-31T12:10:41.000Z</time>
      </trkpt>
      <trkpt lat="48.71586" lon="1.73533">
        <ele>144.19999694824</ele>
        <time>2012-07-31T12:10:49.000Z</time>
      </trkpt>
      <trkpt lat="48.71595" lon="1.73532">
        <ele>143.80000305176</ele>
        <time>2012-07-31T12:10:55.000Z</time>
      </trkpt>
      <trkpt lat="48.71603" lon="1.73531">
        <ele>143.39999389648</ele>
        <time>2012-07-31T12:11:01.000Z</time>
      </trkpt>
      <trkpt lat="48.71613" lon="1.73528">
        <ele>142.80000305176</ele>
        <time>2012-07-31T12:11:09.000Z</time>
      </trkpt>
      <trkpt lat="48.71618" lon="1.73526">
        <ele>142.60000610352</ele>
        <time>2012-07-31T12:11:13.000Z</time>
      </trkpt>
      <trkpt lat="48.71622" lon="1.73525">
        <ele>142.39999389648</ele>
        <time>2012-07-31T12:11:16.000Z</time>
      </trkpt>
      <trkpt lat="48.71632" lon="1.73522">
        <ele>141.80000305176</ele>
        <time>2012-07-31T12:11:24.000Z</time>
      </trkpt>
      <trkpt lat="48.71642" lon="1.73518">
        <ele>141.19999694824</ele>
        <time>2012-07-31T12:11:32.000Z</time>
      </trkpt>
      <trkpt lat="48.71653" lon="1.73515">
        <ele>140.60000610352</ele>
        <time>2012-07-31T12:11:42.000Z</time>
      </trkpt>
      <trkpt lat="48.71661" lon="1.73513">
        <ele>140.19999694824</ele>
        <time>2012-07-31T12:11:48.000Z</time>
      </trkpt>
      <trkpt lat="48.71671" lon="1.7351">
        <ele>139.80000305176</ele>
        <time>2012-07-31T12:11:55.000Z</time>
      </trkpt>
      <trkpt lat="48.71682" lon="1.73509">
        <ele>139.60000610352</ele>
        <time>2012-07-31T12:12:03.000Z</time>
      </trkpt>
      <trkpt lat="48.71692" lon="1.73506">
        <ele>139.19999694824</ele>
        <time>2012-07-31T12:12:12.000Z</time>
      </trkpt>
      <trkpt lat="48.71703" lon="1.73506">
        <ele>138.80000305176</ele>
        <time>2012-07-31T12:12:20.000Z</time>
      </trkpt>
      <trkpt lat="48.71711" lon="1.73504">
        <ele>138.39999389648</ele>
        <time>2012-07-31T12:12:26.000Z</time>
      </trkpt>
      <trkpt lat="48.71722" lon="1.73501">
        <ele>138</ele>
        <time>2012-07-31T12:12:34.000Z</time>
      </trkpt>
      <trkpt lat="48.71734" lon="1.73498">
        <ele>137.60000610352</ele>
        <time>2012-07-31T12:12:42.000Z</time>
      </trkpt>
      <trkpt lat="48.71744" lon="1.735">
        <ele>137.19999694824</ele>
        <time>2012-07-31T12:12:50.000Z</time>
      </trkpt>
      <trkpt lat="48.71754" lon="1.73498">
        <ele>136.80000305176</ele>
        <time>2012-07-31T12:12:57.000Z</time>
      </trkpt>
      <trkpt lat="48.71762" lon="1.73494">
        <ele>136.60000610352</ele>
        <time>2012-07-31T12:13:04.000Z</time>
      </trkpt>
      <trkpt lat="48.71771" lon="1.7349">
        <ele>136.19999694824</ele>
        <time>2012-07-31T12:13:11.000Z</time>
      </trkpt>
      <trkpt lat="48.71779" lon="1.73483">
        <ele>135.80000305176</ele>
        <time>2012-07-31T12:13:19.000Z</time>
      </trkpt>
      <trkpt lat="48.71789" lon="1.73479">
        <ele>135.39999389648</ele>
        <time>2012-07-31T12:13:27.000Z</time>
      </trkpt>
      <trkpt lat="48.71802" lon="1.73476">
        <ele>134.80000305176</ele>
        <time>2012-07-31T12:13:36.000Z</time>
      </trkpt>
      <trkpt lat="48.71809" lon="1.73474">
        <ele>134.39999389648</ele>
        <time>2012-07-31T12:13:42.000Z</time>
      </trkpt>
      <trkpt lat="48.71818" lon="1.73472">
        <ele>134</ele>
        <time>2012-07-31T12:13:49.000Z</time>
      </trkpt>
      <trkpt lat="48.71829" lon="1.7347">
        <ele>133.39999389648</ele>
        <time>2012-07-31T12:13:56.000Z</time>
      </trkpt>
      <trkpt lat="48.71842" lon="1.73468">
        <ele>133</ele>
        <time>2012-07-31T12:14:05.000Z</time>
      </trkpt>
      <trkpt lat="48.71852" lon="1.73466">
        <ele>132.80000305176</ele>
        <time>2012-07-31T12:14:12.000Z</time>
      </trkpt>
      <trkpt lat="48.7186" lon="1.73466">
        <ele>132.60000610352</ele>
        <time>2012-07-31T12:14:19.000Z</time>
      </trkpt>
      <trkpt lat="48.71862" lon="1.73465">
        <ele>132.39999389648</ele>
        <time>2012-07-31T12:14:21.000Z</time>
      </trkpt>
      <trkpt lat="48.71872" lon="1.73466">
        <ele>132.19999694824</ele>
        <time>2012-07-31T12:14:28.000Z</time>
      </trkpt>
      <trkpt lat="48.71882" lon="1.73463">
        <ele>132</ele>
        <time>2012-07-31T12:14:36.000Z</time>
      </trkpt>
      <trkpt lat="48.71885" lon="1.73463">
        <ele>131.80000305176</ele>
        <time>2012-07-31T12:14:39.000Z</time>
      </trkpt>
      <trkpt lat="48.71893" lon="1.7346">
        <ele>131.60000610352</ele>
        <time>2012-07-31T12:14:44.000Z</time>
      </trkpt>
      <trkpt lat="48.71898" lon="1.73459">
        <ele>131.39999389648</ele>
        <time>2012-07-31T12:14:47.000Z</time>
      </trkpt>
      <trkpt lat="48.7191" lon="1.73455">
        <ele>131</ele>
        <time>2012-07-31T12:14:56.000Z</time>
      </trkpt>
      <trkpt lat="48.71918" lon="1.73454">
        <ele>131</ele>
        <time>2012-07-31T12:15:03.000Z</time>
      </trkpt>
      <trkpt lat="48.71919" lon="1.73454">
        <ele>131</ele>
        <time>2012-07-31T12:15:04.000Z</time>
      </trkpt>
      <trkpt lat="48.71931" lon="1.73452">
        <ele>130.80000305176</ele>
        <time>2012-07-31T12:15:12.000Z</time>
      </trkpt>
      <trkpt lat="48.71933" lon="1.73452">
        <ele>130.80000305176</ele>
        <time>2012-07-31T12:15:13.000Z</time>
      </trkpt>
      <trkpt lat="48.71939" lon="1.73451">
        <ele>130.80000305176</ele>
        <time>2012-07-31T12:15:17.000Z</time>
      </trkpt>
      <trkpt lat="48.71949" lon="1.73448">
        <ele>130.80000305176</ele>
        <time>2012-07-31T12:15:25.000Z</time>
      </trkpt>
      <trkpt lat="48.7195" lon="1.73447">
        <ele>130.80000305176</ele>
        <time>2012-07-31T12:15:26.000Z</time>
      </trkpt>
      <trkpt lat="48.71957" lon="1.73445">
        <ele>130.60000610352</ele>
        <time>2012-07-31T12:15:32.000Z</time>
      </trkpt>
      <trkpt lat="48.71963" lon="1.73444">
        <ele>130.60000610352</ele>
        <time>2012-07-31T12:15:37.000Z</time>
      </trkpt>
      <trkpt lat="48.71972" lon="1.73443">
        <ele>130.60000610352</ele>
        <time>2012-07-31T12:15:44.000Z</time>
      </trkpt>
      <trkpt lat="48.71981" lon="1.7344">
        <ele>130.60000610352</ele>
        <time>2012-07-31T12:15:51.000Z</time>
      </trkpt>
      <trkpt lat="48.7199" lon="1.73436">
        <ele>130.39999389648</ele>
        <time>2012-07-31T12:15:58.000Z</time>
      </trkpt>
      <trkpt lat="48.72001" lon="1.73434">
        <ele>130.39999389648</ele>
        <time>2012-07-31T12:16:06.000Z</time>
      </trkpt>
      <trkpt lat="48.72009" lon="1.73431">
        <ele>130.19999694824</ele>
        <time>2012-07-31T12:16:12.000Z</time>
      </trkpt>
      <trkpt lat="48.72018" lon="1.7343">
        <ele>130.19999694824</ele>
        <time>2012-07-31T12:16:18.000Z</time>
      </trkpt>
      <trkpt lat="48.72027" lon="1.73426">
        <ele>130.19999694824</ele>
        <time>2012-07-31T12:16:25.000Z</time>
      </trkpt>
      <trkpt lat="48.72033" lon="1.73425">
        <ele>130</ele>
        <time>2012-07-31T12:16:29.000Z</time>
      </trkpt>
      <trkpt lat="48.7204" lon="1.73423">
        <ele>130</ele>
        <time>2012-07-31T12:16:36.000Z</time>
      </trkpt>
      <trkpt lat="48.72049" lon="1.7342">
        <ele>130</ele>
        <time>2012-07-31T12:16:42.000Z</time>
      </trkpt>
      <trkpt lat="48.72053" lon="1.73418">
        <ele>130</ele>
        <time>2012-07-31T12:16:45.000Z</time>
      </trkpt>
      <trkpt lat="48.72062" lon="1.73414">
        <ele>130</ele>
        <time>2012-07-31T12:16:52.000Z</time>
      </trkpt>
      <trkpt lat="48.72066" lon="1.73413">
        <ele>130</ele>
        <time>2012-07-31T12:16:55.000Z</time>
      </trkpt>
      <trkpt lat="48.72073" lon="1.73412">
        <ele>129.80000305176</ele>
        <time>2012-07-31T12:17:02.000Z</time>
      </trkpt>
      <trkpt lat="48.72077" lon="1.73412">
        <ele>129.80000305176</ele>
        <time>2012-07-31T12:17:05.000Z</time>
      </trkpt>
      <trkpt lat="48.72088" lon="1.73409">
        <ele>129.60000610352</ele>
        <time>2012-07-31T12:17:12.000Z</time>
      </trkpt>
      <trkpt lat="48.72095" lon="1.73408">
        <ele>129.39999389648</ele>
        <time>2012-07-31T12:17:17.000Z</time>
      </trkpt>
      <trkpt lat="48.72103" lon="1.73407">
        <ele>129</ele>
        <time>2012-07-31T12:17:23.000Z</time>
      </trkpt>
      <trkpt lat="48.72105" lon="1.73406">
        <ele>129</ele>
        <time>2012-07-31T12:17:25.000Z</time>
      </trkpt>
      <trkpt lat="48.72118" lon="1.73402">
        <ele>128.39999389648</ele>
        <time>2012-07-31T12:17:34.000Z</time>
      </trkpt>
      <trkpt lat="48.72128" lon="1.73402">
        <ele>128</ele>
        <time>2012-07-31T12:17:41.000Z</time>
      </trkpt>
      <trkpt lat="48.72138" lon="1.73404">
        <ele>127.80000305176</ele>
        <time>2012-07-31T12:17:47.000Z</time>
      </trkpt>
      <trkpt lat="48.72139" lon="1.73404">
        <ele>127.59999847412</ele>
        <time>2012-07-31T12:17:48.000Z</time>
      </trkpt>
      <trkpt lat="48.72148" lon="1.73404">
        <ele>127.40000152588</ele>
        <time>2012-07-31T12:17:55.000Z</time>
      </trkpt>
      <trkpt lat="48.72151" lon="1.73404">
        <ele>127.19999694824</ele>
        <time>2012-07-31T12:17:57.000Z</time>
      </trkpt>
      <trkpt lat="48.7216" lon="1.73402">
        <ele>126.80000305176</ele>
        <time>2012-07-31T12:18:04.000Z</time>
      </trkpt>
      <trkpt lat="48.72163" lon="1.73402">
        <ele>126.80000305176</ele>
        <time>2012-07-31T12:18:07.000Z</time>
      </trkpt>
      <trkpt lat="48.72174" lon="1.73399">
        <ele>126.59999847412</ele>
        <time>2012-07-31T12:18:15.000Z</time>
      </trkpt>
      <trkpt lat="48.72183" lon="1.73396">
        <ele>126.80000305176</ele>
        <time>2012-07-31T12:18:22.000Z</time>
      </trkpt>
      <trkpt lat="48.72192" lon="1.73394">
        <ele>127</ele>
        <time>2012-07-31T12:18:28.000Z</time>
      </trkpt>
      <trkpt lat="48.72196" lon="1.73392">
        <ele>127</ele>
        <time>2012-07-31T12:18:31.000Z</time>
      </trkpt>
      <trkpt lat="48.72198" lon="1.73391">
        <ele>127</ele>
        <time>2012-07-31T12:18:33.000Z</time>
      </trkpt>
      <trkpt lat="48.72207" lon="1.7339">
        <ele>127.19999694824</ele>
        <time>2012-07-31T12:18:40.000Z</time>
      </trkpt>
      <trkpt lat="48.72211" lon="1.73391">
        <ele>127.19999694824</ele>
        <time>2012-07-31T12:18:43.000Z</time>
      </trkpt>
      <trkpt lat="48.72217" lon="1.73391">
        <ele>127.40000152588</ele>
        <time>2012-07-31T12:18:47.000Z</time>
      </trkpt>
      <trkpt lat="48.72225" lon="1.73391">
        <ele>127.59999847412</ele>
        <time>2012-07-31T12:18:54.000Z</time>
      </trkpt>
      <trkpt lat="48.72234" lon="1.73387">
        <ele>127.59999847412</ele>
        <time>2012-07-31T12:19:01.000Z</time>
      </trkpt>
      <trkpt lat="48.72242" lon="1.73389">
        <ele>127.80000305176</ele>
        <time>2012-07-31T12:19:07.000Z</time>
      </trkpt>
      <trkpt lat="48.72249" lon="1.73392">
        <ele>128</ele>
        <time>2012-07-31T12:19:14.000Z</time>
      </trkpt>
      <trkpt lat="48.72257" lon="1.73393">
        <ele>128</ele>
        <time>2012-07-31T12:19:21.000Z</time>
      </trkpt>
      <trkpt lat="48.72268" lon="1.73396">
        <ele>128</ele>
        <time>2012-07-31T12:19:29.000Z</time>
      </trkpt>
      <trkpt lat="48.72276" lon="1.73398">
        <ele>128</ele>
        <time>2012-07-31T12:19:35.000Z</time>
      </trkpt>
      <trkpt lat="48.72283" lon="1.73396">
        <ele>128</ele>
        <time>2012-07-31T12:19:40.000Z</time>
      </trkpt>
      <trkpt lat="48.72289" lon="1.73395">
        <ele>127.80000305176</ele>
        <time>2012-07-31T12:19:44.000Z</time>
      </trkpt>
      <trkpt lat="48.72294" lon="1.734">
        <ele>127.80000305176</ele>
        <time>2012-07-31T12:19:49.000Z</time>
      </trkpt>
      <trkpt lat="48.72299" lon="1.73404">
        <ele>128</ele>
        <time>2012-07-31T12:19:54.000Z</time>
      </trkpt>
      <trkpt lat="48.72309" lon="1.73403">
        <ele>127.80000305176</ele>
        <time>2012-07-31T12:20:01.000Z</time>
      </trkpt>
      <trkpt lat="48.72315" lon="1.73409">
        <ele>128</ele>
        <time>2012-07-31T12:20:07.000Z</time>
      </trkpt>
      <trkpt lat="48.72323" lon="1.7341">
        <ele>128</ele>
        <time>2012-07-31T12:20:13.000Z</time>
      </trkpt>
      <trkpt lat="48.7233" lon="1.73409">
        <ele>128</ele>
        <time>2012-07-31T12:20:19.000Z</time>
      </trkpt>
      <trkpt lat="48.72333" lon="1.73409">
        <ele>128</ele>
        <time>2012-07-31T12:20:22.000Z</time>
      </trkpt>
      <trkpt lat="48.72343" lon="1.73411">
        <ele>127.59999847412</ele>
        <time>2012-07-31T12:20:29.000Z</time>
      </trkpt>
      <trkpt lat="48.72348" lon="1.73412">
        <ele>127.59999847412</ele>
        <time>2012-07-31T12:20:33.000Z</time>
      </trkpt>
      <trkpt lat="48.7236" lon="1.73416">
        <ele>127.40000152588</ele>
        <time>2012-07-31T12:20:42.000Z</time>
      </trkpt>
      <trkpt lat="48.72369" lon="1.73419">
        <ele>127.19999694824</ele>
        <time>2012-07-31T12:20:48.000Z</time>
      </trkpt>
      <trkpt lat="48.72375" lon="1.73422">
        <ele>127</ele>
        <time>2012-07-31T12:20:54.000Z</time>
      </trkpt>
      <trkpt lat="48.72383" lon="1.73424">
        <ele>126.80000305176</ele>
        <time>2012-07-31T12:21:00.000Z</time>
      </trkpt>
      <trkpt lat="48.72386" lon="1.73425">
        <ele>126.80000305176</ele>
        <time>2012-07-31T12:21:03.000Z</time>
      </trkpt>
      <trkpt lat="48.72396" lon="1.73428">
        <ele>126.40000152588</ele>
        <time>2012-07-31T12:21:10.000Z</time>
      </trkpt>
      <trkpt lat="48.72402" lon="1.7343">
        <ele>126.40000152588</ele>
        <time>2012-07-31T12:21:14.000Z</time>
      </trkpt>
      <trkpt lat="48.72407" lon="1.73431">
        <ele>126.19999694824</ele>
        <time>2012-07-31T12:21:18.000Z</time>
      </trkpt>
      <trkpt lat="48.72419" lon="1.73434">
        <ele>126</ele>
        <time>2012-07-31T12:21:26.000Z</time>
      </trkpt>
      <trkpt lat="48.72426" lon="1.73436">
        <ele>126.40000152588</ele>
        <time>2012-07-31T12:21:32.000Z</time>
      </trkpt>
      <trkpt lat="48.72434" lon="1.73439">
        <ele>126.59999847412</ele>
        <time>2012-07-31T12:21:38.000Z</time>
      </trkpt>
      <trkpt lat="48.72444" lon="1.7344">
        <ele>127</ele>
        <time>2012-07-31T12:21:44.000Z</time>
      </trkpt>
      <trkpt lat="48.72453" lon="1.73442">
        <ele>127.40000152588</ele>
        <time>2012-07-31T12:21:50.000Z</time>
      </trkpt>
      <trkpt lat="48.72465" lon="1.73443">
        <ele>127.80000305176</ele>
        <time>2012-07-31T12:21:58.000Z</time>
      </trkpt>
      <trkpt lat="48.72475" lon="1.73443">
        <ele>128.19999694824</ele>
        <time>2012-07-31T12:22:06.000Z</time>
      </trkpt>
      <trkpt lat="48.72487" lon="1.73444">
        <ele>128.60000610352</ele>
        <time>2012-07-31T12:22:14.000Z</time>
      </trkpt>
      <trkpt lat="48.72497" lon="1.73446">
        <ele>128.80000305176</ele>
        <time>2012-07-31T12:22:21.000Z</time>
      </trkpt>
      <trkpt lat="48.72507" lon="1.7345">
        <ele>129</ele>
        <time>2012-07-31T12:22:30.000Z</time>
      </trkpt>
      <trkpt lat="48.72518" lon="1.73452">
        <ele>128.80000305176</ele>
        <time>2012-07-31T12:22:38.000Z</time>
      </trkpt>
      <trkpt lat="48.72526" lon="1.73456">
        <ele>128.80000305176</ele>
        <time>2012-07-31T12:22:44.000Z</time>
      </trkpt>
      <trkpt lat="48.72529" lon="1.73456">
        <ele>128.60000610352</ele>
        <time>2012-07-31T12:22:46.000Z</time>
      </trkpt>
      <trkpt lat="48.72543" lon="1.73464">
        <ele>128.39999389648</ele>
        <time>2012-07-31T12:22:56.000Z</time>
      </trkpt>
      <trkpt lat="48.72553" lon="1.73472">
        <ele>128.19999694824</ele>
        <time>2012-07-31T12:23:04.000Z</time>
      </trkpt>
      <trkpt lat="48.72555" lon="1.73476">
        <ele>128</ele>
        <time>2012-07-31T12:23:07.000Z</time>
      </trkpt>
      <trkpt lat="48.72563" lon="1.73484">
        <ele>127.80000305176</ele>
        <time>2012-07-31T12:23:14.000Z</time>
      </trkpt>
      <trkpt lat="48.7257" lon="1.73491">
        <ele>127.59999847412</ele>
        <time>2012-07-31T12:23:20.000Z</time>
      </trkpt>
      <trkpt lat="48.72577" lon="1.73498">
        <ele>127.19999694824</ele>
        <time>2012-07-31T12:23:27.000Z</time>
      </trkpt>
      <trkpt lat="48.72585" lon="1.73506">
        <ele>127</ele>
        <time>2012-07-31T12:23:34.000Z</time>
      </trkpt>
      <trkpt lat="48.72594" lon="1.73518">
        <ele>127.40000152588</ele>
        <time>2012-07-31T12:23:43.000Z</time>
      </trkpt>
      <trkpt lat="48.72605" lon="1.7353">
        <ele>127.59999847412</ele>
        <time>2012-07-31T12:23:53.000Z</time>
      </trkpt>
      <trkpt lat="48.72617" lon="1.73543">
        <ele>127.80000305176</ele>
        <time>2012-07-31T12:24:04.000Z</time>
      </trkpt>
      <trkpt lat="48.72626" lon="1.73553">
        <ele>127.80000305176</ele>
        <time>2012-07-31T12:24:11.000Z</time>
      </trkpt>
      <trkpt lat="48.72638" lon="1.73566">
        <ele>128</ele>
        <time>2012-07-31T12:24:22.000Z</time>
      </trkpt>
      <trkpt lat="48.72647" lon="1.7357">
        <ele>128</ele>
        <time>2012-07-31T12:24:29.000Z</time>
      </trkpt>
      <trkpt lat="48.72656" lon="1.73579">
        <ele>128</ele>
        <time>2012-07-31T12:24:37.000Z</time>
      </trkpt>
      <trkpt lat="48.72658" lon="1.73583">
        <ele>128</ele>
        <time>2012-07-31T12:24:40.000Z</time>
      </trkpt>
      <trkpt lat="48.72665" lon="1.73589">
        <ele>128.19999694824</ele>
        <time>2012-07-31T12:24:46.000Z</time>
      </trkpt>
      <trkpt lat="48.72674" lon="1.73596">
        <ele>128.39999389648</ele>
        <time>2012-07-31T12:24:53.000Z</time>
      </trkpt>
      <trkpt lat="48.72678" lon="1.73601">
        <ele>128.39999389648</ele>
        <time>2012-07-31T12:24:59.000Z</time>
      </trkpt>
      <trkpt lat="48.72679" lon="1.73601">
        <ele>128.39999389648</ele>
        <time>2012-07-31T12:25:00.000Z</time>
      </trkpt>
      <trkpt lat="48.72688" lon="1.73612">
        <ele>128.80000305176</ele>
        <time>2012-07-31T12:25:44.000Z</time>
      </trkpt>
      <trkpt lat="48.72696" lon="1.73618">
        <ele>129</ele>
        <time>2012-07-31T12:25:51.000Z</time>
      </trkpt>
      <trkpt lat="48.72705" lon="1.73627">
        <ele>129.19999694824</ele>
        <time>2012-07-31T12:26:00.000Z</time>
      </trkpt>
      <trkpt lat="48.7271" lon="1.73637">
        <ele>129.60000610352</ele>
        <time>2012-07-31T12:26:07.000Z</time>
      </trkpt>
      <trkpt lat="48.7272" lon="1.73648">
        <ele>130</ele>
        <time>2012-07-31T12:26:16.000Z</time>
      </trkpt>
      <trkpt lat="48.72726" lon="1.73654">
        <ele>130.19999694824</ele>
        <time>2012-07-31T12:26:22.000Z</time>
      </trkpt>
      <trkpt lat="48.72738" lon="1.73666">
        <ele>130.80000305176</ele>
        <time>2012-07-31T12:26:33.000Z</time>
      </trkpt>
      <trkpt lat="48.72746" lon="1.73673">
        <ele>131</ele>
        <time>2012-07-31T12:26:40.000Z</time>
      </trkpt>
      <trkpt lat="48.72756" lon="1.73683">
        <ele>131.19999694824</ele>
        <time>2012-07-31T12:26:49.000Z</time>
      </trkpt>
      <trkpt lat="48.72763" lon="1.7369">
        <ele>131.19999694824</ele>
        <time>2012-07-31T12:26:56.000Z</time>
      </trkpt>
      <trkpt lat="48.72765" lon="1.73693">
        <ele>131.19999694824</ele>
        <time>2012-07-31T12:26:58.000Z</time>
      </trkpt>
      <trkpt lat="48.72771" lon="1.73698">
        <ele>131.39999389648</ele>
        <time>2012-07-31T12:27:03.000Z</time>
      </trkpt>
      <trkpt lat="48.72782" lon="1.73709">
        <ele>131.60000610352</ele>
        <time>2012-07-31T12:27:13.000Z</time>
      </trkpt>
      <trkpt lat="48.72789" lon="1.73717">
        <ele>131.80000305176</ele>
        <time>2012-07-31T12:27:20.000Z</time>
      </trkpt>
      <trkpt lat="48.72797" lon="1.73726">
        <ele>132</ele>
        <time>2012-07-31T12:27:27.000Z</time>
      </trkpt>
      <trkpt lat="48.72804" lon="1.73733">
        <ele>132.19999694824</ele>
        <time>2012-07-31T12:27:33.000Z</time>
      </trkpt>
      <trkpt lat="48.72809" lon="1.73739">
        <ele>132.39999389648</ele>
        <time>2012-07-31T12:27:39.000Z</time>
      </trkpt>
      <trkpt lat="48.72818" lon="1.73746">
        <ele>132.80000305176</ele>
        <time>2012-07-31T12:27:47.000Z</time>
      </trkpt>
      <trkpt lat="48.72826" lon="1.73757">
        <ele>133</ele>
        <time>2012-07-31T12:27:55.000Z</time>
      </trkpt>
      <trkpt lat="48.72834" lon="1.73767">
        <ele>133.39999389648</ele>
        <time>2012-07-31T12:28:04.000Z</time>
      </trkpt>
      <trkpt lat="48.72843" lon="1.73777">
        <ele>133.80000305176</ele>
        <time>2012-07-31T12:28:12.000Z</time>
      </trkpt>
      <trkpt lat="48.72856" lon="1.73789">
        <ele>134</ele>
        <time>2012-07-31T12:28:22.000Z</time>
      </trkpt>
      <trkpt lat="48.72865" lon="1.73797">
        <ele>134.19999694824</ele>
        <time>2012-07-31T12:28:30.000Z</time>
      </trkpt>
      <trkpt lat="48.72871" lon="1.73804">
        <ele>134.39999389648</ele>
        <time>2012-07-31T12:28:36.000Z</time>
      </trkpt>
      <trkpt lat="48.72875" lon="1.73808">
        <ele>134.60000610352</ele>
        <time>2012-07-31T12:28:40.000Z</time>
      </trkpt>
      <trkpt lat="48.72885" lon="1.73818">
        <ele>134.80000305176</ele>
        <time>2012-07-31T12:28:49.000Z</time>
      </trkpt>
      <trkpt lat="48.72891" lon="1.73825">
        <ele>134.80000305176</ele>
        <time>2012-07-31T12:28:55.000Z</time>
      </trkpt>
      <trkpt lat="48.72898" lon="1.73831">
        <ele>135</ele>
        <time>2012-07-31T12:29:01.000Z</time>
      </trkpt>
      <trkpt lat="48.72909" lon="1.73841">
        <ele>135.19999694824</ele>
        <time>2012-07-31T12:29:11.000Z</time>
      </trkpt>
      <trkpt lat="48.72919" lon="1.73853">
        <ele>135.60000610352</ele>
        <time>2012-07-31T12:29:21.000Z</time>
      </trkpt>
      <trkpt lat="48.72924" lon="1.73858">
        <ele>135.60000610352</ele>
        <time>2012-07-31T12:29:25.000Z</time>
      </trkpt>
      <trkpt lat="48.72929" lon="1.73863">
        <ele>135.80000305176</ele>
        <time>2012-07-31T12:29:29.000Z</time>
      </trkpt>
      <trkpt lat="48.72941" lon="1.73877">
        <ele>136.39999389648</ele>
        <time>2012-07-31T12:29:41.000Z</time>
      </trkpt>
      <trkpt lat="48.72948" lon="1.73881">
        <ele>136.60000610352</ele>
        <time>2012-07-31T12:29:47.000Z</time>
      </trkpt>
      <trkpt lat="48.72957" lon="1.73891">
        <ele>136.80000305176</ele>
        <time>2012-07-31T12:29:56.000Z</time>
      </trkpt>
      <trkpt lat="48.72966" lon="1.73897">
        <ele>137.19999694824</ele>
        <time>2012-07-31T12:30:03.000Z</time>
      </trkpt>
      <trkpt lat="48.72971" lon="1.739">
        <ele>137.19999694824</ele>
        <time>2012-07-31T12:30:07.000Z</time>
      </trkpt>
      <trkpt lat="48.72982" lon="1.73911">
        <ele>137.60000610352</ele>
        <time>2012-07-31T12:30:16.000Z</time>
      </trkpt>
      <trkpt lat="48.7299" lon="1.73924">
        <ele>137.80000305176</ele>
        <time>2012-07-31T12:30:25.000Z</time>
      </trkpt>
      <trkpt lat="48.72997" lon="1.73939">
        <ele>138</ele>
        <time>2012-07-31T12:30:33.000Z</time>
      </trkpt>
      <trkpt lat="48.73" lon="1.73952">
        <ele>138</ele>
        <time>2012-07-31T12:30:40.000Z</time>
      </trkpt>
      <trkpt lat="48.73001" lon="1.73953">
        <ele>138</ele>
        <time>2012-07-31T12:30:41.000Z</time>
      </trkpt>
      <trkpt lat="48.73001" lon="1.73964">
        <ele>138</ele>
        <time>2012-07-31T12:30:46.000Z</time>
      </trkpt>
      <trkpt lat="48.73003" lon="1.73979">
        <ele>138</ele>
        <time>2012-07-31T12:30:52.000Z</time>
      </trkpt>
      <trkpt lat="48.73003" lon="1.73985">
        <ele>138</ele>
        <time>2012-07-31T12:30:55.000Z</time>
      </trkpt>
      <trkpt lat="48.73003" lon="1.74004">
        <ele>138</ele>
        <time>2012-07-31T12:31:02.000Z</time>
      </trkpt>
      <trkpt lat="48.73003" lon="1.74022">
        <ele>138.19999694824</ele>
        <time>2012-07-31T12:31:10.000Z</time>
      </trkpt>
      <trkpt lat="48.73003" lon="1.74028">
        <ele>138.39999389648</ele>
        <time>2012-07-31T12:31:13.000Z</time>
      </trkpt>
      <trkpt lat="48.73005" lon="1.74038">
        <ele>138.39999389648</ele>
        <time>2012-07-31T12:31:19.000Z</time>
      </trkpt>
      <trkpt lat="48.73006" lon="1.74058">
        <ele>138.60000610352</ele>
        <time>2012-07-31T12:31:29.000Z</time>
      </trkpt>
      <trkpt lat="48.73007" lon="1.74074">
        <ele>138.80000305176</ele>
        <time>2012-07-31T12:31:37.000Z</time>
      </trkpt>
      <trkpt lat="48.73009" lon="1.74084">
        <ele>139</ele>
        <time>2012-07-31T12:31:42.000Z</time>
      </trkpt>
      <trkpt lat="48.73008" lon="1.74096">
        <ele>139.19999694824</ele>
        <time>2012-07-31T12:31:47.000Z</time>
      </trkpt>
      <trkpt lat="48.73009" lon="1.74108">
        <ele>139.39999389648</ele>
        <time>2012-07-31T12:31:53.000Z</time>
      </trkpt>
      <trkpt lat="48.7301" lon="1.74121">
        <ele>139.80000305176</ele>
        <time>2012-07-31T12:32:00.000Z</time>
      </trkpt>
      <trkpt lat="48.73011" lon="1.74133">
        <ele>140</ele>
        <time>2012-07-31T12:32:06.000Z</time>
      </trkpt>
      <trkpt lat="48.73011" lon="1.74146">
        <ele>140.39999389648</ele>
        <time>2012-07-31T12:32:13.000Z</time>
      </trkpt>
      <trkpt lat="48.73011" lon="1.74157">
        <ele>140.60000610352</ele>
        <time>2012-07-31T12:32:19.000Z</time>
      </trkpt>
      <trkpt lat="48.73013" lon="1.7417">
        <ele>140.80000305176</ele>
        <time>2012-07-31T12:32:26.000Z</time>
      </trkpt>
      <trkpt lat="48.73016" lon="1.74181">
        <ele>141</ele>
        <time>2012-07-31T12:32:31.000Z</time>
      </trkpt>
      <trkpt lat="48.73017" lon="1.74193">
        <ele>141.19999694824</ele>
        <time>2012-07-31T12:32:37.000Z</time>
      </trkpt>
      <trkpt lat="48.73021" lon="1.74207">
        <ele>141.19999694824</ele>
        <time>2012-07-31T12:32:43.000Z</time>
      </trkpt>
      <trkpt lat="48.73025" lon="1.7422">
        <ele>141.39999389648</ele>
        <time>2012-07-31T12:32:50.000Z</time>
      </trkpt>
      <trkpt lat="48.73026" lon="1.74233">
        <ele>141.39999389648</ele>
        <time>2012-07-31T12:32:57.000Z</time>
      </trkpt>
      <trkpt lat="48.73027" lon="1.74246">
        <ele>141.60000610352</ele>
        <time>2012-07-31T12:33:04.000Z</time>
      </trkpt>
      <trkpt lat="48.73028" lon="1.74258">
        <ele>141.60000610352</ele>
        <time>2012-07-31T12:33:10.000Z</time>
      </trkpt>
      <trkpt lat="48.73028" lon="1.74265">
        <ele>141.60000610352</ele>
        <time>2012-07-31T12:33:14.000Z</time>
      </trkpt>
      <trkpt lat="48.73029" lon="1.74282">
        <ele>141.60000610352</ele>
        <time>2012-07-31T12:33:22.000Z</time>
      </trkpt>
      <trkpt lat="48.73031" lon="1.74293">
        <ele>141.39999389648</ele>
        <time>2012-07-31T12:33:28.000Z</time>
      </trkpt>
      <trkpt lat="48.73031" lon="1.74294">
        <ele>141.39999389648</ele>
        <time>2012-07-31T12:33:31.000Z</time>
      </trkpt>
      <trkpt lat="48.73036" lon="1.74305">
        <ele>141.19999694824</ele>
        <time>2012-07-31T12:33:46.000Z</time>
      </trkpt>
      <trkpt lat="48.73037" lon="1.74311">
        <ele>141.19999694824</ele>
        <time>2012-07-31T12:33:48.000Z</time>
      </trkpt>
      <trkpt lat="48.73037" lon="1.74319">
        <ele>141.19999694824</ele>
        <time>2012-07-31T12:33:52.000Z</time>
      </trkpt>
      <trkpt lat="48.7304" lon="1.74338">
        <ele>141</ele>
        <time>2012-07-31T12:34:01.000Z</time>
      </trkpt>
      <trkpt lat="48.7304" lon="1.74345">
        <ele>141</ele>
        <time>2012-07-31T12:34:04.000Z</time>
      </trkpt>
      <trkpt lat="48.73043" lon="1.7436">
        <ele>140.80000305176</ele>
        <time>2012-07-31T12:34:11.000Z</time>
      </trkpt>
      <trkpt lat="48.73043" lon="1.74373">
        <ele>140.80000305176</ele>
        <time>2012-07-31T12:34:17.000Z</time>
      </trkpt>
      <trkpt lat="48.73042" lon="1.7439">
        <ele>140.60000610352</ele>
        <time>2012-07-31T12:34:25.000Z</time>
      </trkpt>
      <trkpt lat="48.73041" lon="1.74405">
        <ele>140.60000610352</ele>
        <time>2012-07-31T12:34:31.000Z</time>
      </trkpt>
      <trkpt lat="48.73043" lon="1.74423">
        <ele>140.60000610352</ele>
        <time>2012-07-31T12:34:39.000Z</time>
      </trkpt>
      <trkpt lat="48.73045" lon="1.74436">
        <ele>140.60000610352</ele>
        <time>2012-07-31T12:34:45.000Z</time>
      </trkpt>
      <trkpt lat="48.73047" lon="1.7445">
        <ele>140.60000610352</ele>
        <time>2012-07-31T12:34:52.000Z</time>
      </trkpt>
      <trkpt lat="48.73047" lon="1.74457">
        <ele>140.60000610352</ele>
        <time>2012-07-31T12:34:56.000Z</time>
      </trkpt>
      <trkpt lat="48.73055" lon="1.74457">
        <ele>140.60000610352</ele>
        <time>2012-07-31T12:35:02.000Z</time>
      </trkpt>
      <trkpt lat="48.73068" lon="1.74448">
        <ele>140.19999694824</ele>
        <time>2012-07-31T12:35:12.000Z</time>
      </trkpt>
      <trkpt lat="48.73077" lon="1.74442">
        <ele>140</ele>
        <time>2012-07-31T12:35:19.000Z</time>
      </trkpt>
      <trkpt lat="48.73086" lon="1.74437">
        <ele>140</ele>
        <time>2012-07-31T12:35:26.000Z</time>
      </trkpt>
      <trkpt lat="48.73096" lon="1.74431">
        <ele>140.39999389648</ele>
        <time>2012-07-31T12:35:34.000Z</time>
      </trkpt>
      <trkpt lat="48.73097" lon="1.74431">
        <ele>140.39999389648</ele>
        <time>2012-07-31T12:35:35.000Z</time>
      </trkpt>
      <trkpt lat="48.73107" lon="1.74424">
        <ele>140.80000305176</ele>
        <time>2012-07-31T12:35:44.000Z</time>
      </trkpt>
      <trkpt lat="48.73116" lon="1.74418">
        <ele>141.19999694824</ele>
        <time>2012-07-31T12:35:50.000Z</time>
      </trkpt>
      <trkpt lat="48.73124" lon="1.7441">
        <ele>141.39999389648</ele>
        <time>2012-07-31T12:35:57.000Z</time>
      </trkpt>
      <trkpt lat="48.73133" lon="1.74404">
        <ele>141.80000305176</ele>
        <time>2012-07-31T12:36:03.000Z</time>
      </trkpt>
      <trkpt lat="48.73141" lon="1.74397">
        <ele>142</ele>
        <time>2012-07-31T12:36:08.000Z</time>
      </trkpt>
      <trkpt lat="48.73154" lon="1.74391">
        <ele>142.60000610352</ele>
        <time>2012-07-31T12:36:16.000Z</time>
      </trkpt>
      <trkpt lat="48.73157" lon="1.7439">
        <ele>142.60000610352</ele>
        <time>2012-07-31T12:36:18.000Z</time>
      </trkpt>
      <trkpt lat="48.73165" lon="1.74385">
        <ele>143</ele>
        <time>2012-07-31T12:36:24.000Z</time>
      </trkpt>
      <trkpt lat="48.73168" lon="1.74383">
        <ele>143</ele>
        <time>2012-07-31T12:36:26.000Z</time>
      </trkpt>
      <trkpt lat="48.73179" lon="1.74376">
        <ele>142.80000305176</ele>
        <time>2012-07-31T12:36:34.000Z</time>
      </trkpt>
      <trkpt lat="48.7319" lon="1.7437">
        <ele>142.60000610352</ele>
        <time>2012-07-31T12:36:41.000Z</time>
      </trkpt>
      <trkpt lat="48.73194" lon="1.74367">
        <ele>142.39999389648</ele>
        <time>2012-07-31T12:36:45.000Z</time>
      </trkpt>
      <trkpt lat="48.73206" lon="1.74362">
        <ele>142.19999694824</ele>
        <time>2012-07-31T12:36:54.000Z</time>
      </trkpt>
      <trkpt lat="48.73216" lon="1.74357">
        <ele>142</ele>
        <time>2012-07-31T12:37:02.000Z</time>
      </trkpt>
      <trkpt lat="48.73227" lon="1.74351">
        <ele>141.80000305176</ele>
        <time>2012-07-31T12:37:10.000Z</time>
      </trkpt>
      <trkpt lat="48.73239" lon="1.74344">
        <ele>141.39999389648</ele>
        <time>2012-07-31T12:37:19.000Z</time>
      </trkpt>
      <trkpt lat="48.73249" lon="1.74337">
        <ele>141</ele>
        <time>2012-07-31T12:37:27.000Z</time>
      </trkpt>
      <trkpt lat="48.7326" lon="1.74329">
        <ele>141</ele>
        <time>2012-07-31T12:37:34.000Z</time>
      </trkpt>
      <trkpt lat="48.73265" lon="1.74328">
        <ele>141</ele>
        <time>2012-07-31T12:37:40.000Z</time>
      </trkpt>
      <trkpt lat="48.73265" lon="1.74328">
        <ele>141</ele>
        <time>2012-07-31T12:37:41.000Z</time>
      </trkpt>
      <trkpt lat="48.73272" lon="1.74317">
        <ele>141</ele>
        <time>2012-07-31T12:38:06.000Z</time>
      </trkpt>
      <trkpt lat="48.73279" lon="1.74304">
        <ele>140.80000305176</ele>
        <time>2012-07-31T12:38:13.000Z</time>
      </trkpt>
      <trkpt lat="48.73283" lon="1.74291">
        <ele>140.80000305176</ele>
        <time>2012-07-31T12:38:21.000Z</time>
      </trkpt>
      <trkpt lat="48.73289" lon="1.74276">
        <ele>140.60000610352</ele>
        <time>2012-07-31T12:38:30.000Z</time>
      </trkpt>
      <trkpt lat="48.73294" lon="1.74264">
        <ele>140.60000610352</ele>
        <time>2012-07-31T12:38:37.000Z</time>
      </trkpt>
      <trkpt lat="48.73295" lon="1.74263">
        <ele>140.60000610352</ele>
        <time>2012-07-31T12:38:38.000Z</time>
      </trkpt>
      <trkpt lat="48.733" lon="1.74254">
        <ele>140.39999389648</ele>
        <time>2012-07-31T12:38:43.000Z</time>
      </trkpt>
      <trkpt lat="48.73305" lon="1.74256">
        <ele>140.39999389648</ele>
        <time>2012-07-31T12:38:47.000Z</time>
      </trkpt>
      <trkpt lat="48.73318" lon="1.74271">
        <ele>140.39999389648</ele>
        <time>2012-07-31T12:38:59.000Z</time>
      </trkpt>
      <trkpt lat="48.73324" lon="1.74277">
        <ele>140.39999389648</ele>
        <time>2012-07-31T12:39:04.000Z</time>
      </trkpt>
      <trkpt lat="48.73329" lon="1.74278">
        <ele>140.39999389648</ele>
        <time>2012-07-31T12:39:09.000Z</time>
      </trkpt>
      <trkpt lat="48.73332" lon="1.74282">
        <ele>140.39999389648</ele>
        <time>2012-07-31T12:39:12.000Z</time>
      </trkpt>
      <trkpt lat="48.73346" lon="1.74297">
        <ele>140.39999389648</ele>
        <time>2012-07-31T12:39:24.000Z</time>
      </trkpt>
      <trkpt lat="48.73354" lon="1.74307">
        <ele>140.60000610352</ele>
        <time>2012-07-31T12:39:32.000Z</time>
      </trkpt>
      <trkpt lat="48.73363" lon="1.74317">
        <ele>140.60000610352</ele>
        <time>2012-07-31T12:39:40.000Z</time>
      </trkpt>
      <trkpt lat="48.73371" lon="1.74325">
        <ele>140.39999389648</ele>
        <time>2012-07-31T12:39:47.000Z</time>
      </trkpt>
      <trkpt lat="48.73384" lon="1.74339">
        <ele>140.39999389648</ele>
        <time>2012-07-31T12:39:58.000Z</time>
      </trkpt>
      <trkpt lat="48.73398" lon="1.74352">
        <ele>140.39999389648</ele>
        <time>2012-07-31T12:40:09.000Z</time>
      </trkpt>
      <trkpt lat="48.73409" lon="1.74362">
        <ele>140.39999389648</ele>
        <time>2012-07-31T12:40:18.000Z</time>
      </trkpt>
      <trkpt lat="48.73425" lon="1.74378">
        <ele>140.39999389648</ele>
        <time>2012-07-31T12:40:31.000Z</time>
      </trkpt>
      <trkpt lat="48.73427" lon="1.74381">
        <ele>140.39999389648</ele>
        <time>2012-07-31T12:40:33.000Z</time>
      </trkpt>
      <trkpt lat="48.73435" lon="1.74388">
        <ele>140.19999694824</ele>
        <time>2012-07-31T12:40:39.000Z</time>
      </trkpt>
      <trkpt lat="48.73437" lon="1.74391">
        <ele>140.19999694824</ele>
        <time>2012-07-31T12:40:41.000Z</time>
      </trkpt>
      <trkpt lat="48.73445" lon="1.744">
        <ele>140.19999694824</ele>
        <time>2012-07-31T12:40:48.000Z</time>
      </trkpt>
      <trkpt lat="48.73454" lon="1.7441">
        <ele>140</ele>
        <time>2012-07-31T12:40:56.000Z</time>
      </trkpt>
      <trkpt lat="48.73463" lon="1.74417">
        <ele>139.80000305176</ele>
        <time>2012-07-31T12:41:03.000Z</time>
      </trkpt>
      <trkpt lat="48.73471" lon="1.74423">
        <ele>139.80000305176</ele>
        <time>2012-07-31T12:41:09.000Z</time>
      </trkpt>
      <trkpt lat="48.73478" lon="1.74432">
        <ele>140</ele>
        <time>2012-07-31T12:41:15.000Z</time>
      </trkpt>
      <trkpt lat="48.7349" lon="1.74444">
        <ele>140.19999694824</ele>
        <time>2012-07-31T12:41:25.000Z</time>
      </trkpt>
      <trkpt lat="48.73492" lon="1.74446">
        <ele>140.19999694824</ele>
        <time>2012-07-31T12:41:27.000Z</time>
      </trkpt>
      <trkpt lat="48.73499" lon="1.74451">
        <ele>140.19999694824</ele>
        <time>2012-07-31T12:41:32.000Z</time>
      </trkpt>
      <trkpt lat="48.73507" lon="1.74461">
        <ele>140.80000305176</ele>
        <time>2012-07-31T12:41:39.000Z</time>
      </trkpt>
      <trkpt lat="48.73514" lon="1.74469">
        <ele>141.39999389648</ele>
        <time>2012-07-31T12:41:45.000Z</time>
      </trkpt>
      <trkpt lat="48.73516" lon="1.74472">
        <ele>141.60000610352</ele>
        <time>2012-07-31T12:41:47.000Z</time>
      </trkpt>
      <trkpt lat="48.73523" lon="1.7448">
        <ele>142</ele>
        <time>2012-07-31T12:41:54.000Z</time>
      </trkpt>
      <trkpt lat="48.73533" lon="1.74492">
        <ele>142.60000610352</ele>
        <time>2012-07-31T12:42:03.000Z</time>
      </trkpt>
      <trkpt lat="48.73542" lon="1.745">
        <ele>143</ele>
        <time>2012-07-31T12:42:10.000Z</time>
      </trkpt>
      <trkpt lat="48.73549" lon="1.74508">
        <ele>143.19999694824</ele>
        <time>2012-07-31T12:42:16.000Z</time>
      </trkpt>
      <trkpt lat="48.73559" lon="1.74517">
        <ele>143.80000305176</ele>
        <time>2012-07-31T12:42:24.000Z</time>
      </trkpt>
      <trkpt lat="48.73565" lon="1.74526">
        <ele>144</ele>
        <time>2012-07-31T12:42:30.000Z</time>
      </trkpt>
      <trkpt lat="48.7357" lon="1.74531">
        <ele>144.39999389648</ele>
        <time>2012-07-31T12:42:35.000Z</time>
      </trkpt>
      <trkpt lat="48.73572" lon="1.74532">
        <ele>144.39999389648</ele>
        <time>2012-07-31T12:42:39.000Z</time>
      </trkpt>
      <trkpt lat="48.73579" lon="1.74536">
        <ele>144.80000305176</ele>
        <time>2012-07-31T12:42:48.000Z</time>
      </trkpt>
      <trkpt lat="48.73587" lon="1.74541">
        <ele>145.19999694824</ele>
        <time>2012-07-31T12:42:55.000Z</time>
      </trkpt>
      <trkpt lat="48.73596" lon="1.74552">
        <ele>146</ele>
        <time>2012-07-31T12:43:04.000Z</time>
      </trkpt>
      <trkpt lat="48.73604" lon="1.74562">
        <ele>146.80000305176</ele>
        <time>2012-07-31T12:43:13.000Z</time>
      </trkpt>
      <trkpt lat="48.73611" lon="1.74569">
        <ele>147.39999389648</ele>
        <time>2012-07-31T12:43:20.000Z</time>
      </trkpt>
      <trkpt lat="48.73621" lon="1.74581">
        <ele>148.19999694824</ele>
        <time>2012-07-31T12:43:30.000Z</time>
      </trkpt>
      <trkpt lat="48.73628" lon="1.74588">
        <ele>148.80000305176</ele>
        <time>2012-07-31T12:43:37.000Z</time>
      </trkpt>
      <trkpt lat="48.73636" lon="1.74595">
        <ele>149.19999694824</ele>
        <time>2012-07-31T12:43:44.000Z</time>
      </trkpt>
      <trkpt lat="48.73644" lon="1.74604">
        <ele>149.60000610352</ele>
        <time>2012-07-31T12:43:53.000Z</time>
      </trkpt>
      <trkpt lat="48.7365" lon="1.7461">
        <ele>150</ele>
        <time>2012-07-31T12:44:00.000Z</time>
      </trkpt>
      <trkpt lat="48.73658" lon="1.7462">
        <ele>150.39999389648</ele>
        <time>2012-07-31T12:44:09.000Z</time>
      </trkpt>
      <trkpt lat="48.73667" lon="1.7463">
        <ele>151</ele>
        <time>2012-07-31T12:44:18.000Z</time>
      </trkpt>
      <trkpt lat="48.73676" lon="1.74639">
        <ele>151.39999389648</ele>
        <time>2012-07-31T12:44:25.000Z</time>
      </trkpt>
      <trkpt lat="48.73677" lon="1.74639">
        <ele>151.39999389648</ele>
        <time>2012-07-31T12:44:27.000Z</time>
      </trkpt>
      <trkpt lat="48.73682" lon="1.74643">
        <ele>151.60000610352</ele>
        <time>2012-07-31T12:44:38.000Z</time>
      </trkpt>
      <trkpt lat="48.73693" lon="1.74655">
        <ele>152.19999694824</ele>
        <time>2012-07-31T12:44:48.000Z</time>
      </trkpt>
      <trkpt lat="48.737" lon="1.74664">
        <ele>152.60000610352</ele>
        <time>2012-07-31T12:44:55.000Z</time>
      </trkpt>
      <trkpt lat="48.73707" lon="1.74673">
        <ele>153</ele>
        <time>2012-07-31T12:45:04.000Z</time>
      </trkpt>
      <trkpt lat="48.73709" lon="1.74675">
        <ele>153.19999694824</ele>
        <time>2012-07-31T12:45:06.000Z</time>
      </trkpt>
      <trkpt lat="48.73718" lon="1.74684">
        <ele>153.80000305176</ele>
        <time>2012-07-31T12:45:14.000Z</time>
      </trkpt>
      <trkpt lat="48.73725" lon="1.7469">
        <ele>154.19999694824</ele>
        <time>2012-07-31T12:45:20.000Z</time>
      </trkpt>
      <trkpt lat="48.73734" lon="1.747">
        <ele>154.60000610352</ele>
        <time>2012-07-31T12:45:29.000Z</time>
      </trkpt>
      <trkpt lat="48.73742" lon="1.74708">
        <ele>155.19999694824</ele>
        <time>2012-07-31T12:45:37.000Z</time>
      </trkpt>
      <trkpt lat="48.73751" lon="1.74718">
        <ele>155.80000305176</ele>
        <time>2012-07-31T12:45:46.000Z</time>
      </trkpt>
      <trkpt lat="48.73762" lon="1.74731">
        <ele>156.80000305176</ele>
        <time>2012-07-31T12:45:57.000Z</time>
      </trkpt>
      <trkpt lat="48.73774" lon="1.74744">
        <ele>157.60000610352</ele>
        <time>2012-07-31T12:46:08.000Z</time>
      </trkpt>
      <trkpt lat="48.73781" lon="1.7475">
        <ele>158.19999694824</ele>
        <time>2012-07-31T12:46:14.000Z</time>
      </trkpt>
      <trkpt lat="48.7379" lon="1.74761">
        <ele>159.19999694824</ele>
        <time>2012-07-31T12:46:23.000Z</time>
      </trkpt>
      <trkpt lat="48.738" lon="1.7477">
        <ele>160</ele>
        <time>2012-07-31T12:46:32.000Z</time>
      </trkpt>
      <trkpt lat="48.73811" lon="1.74782">
        <ele>161</ele>
        <time>2012-07-31T12:46:42.000Z</time>
      </trkpt>
      <trkpt lat="48.73822" lon="1.74794">
        <ele>161.60000610352</ele>
        <time>2012-07-31T12:46:52.000Z</time>
      </trkpt>
      <trkpt lat="48.73829" lon="1.74803">
        <ele>161.80000305176</ele>
        <time>2012-07-31T12:46:59.000Z</time>
      </trkpt>
      <trkpt lat="48.73837" lon="1.74811">
        <ele>162.39999389648</ele>
        <time>2012-07-31T12:47:07.000Z</time>
      </trkpt>
      <trkpt lat="48.73844" lon="1.74818">
        <ele>163.39999389648</ele>
        <time>2012-07-31T12:47:14.000Z</time>
      </trkpt>
      <trkpt lat="48.7385" lon="1.74823">
        <ele>164.19999694824</ele>
        <time>2012-07-31T12:47:19.000Z</time>
      </trkpt>
      <trkpt lat="48.73854" lon="1.74827">
        <ele>164.80000305176</ele>
        <time>2012-07-31T12:47:23.000Z</time>
      </trkpt>
      <trkpt lat="48.73865" lon="1.74835">
        <ele>166.19999694824</ele>
        <time>2012-07-31T12:47:32.000Z</time>
      </trkpt>
      <trkpt lat="48.73873" lon="1.74845">
        <ele>168</ele>
        <time>2012-07-31T12:47:40.000Z</time>
      </trkpt>
      <trkpt lat="48.73879" lon="1.74852">
        <ele>169</ele>
        <time>2012-07-31T12:47:46.000Z</time>
      </trkpt>
      <trkpt lat="48.73887" lon="1.74862">
        <ele>170.39999389648</ele>
        <time>2012-07-31T12:47:55.000Z</time>
      </trkpt>
      <trkpt lat="48.73894" lon="1.74869">
        <ele>171.19999694824</ele>
        <time>2012-07-31T12:48:00.000Z</time>
      </trkpt>
      <trkpt lat="48.73899" lon="1.74874">
        <ele>171.60000610352</ele>
        <time>2012-07-31T12:48:04.000Z</time>
      </trkpt>
      <trkpt lat="48.73904" lon="1.74879">
        <ele>172.19999694824</ele>
        <time>2012-07-31T12:48:09.000Z</time>
      </trkpt>
      <trkpt lat="48.73912" lon="1.7488">
        <ele>172.60000610352</ele>
        <time>2012-07-31T12:48:16.000Z</time>
      </trkpt>
      <trkpt lat="48.7392" lon="1.74887">
        <ele>173.60000610352</ele>
        <time>2012-07-31T12:48:23.000Z</time>
      </trkpt>
      <trkpt lat="48.73926" lon="1.74895">
        <ele>174.39999389648</ele>
        <time>2012-07-31T12:48:28.000Z</time>
      </trkpt>
      <trkpt lat="48.73934" lon="1.74903">
        <ele>175.60000610352</ele>
        <time>2012-07-31T12:48:34.000Z</time>
      </trkpt>
      <trkpt lat="48.73942" lon="1.74911">
        <ele>176.80000305176</ele>
        <time>2012-07-31T12:48:40.000Z</time>
      </trkpt>
      <trkpt lat="48.73946" lon="1.74915">
        <ele>177.19999694824</ele>
        <time>2012-07-31T12:48:43.000Z</time>
      </trkpt>
      <trkpt lat="48.7395" lon="1.74917">
        <ele>177.80000305176</ele>
        <time>2012-07-31T12:48:47.000Z</time>
      </trkpt>
      <trkpt lat="48.73954" lon="1.74924">
        <ele>178.80000305176</ele>
        <time>2012-07-31T12:48:54.000Z</time>
      </trkpt>
      <trkpt lat="48.73959" lon="1.74929">
        <ele>179.60000610352</ele>
        <time>2012-07-31T12:49:00.000Z</time>
      </trkpt>
      <trkpt lat="48.73961" lon="1.7493">
        <ele>180</ele>
        <time>2012-07-31T12:49:02.000Z</time>
      </trkpt>
      <trkpt lat="48.73968" lon="1.74941">
        <ele>181.39999389648</ele>
        <time>2012-07-31T12:49:10.000Z</time>
      </trkpt>
      <trkpt lat="48.73969" lon="1.74943">
        <ele>181.39999389648</ele>
        <time>2012-07-31T12:49:11.000Z</time>
      </trkpt>
      <trkpt lat="48.73975" lon="1.74947">
        <ele>182.39999389648</ele>
        <time>2012-07-31T12:49:18.000Z</time>
      </trkpt>
      <trkpt lat="48.73978" lon="1.74948">
        <ele>182.80000305176</ele>
        <time>2012-07-31T12:49:21.000Z</time>
      </trkpt>
      <trkpt lat="48.73984" lon="1.74953">
        <ele>183.60000610352</ele>
        <time>2012-07-31T12:49:26.000Z</time>
      </trkpt>
      <trkpt lat="48.73989" lon="1.7496">
        <ele>184.39999389648</ele>
        <time>2012-07-31T12:49:31.000Z</time>
      </trkpt>
      <trkpt lat="48.73994" lon="1.74965">
        <ele>185</ele>
        <time>2012-07-31T12:49:36.000Z</time>
      </trkpt>
      <trkpt lat="48.74002" lon="1.74975">
        <ele>185.80000305176</ele>
        <time>2012-07-31T12:49:45.000Z</time>
      </trkpt>
      <trkpt lat="48.74004" lon="1.74976">
        <ele>185.80000305176</ele>
        <time>2012-07-31T12:49:47.000Z</time>
      </trkpt>
      <trkpt lat="48.74011" lon="1.74983">
        <ele>185.80000305176</ele>
        <time>2012-07-31T12:49:54.000Z</time>
      </trkpt>
      <trkpt lat="48.74016" lon="1.74988">
        <ele>185.80000305176</ele>
        <time>2012-07-31T12:49:59.000Z</time>
      </trkpt>
      <trkpt lat="48.7402" lon="1.74998">
        <ele>186</ele>
        <time>2012-07-31T12:50:06.000Z</time>
      </trkpt>
      <trkpt lat="48.7403" lon="1.75005">
        <ele>186</ele>
        <time>2012-07-31T12:50:15.000Z</time>
      </trkpt>
      <trkpt lat="48.74033" lon="1.75015">
        <ele>186.19999694824</ele>
        <time>2012-07-31T12:50:21.000Z</time>
      </trkpt>
      <trkpt lat="48.74033" lon="1.75017">
        <ele>186.19999694824</ele>
        <time>2012-07-31T12:50:22.000Z</time>
      </trkpt>
      <trkpt lat="48.74037" lon="1.75026">
        <ele>186.39999389648</ele>
        <time>2012-07-31T12:50:29.000Z</time>
      </trkpt>
      <trkpt lat="48.74038" lon="1.75026">
        <ele>186.39999389648</ele>
        <time>2012-07-31T12:50:30.000Z</time>
      </trkpt>
      <trkpt lat="48.74045" lon="1.75025">
        <ele>186.39999389648</ele>
        <time>2012-07-31T12:50:36.000Z</time>
      </trkpt>
      <trkpt lat="48.74051" lon="1.75032">
        <ele>186.39999389648</ele>
        <time>2012-07-31T12:50:42.000Z</time>
      </trkpt>
      <trkpt lat="48.74055" lon="1.75039">
        <ele>186.39999389648</ele>
        <time>2012-07-31T12:50:47.000Z</time>
      </trkpt>
      <trkpt lat="48.74061" lon="1.75049">
        <ele>186.60000610352</ele>
        <time>2012-07-31T12:50:54.000Z</time>
      </trkpt>
      <trkpt lat="48.7407" lon="1.75057">
        <ele>186.60000610352</ele>
        <time>2012-07-31T12:51:02.000Z</time>
      </trkpt>
      <trkpt lat="48.74076" lon="1.75067">
        <ele>186.80000305176</ele>
        <time>2012-07-31T12:51:10.000Z</time>
      </trkpt>
      <trkpt lat="48.74083" lon="1.75079">
        <ele>187</ele>
        <time>2012-07-31T12:51:18.000Z</time>
      </trkpt>
      <trkpt lat="48.7409" lon="1.75088">
        <ele>186.60000610352</ele>
        <time>2012-07-31T12:51:24.000Z</time>
      </trkpt>
      <trkpt lat="48.74096" lon="1.75098">
        <ele>186.19999694824</ele>
        <time>2012-07-31T12:51:31.000Z</time>
      </trkpt>
      <trkpt lat="48.74106" lon="1.75107">
        <ele>185.60000610352</ele>
        <time>2012-07-31T12:51:38.000Z</time>
      </trkpt>
      <trkpt lat="48.74112" lon="1.7512">
        <ele>185</ele>
        <time>2012-07-31T12:51:46.000Z</time>
      </trkpt>
      <trkpt lat="48.74113" lon="1.75124">
        <ele>184.80000305176</ele>
        <time>2012-07-31T12:51:50.000Z</time>
      </trkpt>
      <trkpt lat="48.74125" lon="1.7513">
        <ele>184.19999694824</ele>
        <time>2012-07-31T12:52:28.000Z</time>
      </trkpt>
      <trkpt lat="48.74132" lon="1.7513">
        <ele>183.80000305176</ele>
        <time>2012-07-31T12:52:32.000Z</time>
      </trkpt>
      <trkpt lat="48.74136" lon="1.75128">
        <ele>183.60000610352</ele>
        <time>2012-07-31T12:52:36.000Z</time>
      </trkpt>
      <trkpt lat="48.74137" lon="1.75127">
        <ele>183.60000610352</ele>
        <time>2012-07-31T12:52:38.000Z</time>
      </trkpt>
      <trkpt lat="48.74144" lon="1.75125">
        <ele>183.39999389648</ele>
        <time>2012-07-31T12:52:45.000Z</time>
      </trkpt>
      <trkpt lat="48.74155" lon="1.75124">
        <ele>183</ele>
        <time>2012-07-31T12:52:54.000Z</time>
      </trkpt>
      <trkpt lat="48.74168" lon="1.75123">
        <ele>182.39999389648</ele>
        <time>2012-07-31T12:53:05.000Z</time>
      </trkpt>
      <trkpt lat="48.7418" lon="1.75122">
        <ele>182</ele>
        <time>2012-07-31T12:53:14.000Z</time>
      </trkpt>
      <trkpt lat="48.74193" lon="1.75121">
        <ele>181.60000610352</ele>
        <time>2012-07-31T12:53:24.000Z</time>
      </trkpt>
      <trkpt lat="48.74204" lon="1.7512">
        <ele>181</ele>
        <time>2012-07-31T12:53:33.000Z</time>
      </trkpt>
      <trkpt lat="48.74217" lon="1.75118">
        <ele>180.60000610352</ele>
        <time>2012-07-31T12:53:44.000Z</time>
      </trkpt>
      <trkpt lat="48.7422" lon="1.75119">
        <ele>180.39999389648</ele>
        <time>2012-07-31T12:53:46.000Z</time>
      </trkpt>
      <trkpt lat="48.74229" lon="1.75119">
        <ele>180</ele>
        <time>2012-07-31T12:53:54.000Z</time>
      </trkpt>
      <trkpt lat="48.74237" lon="1.7512">
        <ele>179.80000305176</ele>
        <time>2012-07-31T12:54:02.000Z</time>
      </trkpt>
      <trkpt lat="48.74242" lon="1.75119">
        <ele>179.39999389648</ele>
        <time>2012-07-31T12:54:07.000Z</time>
      </trkpt>
      <trkpt lat="48.74248" lon="1.75116">
        <ele>179.39999389648</ele>
        <time>2012-07-31T12:54:12.000Z</time>
      </trkpt>
      <trkpt lat="48.74259" lon="1.75114">
        <ele>179.19999694824</ele>
        <time>2012-07-31T12:54:21.000Z</time>
      </trkpt>
      <trkpt lat="48.74276" lon="1.75113">
        <ele>178.80000305176</ele>
        <time>2012-07-31T12:54:34.000Z</time>
      </trkpt>
      <trkpt lat="48.7429" lon="1.75112">
        <ele>178.60000610352</ele>
        <time>2012-07-31T12:54:45.000Z</time>
      </trkpt>
      <trkpt lat="48.74306" lon="1.7511">
        <ele>178.39999389648</ele>
        <time>2012-07-31T12:54:57.000Z</time>
      </trkpt>
      <trkpt lat="48.7432" lon="1.75109">
        <ele>178.19999694824</ele>
        <time>2012-07-31T12:55:07.000Z</time>
      </trkpt>
      <trkpt lat="48.74327" lon="1.75111">
        <ele>178</ele>
        <time>2012-07-31T12:55:14.000Z</time>
      </trkpt>
      <trkpt lat="48.74332" lon="1.75113">
        <ele>178</ele>
        <time>2012-07-31T12:55:20.000Z</time>
      </trkpt>
      <trkpt lat="48.74333" lon="1.75113">
        <ele>178</ele>
        <time>2012-07-31T12:55:21.000Z</time>
      </trkpt>
      <trkpt lat="48.74344" lon="1.75111">
        <ele>178</ele>
        <time>2012-07-31T12:55:30.000Z</time>
      </trkpt>
      <trkpt lat="48.74356" lon="1.75107">
        <ele>178.19999694824</ele>
        <time>2012-07-31T12:55:40.000Z</time>
      </trkpt>
      <trkpt lat="48.74361" lon="1.75108">
        <ele>178.19999694824</ele>
        <time>2012-07-31T12:55:44.000Z</time>
      </trkpt>
      <trkpt lat="48.74374" lon="1.75106">
        <ele>178.19999694824</ele>
        <time>2012-07-31T12:55:53.000Z</time>
      </trkpt>
      <trkpt lat="48.74381" lon="1.75105">
        <ele>178.39999389648</ele>
        <time>2012-07-31T12:55:59.000Z</time>
      </trkpt>
      <trkpt lat="48.74383" lon="1.75103">
        <ele>178.39999389648</ele>
        <time>2012-07-31T12:56:02.000Z</time>
      </trkpt>
      <trkpt lat="48.7439" lon="1.751">
        <ele>178.60000610352</ele>
        <time>2012-07-31T12:56:07.000Z</time>
      </trkpt>
      <trkpt lat="48.74397" lon="1.75103">
        <ele>178.60000610352</ele>
        <time>2012-07-31T12:56:15.000Z</time>
      </trkpt>
      <trkpt lat="48.74405" lon="1.75102">
        <ele>178.80000305176</ele>
        <time>2012-07-31T12:56:19.000Z</time>
      </trkpt>
      <trkpt lat="48.74411" lon="1.75104">
        <ele>178.80000305176</ele>
        <time>2012-07-31T12:56:23.000Z</time>
      </trkpt>
      <trkpt lat="48.74423" lon="1.75099">
        <ele>179</ele>
        <time>2012-07-31T12:56:32.000Z</time>
      </trkpt>
      <trkpt lat="48.74433" lon="1.75102">
        <ele>178.80000305176</ele>
        <time>2012-07-31T12:56:40.000Z</time>
      </trkpt>
      <trkpt lat="48.74444" lon="1.75104">
        <ele>178.60000610352</ele>
        <time>2012-07-31T12:56:48.000Z</time>
      </trkpt>
      <trkpt lat="48.74451" lon="1.75109">
        <ele>178.19999694824</ele>
        <time>2012-07-31T12:56:54.000Z</time>
      </trkpt>
      <trkpt lat="48.7446" lon="1.75115">
        <ele>177.80000305176</ele>
        <time>2012-07-31T12:57:00.000Z</time>
      </trkpt>
      <trkpt lat="48.74464" lon="1.75123">
        <ele>177.39999389648</ele>
        <time>2012-07-31T12:57:06.000Z</time>
      </trkpt>
      <trkpt lat="48.74466" lon="1.75124">
        <ele>177.19999694824</ele>
        <time>2012-07-31T12:57:08.000Z</time>
      </trkpt>
      <trkpt lat="48.74472" lon="1.7513">
        <ele>177</ele>
        <time>2012-07-31T12:57:13.000Z</time>
      </trkpt>
      <trkpt lat="48.74482" lon="1.75137">
        <ele>176.39999389648</ele>
        <time>2012-07-31T12:57:21.000Z</time>
      </trkpt>
      <trkpt lat="48.74492" lon="1.75147">
        <ele>176</ele>
        <time>2012-07-31T12:57:29.000Z</time>
      </trkpt>
      <trkpt lat="48.74501" lon="1.75154">
        <ele>175.60000610352</ele>
        <time>2012-07-31T12:57:36.000Z</time>
      </trkpt>
      <trkpt lat="48.74502" lon="1.75156">
        <ele>175.39999389648</ele>
        <time>2012-07-31T12:57:37.000Z</time>
      </trkpt>
      <trkpt lat="48.74505" lon="1.75155">
        <ele>175.19999694824</ele>
        <time>2012-07-31T12:57:42.000Z</time>
      </trkpt>
      <trkpt lat="48.74513" lon="1.75166">
        <ele>173.80000305176</ele>
        <time>2012-07-31T12:57:49.000Z</time>
      </trkpt>
      <trkpt lat="48.74519" lon="1.75173">
        <ele>172.80000305176</ele>
        <time>2012-07-31T12:57:53.000Z</time>
      </trkpt>
      <trkpt lat="48.74527" lon="1.75182">
        <ele>171.60000610352</ele>
        <time>2012-07-31T12:58:02.000Z</time>
      </trkpt>
      <trkpt lat="48.74528" lon="1.75184">
        <ele>171.19999694824</ele>
        <time>2012-07-31T12:58:04.000Z</time>
      </trkpt>
      <trkpt lat="48.74535" lon="1.7519">
        <ele>170.19999694824</ele>
        <time>2012-07-31T12:58:11.000Z</time>
      </trkpt>
      <trkpt lat="48.74535" lon="1.7519">
        <ele>170.19999694824</ele>
        <time>2012-07-31T12:58:13.000Z</time>
      </trkpt>
      <trkpt lat="48.74543" lon="1.75201">
        <ele>168.80000305176</ele>
        <time>2012-07-31T12:58:28.000Z</time>
      </trkpt>
      <trkpt lat="48.74551" lon="1.75208">
        <ele>167.60000610352</ele>
        <time>2012-07-31T12:58:34.000Z</time>
      </trkpt>
      <trkpt lat="48.74557" lon="1.75214">
        <ele>166.60000610352</ele>
        <time>2012-07-31T12:58:41.000Z</time>
      </trkpt>
      <trkpt lat="48.74561" lon="1.75217">
        <ele>166.19999694824</ele>
        <time>2012-07-31T12:58:45.000Z</time>
      </trkpt>
      <trkpt lat="48.74565" lon="1.75219">
        <ele>165.60000610352</ele>
        <time>2012-07-31T12:58:49.000Z</time>
      </trkpt>
      <trkpt lat="48.74572" lon="1.75226">
        <ele>164.39999389648</ele>
        <time>2012-07-31T12:58:56.000Z</time>
      </trkpt>
      <trkpt lat="48.74579" lon="1.75235">
        <ele>163.19999694824</ele>
        <time>2012-07-31T12:59:02.000Z</time>
      </trkpt>
      <trkpt lat="48.74583" lon="1.75238">
        <ele>162.80000305176</ele>
        <time>2012-07-31T12:59:08.000Z</time>
      </trkpt>
      <trkpt lat="48.74584" lon="1.7524">
        <ele>162.60000610352</ele>
        <time>2012-07-31T12:59:10.000Z</time>
      </trkpt>
      <trkpt lat="48.74588" lon="1.75244">
        <ele>162</ele>
        <time>2012-07-31T12:59:14.000Z</time>
      </trkpt>
      <trkpt lat="48.74594" lon="1.75248">
        <ele>161.39999389648</ele>
        <time>2012-07-31T12:59:19.000Z</time>
      </trkpt>
      <trkpt lat="48.74604" lon="1.75255">
        <ele>160.60000610352</ele>
        <time>2012-07-31T12:59:27.000Z</time>
      </trkpt>
      <trkpt lat="48.74612" lon="1.75262">
        <ele>159.80000305176</ele>
        <time>2012-07-31T12:59:34.000Z</time>
      </trkpt>
      <trkpt lat="48.74614" lon="1.75265">
        <ele>159.60000610352</ele>
        <time>2012-07-31T12:59:39.000Z</time>
      </trkpt>
      <trkpt lat="48.74614" lon="1.75265">
        <ele>159.60000610352</ele>
        <time>2012-07-31T12:59:41.000Z</time>
      </trkpt>
      <trkpt lat="48.7462" lon="1.75271">
        <ele>159</ele>
        <time>2012-07-31T12:59:50.000Z</time>
      </trkpt>
      <trkpt lat="48.74631" lon="1.75278">
        <ele>158.19999694824</ele>
        <time>2012-07-31T12:59:57.000Z</time>
      </trkpt>
      <trkpt lat="48.74639" lon="1.75285">
        <ele>157.60000610352</ele>
        <time>2012-07-31T13:00:04.000Z</time>
      </trkpt>
      <trkpt lat="48.74644" lon="1.75291">
        <ele>157.19999694824</ele>
        <time>2012-07-31T13:00:09.000Z</time>
      </trkpt>
      <trkpt lat="48.7465" lon="1.75298">
        <ele>156.60000610352</ele>
        <time>2012-07-31T13:00:16.000Z</time>
      </trkpt>
      <trkpt lat="48.74657" lon="1.75303">
        <ele>156.19999694824</ele>
        <time>2012-07-31T13:00:23.000Z</time>
      </trkpt>
      <trkpt lat="48.74658" lon="1.75304">
        <ele>156.19999694824</ele>
        <time>2012-07-31T13:00:24.000Z</time>
      </trkpt>
      <trkpt lat="48.74665" lon="1.75312">
        <ele>155.60000610352</ele>
        <time>2012-07-31T13:00:32.000Z</time>
      </trkpt>
      <trkpt lat="48.7467" lon="1.75316">
        <ele>155.19999694824</ele>
        <time>2012-07-31T13:00:36.000Z</time>
      </trkpt>
      <trkpt lat="48.74676" lon="1.7532">
        <ele>155</ele>
        <time>2012-07-31T13:00:41.000Z</time>
      </trkpt>
      <trkpt lat="48.7468" lon="1.75328">
        <ele>154.60000610352</ele>
        <time>2012-07-31T13:00:47.000Z</time>
      </trkpt>
      <trkpt lat="48.74681" lon="1.75331">
        <ele>154.60000610352</ele>
        <time>2012-07-31T13:00:49.000Z</time>
      </trkpt>
      <trkpt lat="48.74684" lon="1.75334">
        <ele>154.39999389648</ele>
        <time>2012-07-31T13:00:53.000Z</time>
      </trkpt>
      <trkpt lat="48.74692" lon="1.75338">
        <ele>154</ele>
        <time>2012-07-31T13:00:59.000Z</time>
      </trkpt>
      <trkpt lat="48.74694" lon="1.7534">
        <ele>154</ele>
        <time>2012-07-31T13:01:01.000Z</time>
      </trkpt>
      <trkpt lat="48.74701" lon="1.75346">
        <ele>153.80000305176</ele>
        <time>2012-07-31T13:01:09.000Z</time>
      </trkpt>
      <trkpt lat="48.74712" lon="1.75358">
        <ele>153.39999389648</ele>
        <time>2012-07-31T13:01:17.000Z</time>
      </trkpt>
      <trkpt lat="48.74717" lon="1.75366">
        <ele>153.19999694824</ele>
        <time>2012-07-31T13:01:23.000Z</time>
      </trkpt>
      <trkpt lat="48.74722" lon="1.75371">
        <ele>153.19999694824</ele>
        <time>2012-07-31T13:01:28.000Z</time>
      </trkpt>
      <trkpt lat="48.74732" lon="1.75381">
        <ele>153</ele>
        <time>2012-07-31T13:01:37.000Z</time>
      </trkpt>
      <trkpt lat="48.74734" lon="1.75383">
        <ele>153</ele>
        <time>2012-07-31T13:01:39.000Z</time>
      </trkpt>
      <trkpt lat="48.74743" lon="1.75391">
        <ele>152.80000305176</ele>
        <time>2012-07-31T13:01:46.000Z</time>
      </trkpt>
      <trkpt lat="48.74748" lon="1.75395">
        <ele>152.80000305176</ele>
        <time>2012-07-31T13:01:49.000Z</time>
      </trkpt>
      <trkpt lat="48.74759" lon="1.75406">
        <ele>153</ele>
        <time>2012-07-31T13:01:56.000Z</time>
      </trkpt>
      <trkpt lat="48.7476" lon="1.75408">
        <ele>153.19999694824</ele>
        <time>2012-07-31T13:01:57.000Z</time>
      </trkpt>
      <trkpt lat="48.74769" lon="1.75416">
        <ele>153.39999389648</ele>
        <time>2012-07-31T13:02:04.000Z</time>
      </trkpt>
      <trkpt lat="48.74774" lon="1.75417">
        <ele>153.60000610352</ele>
        <time>2012-07-31T13:02:08.000Z</time>
      </trkpt>
      <trkpt lat="48.7478" lon="1.75421">
        <ele>153.60000610352</ele>
        <time>2012-07-31T13:02:12.000Z</time>
      </trkpt>
      <trkpt lat="48.74792" lon="1.75434">
        <ele>154</ele>
        <time>2012-07-31T13:02:22.000Z</time>
      </trkpt>
      <trkpt lat="48.74794" lon="1.75438">
        <ele>154</ele>
        <time>2012-07-31T13:02:25.000Z</time>
      </trkpt>
      <trkpt lat="48.74803" lon="1.75451">
        <ele>154.60000610352</ele>
        <time>2012-07-31T13:02:33.000Z</time>
      </trkpt>
      <trkpt lat="48.74807" lon="1.75458">
        <ele>154.80000305176</ele>
        <time>2012-07-31T13:02:40.000Z</time>
      </trkpt>
      <trkpt lat="48.74808" lon="1.75459">
        <ele>154.80000305176</ele>
        <time>2012-07-31T13:02:41.000Z</time>
      </trkpt>
      <trkpt lat="48.74812" lon="1.75471">
        <ele>155.19999694824</ele>
        <time>2012-07-31T13:02:47.000Z</time>
      </trkpt>
      <trkpt lat="48.74815" lon="1.75477">
        <ele>155.39999389648</ele>
        <time>2012-07-31T13:02:50.000Z</time>
      </trkpt>
      <trkpt lat="48.74817" lon="1.75483">
        <ele>155.60000610352</ele>
        <time>2012-07-31T13:02:53.000Z</time>
      </trkpt>
      <trkpt lat="48.74818" lon="1.7549">
        <ele>155.80000305176</ele>
        <time>2012-07-31T13:02:56.000Z</time>
      </trkpt>
      <trkpt lat="48.7482" lon="1.75497">
        <ele>156</ele>
        <time>2012-07-31T13:03:00.000Z</time>
      </trkpt>
      <trkpt lat="48.74824" lon="1.75504">
        <ele>156.80000305176</ele>
        <time>2012-07-31T13:03:07.000Z</time>
      </trkpt>
      <trkpt lat="48.74829" lon="1.75512">
        <ele>158</ele>
        <time>2012-07-31T13:03:13.000Z</time>
      </trkpt>
      <trkpt lat="48.74834" lon="1.75522">
        <ele>159.80000305176</ele>
        <time>2012-07-31T13:03:19.000Z</time>
      </trkpt>
      <trkpt lat="48.74839" lon="1.75529">
        <ele>162</ele>
        <time>2012-07-31T13:03:25.000Z</time>
      </trkpt>
      <trkpt lat="48.74842" lon="1.75533">
        <ele>163</ele>
        <time>2012-07-31T13:03:28.000Z</time>
      </trkpt>
      <trkpt lat="48.74852" lon="1.75536">
        <ele>165.60000610352</ele>
        <time>2012-07-31T13:03:36.000Z</time>
      </trkpt>
      <trkpt lat="48.7486" lon="1.75532">
        <ele>167.19999694824</ele>
        <time>2012-07-31T13:03:44.000Z</time>
      </trkpt>
      <trkpt lat="48.74866" lon="1.75535">
        <ele>168.60000610352</ele>
        <time>2012-07-31T13:03:50.000Z</time>
      </trkpt>
      <trkpt lat="48.74871" lon="1.75536">
        <ele>170.19999694824</ele>
        <time>2012-07-31T13:03:56.000Z</time>
      </trkpt>
      <trkpt lat="48.74878" lon="1.75537">
        <ele>171.80000305176</ele>
        <time>2012-07-31T13:04:03.000Z</time>
      </trkpt>
      <trkpt lat="48.74881" lon="1.75541">
        <ele>173</ele>
        <time>2012-07-31T13:04:08.000Z</time>
      </trkpt>
      <trkpt lat="48.74885" lon="1.75548">
        <ele>174.39999389648</ele>
        <time>2012-07-31T13:04:13.000Z</time>
      </trkpt>
      <trkpt lat="48.7489" lon="1.7556">
        <ele>176.60000610352</ele>
        <time>2012-07-31T13:04:21.000Z</time>
      </trkpt>
      <trkpt lat="48.7489" lon="1.75565">
        <ele>177</ele>
        <time>2012-07-31T13:04:27.000Z</time>
      </trkpt>
      <trkpt lat="48.74892" lon="1.75576">
        <ele>178.39999389648</ele>
        <time>2012-07-31T13:04:33.000Z</time>
      </trkpt>
      <trkpt lat="48.7489" lon="1.75588">
        <ele>178.60000610352</ele>
        <time>2012-07-31T13:04:40.000Z</time>
      </trkpt>
      <trkpt lat="48.7489" lon="1.75591">
        <ele>178.60000610352</ele>
        <time>2012-07-31T13:04:42.000Z</time>
      </trkpt>
      <trkpt lat="48.74891" lon="1.75599">
        <ele>179</ele>
        <time>2012-07-31T13:04:47.000Z</time>
      </trkpt>
      <trkpt lat="48.74894" lon="1.75603">
        <ele>179.60000610352</ele>
        <time>2012-07-31T13:04:52.000Z</time>
      </trkpt>
      <trkpt lat="48.74896" lon="1.75598">
        <ele>180</ele>
        <time>2012-07-31T13:04:56.000Z</time>
      </trkpt>
      <trkpt lat="48.74903" lon="1.75589">
        <ele>181.19999694824</ele>
        <time>2012-07-31T13:05:02.000Z</time>
      </trkpt>
      <trkpt lat="48.74904" lon="1.75588">
        <ele>181.60000610352</ele>
        <time>2012-07-31T13:05:03.000Z</time>
      </trkpt>
      <trkpt lat="48.74912" lon="1.75583">
        <ele>183</ele>
        <time>2012-07-31T13:05:11.000Z</time>
      </trkpt>
      <trkpt lat="48.74919" lon="1.7558">
        <ele>184</ele>
        <time>2012-07-31T13:05:18.000Z</time>
      </trkpt>
      <trkpt lat="48.74925" lon="1.75583">
        <ele>184.60000610352</ele>
        <time>2012-07-31T13:05:24.000Z</time>
      </trkpt>
      <trkpt lat="48.74928" lon="1.75587">
        <ele>184.80000305176</ele>
        <time>2012-07-31T13:05:28.000Z</time>
      </trkpt>
      <trkpt lat="48.74937" lon="1.75598">
        <ele>185.80000305176</ele>
        <time>2012-07-31T13:05:36.000Z</time>
      </trkpt>
      <trkpt lat="48.74947" lon="1.75611">
        <ele>186.80000305176</ele>
        <time>2012-07-31T13:05:44.000Z</time>
      </trkpt>
      <trkpt lat="48.74952" lon="1.75615">
        <ele>187.19999694824</ele>
        <time>2012-07-31T13:05:48.000Z</time>
      </trkpt>
      <trkpt lat="48.7496" lon="1.75626">
        <ele>187.80000305176</ele>
        <time>2012-07-31T13:05:54.000Z</time>
      </trkpt>
      <trkpt lat="48.74968" lon="1.75636">
        <ele>188.60000610352</ele>
        <time>2012-07-31T13:06:01.000Z</time>
      </trkpt>
      <trkpt lat="48.74973" lon="1.75641">
        <ele>189</ele>
        <time>2012-07-31T13:06:09.000Z</time>
      </trkpt>
      <trkpt lat="48.74977" lon="1.75643">
        <ele>189.19999694824</ele>
        <time>2012-07-31T13:06:14.000Z</time>
      </trkpt>
      <trkpt lat="48.74982" lon="1.75653">
        <ele>189.80000305176</ele>
        <time>2012-07-31T13:06:20.000Z</time>
      </trkpt>
      <trkpt lat="48.74986" lon="1.75659">
        <ele>190</ele>
        <time>2012-07-31T13:06:27.000Z</time>
      </trkpt>
      <trkpt lat="48.7499" lon="1.75664">
        <ele>190.39999389648</ele>
        <time>2012-07-31T13:06:34.000Z</time>
      </trkpt>
      <trkpt lat="48.74996" lon="1.75673">
        <ele>190.60000610352</ele>
        <time>2012-07-31T13:06:40.000Z</time>
      </trkpt>
      <trkpt lat="48.75001" lon="1.75686">
        <ele>190.80000305176</ele>
        <time>2012-07-31T13:06:46.000Z</time>
      </trkpt>
      <trkpt lat="48.75012" lon="1.75701">
        <ele>190.80000305176</ele>
        <time>2012-07-31T13:06:53.000Z</time>
      </trkpt>
      <trkpt lat="48.75014" lon="1.75708">
        <ele>190.60000610352</ele>
        <time>2012-07-31T13:06:59.000Z</time>
      </trkpt>
      <trkpt lat="48.75016" lon="1.75714">
        <ele>190.60000610352</ele>
        <time>2012-07-31T13:07:06.000Z</time>
      </trkpt>
      <trkpt lat="48.75016" lon="1.75714">
        <ele>190.60000610352</ele>
        <time>2012-07-31T13:07:07.000Z</time>
      </trkpt>
      <trkpt lat="48.75024" lon="1.75725">
        <ele>190.80000305176</ele>
        <time>2012-07-31T13:07:18.000Z</time>
      </trkpt>
      <trkpt lat="48.7503" lon="1.75736">
        <ele>190.80000305176</ele>
        <time>2012-07-31T13:07:24.000Z</time>
      </trkpt>
      <trkpt lat="48.75032" lon="1.7574">
        <ele>190.80000305176</ele>
        <time>2012-07-31T13:07:27.000Z</time>
      </trkpt>
      <trkpt lat="48.75037" lon="1.75746">
        <ele>190.80000305176</ele>
        <time>2012-07-31T13:07:33.000Z</time>
      </trkpt>
      <trkpt lat="48.75038" lon="1.75748">
        <ele>191</ele>
        <time>2012-07-31T13:07:34.000Z</time>
      </trkpt>
      <trkpt lat="48.75041" lon="1.75751">
        <ele>191</ele>
        <time>2012-07-31T13:07:36.000Z</time>
      </trkpt>
      <trkpt lat="48.75046" lon="1.75763">
        <ele>191</ele>
        <time>2012-07-31T13:07:44.000Z</time>
      </trkpt>
      <trkpt lat="48.7505" lon="1.75769">
        <ele>191.19999694824</ele>
        <time>2012-07-31T13:07:49.000Z</time>
      </trkpt>
      <trkpt lat="48.75059" lon="1.75774">
        <ele>191.39999389648</ele>
        <time>2012-07-31T13:07:58.000Z</time>
      </trkpt>
      <trkpt lat="48.7507" lon="1.75778">
        <ele>191.60000610352</ele>
        <time>2012-07-31T13:08:07.000Z</time>
      </trkpt>
      <trkpt lat="48.75079" lon="1.75785">
        <ele>191.80000305176</ele>
        <time>2012-07-31T13:08:12.000Z</time>
      </trkpt>
      <trkpt lat="48.75084" lon="1.7579">
        <ele>192</ele>
        <time>2012-07-31T13:08:16.000Z</time>
      </trkpt>
      <trkpt lat="48.75093" lon="1.75795">
        <ele>192</ele>
        <time>2012-07-31T13:08:23.000Z</time>
      </trkpt>
      <trkpt lat="48.75096" lon="1.75799">
        <ele>192</ele>
        <time>2012-07-31T13:08:27.000Z</time>
      </trkpt>
      <trkpt lat="48.751" lon="1.75807">
        <ele>192</ele>
        <time>2012-07-31T13:08:33.000Z</time>
      </trkpt>
      <trkpt lat="48.75103" lon="1.75809">
        <ele>192</ele>
        <time>2012-07-31T13:08:36.000Z</time>
      </trkpt>
      <trkpt lat="48.75105" lon="1.75809">
        <ele>192</ele>
        <time>2012-07-31T13:08:38.000Z</time>
      </trkpt>
      <trkpt lat="48.75112" lon="1.75813">
        <ele>192</ele>
        <time>2012-07-31T13:08:44.000Z</time>
      </trkpt>
      <trkpt lat="48.75122" lon="1.75818">
        <ele>192</ele>
        <time>2012-07-31T13:08:51.000Z</time>
      </trkpt>
      <trkpt lat="48.75127" lon="1.75824">
        <ele>192</ele>
        <time>2012-07-31T13:08:54.000Z</time>
      </trkpt>
      <trkpt lat="48.7514" lon="1.75839">
        <ele>192</ele>
        <time>2012-07-31T13:09:03.000Z</time>
      </trkpt>
      <trkpt lat="48.75144" lon="1.75842">
        <ele>192.19999694824</ele>
        <time>2012-07-31T13:09:09.000Z</time>
      </trkpt>
      <trkpt lat="48.7515" lon="1.75845">
        <ele>192.19999694824</ele>
        <time>2012-07-31T13:09:16.000Z</time>
      </trkpt>
      <trkpt lat="48.75156" lon="1.75849">
        <ele>192.19999694824</ele>
        <time>2012-07-31T13:09:22.000Z</time>
      </trkpt>
      <trkpt lat="48.75163" lon="1.75855">
        <ele>192.19999694824</ele>
        <time>2012-07-31T13:09:28.000Z</time>
      </trkpt>
      <trkpt lat="48.75171" lon="1.75859">
        <ele>192.39999389648</ele>
        <time>2012-07-31T13:09:34.000Z</time>
      </trkpt>
      <trkpt lat="48.75177" lon="1.75864">
        <ele>192.60000610352</ele>
        <time>2012-07-31T13:09:38.000Z</time>
      </trkpt>
      <trkpt lat="48.75185" lon="1.7587">
        <ele>192.60000610352</ele>
        <time>2012-07-31T13:09:44.000Z</time>
      </trkpt>
      <trkpt lat="48.75193" lon="1.75878">
        <ele>192.80000305176</ele>
        <time>2012-07-31T13:09:53.000Z</time>
      </trkpt>
      <trkpt lat="48.75197" lon="1.75881">
        <ele>192.80000305176</ele>
        <time>2012-07-31T13:09:57.000Z</time>
      </trkpt>
      <trkpt lat="48.75206" lon="1.75889">
        <ele>193</ele>
        <time>2012-07-31T13:10:04.000Z</time>
      </trkpt>
      <trkpt lat="48.75209" lon="1.7589">
        <ele>193</ele>
        <time>2012-07-31T13:10:06.000Z</time>
      </trkpt>
      <trkpt lat="48.75221" lon="1.75899">
        <ele>193</ele>
        <time>2012-07-31T13:10:13.000Z</time>
      </trkpt>
      <trkpt lat="48.75222" lon="1.759">
        <ele>193</ele>
        <time>2012-07-31T13:10:15.000Z</time>
      </trkpt>
      <trkpt lat="48.75223" lon="1.759">
        <ele>193</ele>
        <time>2012-07-31T13:10:18.000Z</time>
      </trkpt>
      <trkpt lat="48.75226" lon="1.75901">
        <ele>193</ele>
        <time>2012-07-31T13:10:19.000Z</time>
      </trkpt>
      <trkpt lat="48.75227" lon="1.75902">
        <ele>193</ele>
        <time>2012-07-31T13:10:20.000Z</time>
      </trkpt>
      <trkpt lat="48.75228" lon="1.75902">
        <ele>193</ele>
        <time>2012-07-31T13:10:23.000Z</time>
      </trkpt>
      <trkpt lat="48.75229" lon="1.75901">
        <ele>193</ele>
        <time>2012-07-31T13:10:26.000Z</time>
      </trkpt>
      <trkpt lat="48.75237" lon="1.75908">
        <ele>193</ele>
        <time>2012-07-31T13:10:43.000Z</time>
      </trkpt>
      <trkpt lat="48.75238" lon="1.75909">
        <ele>193</ele>
        <time>2012-07-31T13:10:44.000Z</time>
      </trkpt>
      <trkpt lat="48.75242" lon="1.75909">
        <ele>193</ele>
        <time>2012-07-31T13:10:47.000Z</time>
      </trkpt>
      <trkpt lat="48.75252" lon="1.75916">
        <ele>193</ele>
        <time>2012-07-31T13:10:55.000Z</time>
      </trkpt>
      <trkpt lat="48.75262" lon="1.7592">
        <ele>193.19999694824</ele>
        <time>2012-07-31T13:11:03.000Z</time>
      </trkpt>
      <trkpt lat="48.75267" lon="1.75922">
        <ele>193.39999389648</ele>
        <time>2012-07-31T13:11:07.000Z</time>
      </trkpt>
      <trkpt lat="48.75272" lon="1.75928">
        <ele>193.60000610352</ele>
        <time>2012-07-31T13:11:12.000Z</time>
      </trkpt>
      <trkpt lat="48.75278" lon="1.75935">
        <ele>193.80000305176</ele>
        <time>2012-07-31T13:11:17.000Z</time>
      </trkpt>
      <trkpt lat="48.75289" lon="1.75941">
        <ele>194</ele>
        <time>2012-07-31T13:11:25.000Z</time>
      </trkpt>
      <trkpt lat="48.75295" lon="1.75945">
        <ele>194.19999694824</ele>
        <time>2012-07-31T13:11:31.000Z</time>
      </trkpt>
      <trkpt lat="48.75308" lon="1.75953">
        <ele>194.60000610352</ele>
        <time>2012-07-31T13:11:38.000Z</time>
      </trkpt>
      <trkpt lat="48.75315" lon="1.7596">
        <ele>194.80000305176</ele>
        <time>2012-07-31T13:11:44.000Z</time>
      </trkpt>
      <trkpt lat="48.75322" lon="1.75964">
        <ele>195</ele>
        <time>2012-07-31T13:11:50.000Z</time>
      </trkpt>
      <trkpt lat="48.75329" lon="1.75968">
        <ele>195.19999694824</ele>
        <time>2012-07-31T13:11:55.000Z</time>
      </trkpt>
      <trkpt lat="48.75336" lon="1.75973">
        <ele>195.39999389648</ele>
        <time>2012-07-31T13:12:01.000Z</time>
      </trkpt>
      <trkpt lat="48.75346" lon="1.7598">
        <ele>195.39999389648</ele>
        <time>2012-07-31T13:12:08.000Z</time>
      </trkpt>
      <trkpt lat="48.75352" lon="1.75984">
        <ele>195.39999389648</ele>
        <time>2012-07-31T13:12:12.000Z</time>
      </trkpt>
      <trkpt lat="48.75361" lon="1.75992">
        <ele>195.60000610352</ele>
        <time>2012-07-31T13:12:18.000Z</time>
      </trkpt>
      <trkpt lat="48.75365" lon="1.75996">
        <ele>195.60000610352</ele>
        <time>2012-07-31T13:12:23.000Z</time>
      </trkpt>
      <trkpt lat="48.75371" lon="1.76001">
        <ele>195.60000610352</ele>
        <time>2012-07-31T13:12:28.000Z</time>
      </trkpt>
      <trkpt lat="48.75378" lon="1.76006">
        <ele>195.39999389648</ele>
        <time>2012-07-31T13:12:33.000Z</time>
      </trkpt>
      <trkpt lat="48.75388" lon="1.76014">
        <ele>195.19999694824</ele>
        <time>2012-07-31T13:12:40.000Z</time>
      </trkpt>
      <trkpt lat="48.75395" lon="1.76022">
        <ele>195.19999694824</ele>
        <time>2012-07-31T13:12:46.000Z</time>
      </trkpt>
      <trkpt lat="48.75398" lon="1.76024">
        <ele>195.19999694824</ele>
        <time>2012-07-31T13:12:49.000Z</time>
      </trkpt>
      <trkpt lat="48.75403" lon="1.76017">
        <ele>195.19999694824</ele>
        <time>2012-07-31T13:12:56.000Z</time>
      </trkpt>
      <trkpt lat="48.75405" lon="1.76011">
        <ele>195.19999694824</ele>
        <time>2012-07-31T13:12:59.000Z</time>
      </trkpt>
      <trkpt lat="48.75407" lon="1.75991">
        <ele>195</ele>
        <time>2012-07-31T13:13:07.000Z</time>
      </trkpt>
      <trkpt lat="48.7541" lon="1.75977">
        <ele>194.80000305176</ele>
        <time>2012-07-31T13:13:13.000Z</time>
      </trkpt>
      <trkpt lat="48.75412" lon="1.75974">
        <ele>194.80000305176</ele>
        <time>2012-07-31T13:13:17.000Z</time>
      </trkpt>
      <trkpt lat="48.75415" lon="1.75969">
        <ele>194.60000610352</ele>
        <time>2012-07-31T13:13:21.000Z</time>
      </trkpt>
      <trkpt lat="48.75416" lon="1.75958">
        <ele>194.60000610352</ele>
        <time>2012-07-31T13:13:26.000Z</time>
      </trkpt>
      <trkpt lat="48.75418" lon="1.7595">
        <ele>194.39999389648</ele>
        <time>2012-07-31T13:13:32.000Z</time>
      </trkpt>
      <trkpt lat="48.75418" lon="1.75949">
        <ele>194.39999389648</ele>
        <time>2012-07-31T13:13:33.000Z</time>
      </trkpt>
      <trkpt lat="48.75421" lon="1.75942">
        <ele>194.19999694824</ele>
        <time>2012-07-31T13:13:39.000Z</time>
      </trkpt>
      <trkpt lat="48.75423" lon="1.75938">
        <ele>194.19999694824</ele>
        <time>2012-07-31T13:13:40.000Z</time>
      </trkpt>
      <trkpt lat="48.75425" lon="1.75933">
        <ele>194.19999694824</ele>
        <time>2012-07-31T13:13:43.000Z</time>
      </trkpt>
      <trkpt lat="48.75425" lon="1.75929">
        <ele>194.19999694824</ele>
        <time>2012-07-31T13:13:45.000Z</time>
      </trkpt>
      <trkpt lat="48.75428" lon="1.75917">
        <ele>194</ele>
        <time>2012-07-31T13:13:51.000Z</time>
      </trkpt>
      <trkpt lat="48.75427" lon="1.75903">
        <ele>194</ele>
        <time>2012-07-31T13:13:57.000Z</time>
      </trkpt>
      <trkpt lat="48.75432" lon="1.7589">
        <ele>194</ele>
        <time>2012-07-31T13:14:02.000Z</time>
      </trkpt>
      <trkpt lat="48.75433" lon="1.75886">
        <ele>194</ele>
        <time>2012-07-31T13:14:04.000Z</time>
      </trkpt>
      <trkpt lat="48.75435" lon="1.75883">
        <ele>194</ele>
        <time>2012-07-31T13:14:07.000Z</time>
      </trkpt>
      <trkpt lat="48.7544" lon="1.75869">
        <ele>194.19999694824</ele>
        <time>2012-07-31T13:14:14.000Z</time>
      </trkpt>
      <trkpt lat="48.75443" lon="1.75861">
        <ele>194.19999694824</ele>
        <time>2012-07-31T13:14:19.000Z</time>
      </trkpt>
      <trkpt lat="48.7545" lon="1.75846">
        <ele>194.39999389648</ele>
        <time>2012-07-31T13:14:28.000Z</time>
      </trkpt>
      <trkpt lat="48.75452" lon="1.75843">
        <ele>194.39999389648</ele>
        <time>2012-07-31T13:14:30.000Z</time>
      </trkpt>
      <trkpt lat="48.75458" lon="1.75829">
        <ele>194.60000610352</ele>
        <time>2012-07-31T13:14:38.000Z</time>
      </trkpt>
      <trkpt lat="48.75461" lon="1.75823">
        <ele>194.60000610352</ele>
        <time>2012-07-31T13:14:42.000Z</time>
      </trkpt>
      <trkpt lat="48.75466" lon="1.75812">
        <ele>194.60000610352</ele>
        <time>2012-07-31T13:14:48.000Z</time>
      </trkpt>
      <trkpt lat="48.75469" lon="1.758">
        <ele>194.80000305176</ele>
        <time>2012-07-31T13:14:53.000Z</time>
      </trkpt>
      <trkpt lat="48.75472" lon="1.75786">
        <ele>194.80000305176</ele>
        <time>2012-07-31T13:15:01.000Z</time>
      </trkpt>
      <trkpt lat="48.75475" lon="1.75775">
        <ele>195</ele>
        <time>2012-07-31T13:15:07.000Z</time>
      </trkpt>
      <trkpt lat="48.75479" lon="1.75764">
        <ele>195</ele>
        <time>2012-07-31T13:15:13.000Z</time>
      </trkpt>
      <trkpt lat="48.75482" lon="1.75753">
        <ele>195</ele>
        <time>2012-07-31T13:15:19.000Z</time>
      </trkpt>
      <trkpt lat="48.75485" lon="1.75738">
        <ele>195</ele>
        <time>2012-07-31T13:15:25.000Z</time>
      </trkpt>
      <trkpt lat="48.75488" lon="1.75728">
        <ele>195</ele>
        <time>2012-07-31T13:15:30.000Z</time>
      </trkpt>
      <trkpt lat="48.7549" lon="1.7572">
        <ele>195</ele>
        <time>2012-07-31T13:15:35.000Z</time>
      </trkpt>
      <trkpt lat="48.75495" lon="1.75711">
        <ele>195</ele>
        <time>2012-07-31T13:15:41.000Z</time>
      </trkpt>
      <trkpt lat="48.75499" lon="1.75702">
        <ele>195</ele>
        <time>2012-07-31T13:15:47.000Z</time>
      </trkpt>
      <trkpt lat="48.75502" lon="1.75692">
        <ele>195</ele>
        <time>2012-07-31T13:15:52.000Z</time>
      </trkpt>
      <trkpt lat="48.75504" lon="1.75678">
        <ele>195</ele>
        <time>2012-07-31T13:15:59.000Z</time>
      </trkpt>
      <trkpt lat="48.7551" lon="1.75666">
        <ele>195</ele>
        <time>2012-07-31T13:16:07.000Z</time>
      </trkpt>
      <trkpt lat="48.75512" lon="1.75661">
        <ele>195</ele>
        <time>2012-07-31T13:16:10.000Z</time>
      </trkpt>
      <trkpt lat="48.75515" lon="1.75645">
        <ele>194.60000610352</ele>
        <time>2012-07-31T13:16:17.000Z</time>
      </trkpt>
      <trkpt lat="48.75518" lon="1.7563">
        <ele>194.39999389648</ele>
        <time>2012-07-31T13:16:24.000Z</time>
      </trkpt>
      <trkpt lat="48.75521" lon="1.75621">
        <ele>194.39999389648</ele>
        <time>2012-07-31T13:16:29.000Z</time>
      </trkpt>
      <trkpt lat="48.75525" lon="1.75612">
        <ele>194.19999694824</ele>
        <time>2012-07-31T13:16:35.000Z</time>
      </trkpt>
      <trkpt lat="48.75526" lon="1.75607">
        <ele>194</ele>
        <time>2012-07-31T13:16:38.000Z</time>
      </trkpt>
      <trkpt lat="48.75529" lon="1.75598">
        <ele>193.80000305176</ele>
        <time>2012-07-31T13:16:43.000Z</time>
      </trkpt>
      <trkpt lat="48.75533" lon="1.75593">
        <ele>193.80000305176</ele>
        <time>2012-07-31T13:16:48.000Z</time>
      </trkpt>
      <trkpt lat="48.75537" lon="1.75581">
        <ele>193.39999389648</ele>
        <time>2012-07-31T13:16:54.000Z</time>
      </trkpt>
      <trkpt lat="48.75541" lon="1.75564">
        <ele>192.80000305176</ele>
        <time>2012-07-31T13:17:02.000Z</time>
      </trkpt>
      <trkpt lat="48.75541" lon="1.75558">
        <ele>192.60000610352</ele>
        <time>2012-07-31T13:17:05.000Z</time>
      </trkpt>
      <trkpt lat="48.75542" lon="1.75554">
        <ele>192.39999389648</ele>
        <time>2012-07-31T13:17:07.000Z</time>
      </trkpt>
      <trkpt lat="48.75546" lon="1.75543">
        <ele>192</ele>
        <time>2012-07-31T13:17:14.000Z</time>
      </trkpt>
      <trkpt lat="48.75548" lon="1.75533">
        <ele>191.60000610352</ele>
        <time>2012-07-31T13:17:19.000Z</time>
      </trkpt>
      <trkpt lat="48.75549" lon="1.75528">
        <ele>191.39999389648</ele>
        <time>2012-07-31T13:17:22.000Z</time>
      </trkpt>
      <trkpt lat="48.75547" lon="1.75522">
        <ele>191.19999694824</ele>
        <time>2012-07-31T13:17:28.000Z</time>
      </trkpt>
      <trkpt lat="48.75546" lon="1.75522">
        <ele>191.19999694824</ele>
        <time>2012-07-31T13:17:29.000Z</time>
      </trkpt>
      <trkpt lat="48.75537" lon="1.75518">
        <ele>191.19999694824</ele>
        <time>2012-07-31T13:17:35.000Z</time>
      </trkpt>
      <trkpt lat="48.75536" lon="1.75518">
        <ele>191.39999389648</ele>
        <time>2012-07-31T13:17:36.000Z</time>
      </trkpt>
      <trkpt lat="48.75524" lon="1.75514">
        <ele>191.60000610352</ele>
        <time>2012-07-31T13:17:45.000Z</time>
      </trkpt>
      <trkpt lat="48.75516" lon="1.75511">
        <ele>191.80000305176</ele>
        <time>2012-07-31T13:17:51.000Z</time>
      </trkpt>
      <trkpt lat="48.75509" lon="1.75508">
        <ele>192</ele>
        <time>2012-07-31T13:17:57.000Z</time>
      </trkpt>
      <trkpt lat="48.75508" lon="1.75508">
        <ele>192</ele>
        <time>2012-07-31T13:17:58.000Z</time>
      </trkpt>
      <trkpt lat="48.75499" lon="1.75505">
        <ele>192.19999694824</ele>
        <time>2012-07-31T13:18:04.000Z</time>
      </trkpt>
      <trkpt lat="48.75492" lon="1.75502">
        <ele>192.19999694824</ele>
        <time>2012-07-31T13:18:10.000Z</time>
      </trkpt>
      <trkpt lat="48.75486" lon="1.75499">
        <ele>192.39999389648</ele>
        <time>2012-07-31T13:18:15.000Z</time>
      </trkpt>
      <trkpt lat="48.75474" lon="1.75498">
        <ele>192.60000610352</ele>
        <time>2012-07-31T13:18:22.000Z</time>
      </trkpt>
      <trkpt lat="48.75467" lon="1.75494">
        <ele>192.80000305176</ele>
        <time>2012-07-31T13:18:28.000Z</time>
      </trkpt>
      <trkpt lat="48.75455" lon="1.75495">
        <ele>193</ele>
        <time>2012-07-31T13:18:34.000Z</time>
      </trkpt>
      <trkpt lat="48.75448" lon="1.75489">
        <ele>193</ele>
        <time>2012-07-31T13:18:41.000Z</time>
      </trkpt>
      <trkpt lat="48.75442" lon="1.75486">
        <ele>193.19999694824</ele>
        <time>2012-07-31T13:18:47.000Z</time>
      </trkpt>
      <trkpt lat="48.75434" lon="1.75486">
        <ele>193.39999389648</ele>
        <time>2012-07-31T13:18:53.000Z</time>
      </trkpt>
      <trkpt lat="48.75426" lon="1.75485">
        <ele>193.39999389648</ele>
        <time>2012-07-31T13:18:59.000Z</time>
      </trkpt>
      <trkpt lat="48.75421" lon="1.75481">
        <ele>193.39999389648</ele>
        <time>2012-07-31T13:19:03.000Z</time>
      </trkpt>
      <trkpt lat="48.75415" lon="1.7548">
        <ele>193.39999389648</ele>
        <time>2012-07-31T13:19:07.000Z</time>
      </trkpt>
      <trkpt lat="48.75406" lon="1.75476">
        <ele>193.19999694824</ele>
        <time>2012-07-31T13:19:13.000Z</time>
      </trkpt>
      <trkpt lat="48.75397" lon="1.75468">
        <ele>192.80000305176</ele>
        <time>2012-07-31T13:19:20.000Z</time>
      </trkpt>
      <trkpt lat="48.75394" lon="1.75467">
        <ele>192.80000305176</ele>
        <time>2012-07-31T13:19:22.000Z</time>
      </trkpt>
      <trkpt lat="48.75384" lon="1.75464">
        <ele>192.60000610352</ele>
        <time>2012-07-31T13:19:28.000Z</time>
      </trkpt>
      <trkpt lat="48.75376" lon="1.75463">
        <ele>192.39999389648</ele>
        <time>2012-07-31T13:19:33.000Z</time>
      </trkpt>
      <trkpt lat="48.75363" lon="1.75462">
        <ele>192</ele>
        <time>2012-07-31T13:19:42.000Z</time>
      </trkpt>
      <trkpt lat="48.75362" lon="1.75462">
        <ele>192</ele>
        <time>2012-07-31T13:19:43.000Z</time>
      </trkpt>
      <trkpt lat="48.75356" lon="1.75459">
        <ele>192</ele>
        <time>2012-07-31T13:19:50.000Z</time>
      </trkpt>
      <trkpt lat="48.75348" lon="1.75454">
        <ele>191.80000305176</ele>
        <time>2012-07-31T13:19:57.000Z</time>
      </trkpt>
      <trkpt lat="48.75342" lon="1.75453">
        <ele>191.60000610352</ele>
        <time>2012-07-31T13:20:01.000Z</time>
      </trkpt>
      <trkpt lat="48.75339" lon="1.75452">
        <ele>191.60000610352</ele>
        <time>2012-07-31T13:20:03.000Z</time>
      </trkpt>
      <trkpt lat="48.75329" lon="1.75449">
        <ele>191.39999389648</ele>
        <time>2012-07-31T13:20:11.000Z</time>
      </trkpt>
      <trkpt lat="48.75324" lon="1.75447">
        <ele>191.39999389648</ele>
        <time>2012-07-31T13:20:16.000Z</time>
      </trkpt>
      <trkpt lat="48.75315" lon="1.75448">
        <ele>191.60000610352</ele>
        <time>2012-07-31T13:20:21.000Z</time>
      </trkpt>
      <trkpt lat="48.75306" lon="1.75445">
        <ele>191.60000610352</ele>
        <time>2012-07-31T13:20:26.000Z</time>
      </trkpt>
      <trkpt lat="48.75302" lon="1.7544">
        <ele>191.60000610352</ele>
        <time>2012-07-31T13:20:31.000Z</time>
      </trkpt>
      <trkpt lat="48.75295" lon="1.75436">
        <ele>191.60000610352</ele>
        <time>2012-07-31T13:20:38.000Z</time>
      </trkpt>
      <trkpt lat="48.75282" lon="1.75429">
        <ele>191.60000610352</ele>
        <time>2012-07-31T13:20:48.000Z</time>
      </trkpt>
      <trkpt lat="48.75273" lon="1.75427">
        <ele>191.80000305176</ele>
        <time>2012-07-31T13:20:55.000Z</time>
      </trkpt>
      <trkpt lat="48.75265" lon="1.75422">
        <ele>191.80000305176</ele>
        <time>2012-07-31T13:21:02.000Z</time>
      </trkpt>
      <trkpt lat="48.75257" lon="1.75417">
        <ele>192</ele>
        <time>2012-07-31T13:21:09.000Z</time>
      </trkpt>
      <trkpt lat="48.75253" lon="1.75414">
        <ele>192</ele>
        <time>2012-07-31T13:21:13.000Z</time>
      </trkpt>
      <trkpt lat="48.7525" lon="1.75412">
        <ele>192</ele>
        <time>2012-07-31T13:21:19.000Z</time>
      </trkpt>
      <trkpt lat="48.75245" lon="1.75418">
        <ele>191.80000305176</ele>
        <time>2012-07-31T13:21:25.000Z</time>
      </trkpt>
      <trkpt lat="48.75233" lon="1.75412">
        <ele>191.60000610352</ele>
        <time>2012-07-31T13:21:33.000Z</time>
      </trkpt>
      <trkpt lat="48.75225" lon="1.75408">
        <ele>191.39999389648</ele>
        <time>2012-07-31T13:21:39.000Z</time>
      </trkpt>
      <trkpt lat="48.75215" lon="1.75405">
        <ele>191</ele>
        <time>2012-07-31T13:21:47.000Z</time>
      </trkpt>
      <trkpt lat="48.75209" lon="1.75398">
        <ele>190.80000305176</ele>
        <time>2012-07-31T13:21:54.000Z</time>
      </trkpt>
      <trkpt lat="48.75202" lon="1.75398">
        <ele>190.80000305176</ele>
        <time>2012-07-31T13:21:59.000Z</time>
      </trkpt>
      <trkpt lat="48.75194" lon="1.75393">
        <ele>190.60000610352</ele>
        <time>2012-07-31T13:22:06.000Z</time>
      </trkpt>
      <trkpt lat="48.75186" lon="1.75387">
        <ele>190.39999389648</ele>
        <time>2012-07-31T13:22:13.000Z</time>
      </trkpt>
      <trkpt lat="48.75179" lon="1.7538">
        <ele>190.19999694824</ele>
        <time>2012-07-31T13:22:20.000Z</time>
      </trkpt>
      <trkpt lat="48.7517" lon="1.75375">
        <ele>190</ele>
        <time>2012-07-31T13:22:27.000Z</time>
      </trkpt>
      <trkpt lat="48.75163" lon="1.75372">
        <ele>190</ele>
        <time>2012-07-31T13:22:33.000Z</time>
      </trkpt>
      <trkpt lat="48.75156" lon="1.75367">
        <ele>189.80000305176</ele>
        <time>2012-07-31T13:22:40.000Z</time>
      </trkpt>
      <trkpt lat="48.75153" lon="1.75365">
        <ele>189.80000305176</ele>
        <time>2012-07-31T13:22:43.000Z</time>
      </trkpt>
      <trkpt lat="48.7514" lon="1.7536">
        <ele>189.60000610352</ele>
        <time>2012-07-31T13:22:51.000Z</time>
      </trkpt>
      <trkpt lat="48.75136" lon="1.75357">
        <ele>189.60000610352</ele>
        <time>2012-07-31T13:22:55.000Z</time>
      </trkpt>
      <trkpt lat="48.75128" lon="1.75354">
        <ele>189.60000610352</ele>
        <time>2012-07-31T13:23:02.000Z</time>
      </trkpt>
      <trkpt lat="48.75123" lon="1.75352">
        <ele>189.39999389648</ele>
        <time>2012-07-31T13:23:06.000Z</time>
      </trkpt>
      <trkpt lat="48.75113" lon="1.75348">
        <ele>189.39999389648</ele>
        <time>2012-07-31T13:23:13.000Z</time>
      </trkpt>
      <trkpt lat="48.75103" lon="1.75342">
        <ele>189.19999694824</ele>
        <time>2012-07-31T13:23:19.000Z</time>
      </trkpt>
      <trkpt lat="48.75089" lon="1.75333">
        <ele>189</ele>
        <time>2012-07-31T13:23:27.000Z</time>
      </trkpt>
      <trkpt lat="48.75076" lon="1.7533">
        <ele>188.80000305176</ele>
        <time>2012-07-31T13:23:34.000Z</time>
      </trkpt>
      <trkpt lat="48.75073" lon="1.75329">
        <ele>188.60000610352</ele>
        <time>2012-07-31T13:23:37.000Z</time>
      </trkpt>
      <trkpt lat="48.75069" lon="1.75325">
        <ele>188.60000610352</ele>
        <time>2012-07-31T13:23:43.000Z</time>
      </trkpt>
      <trkpt lat="48.75061" lon="1.75319">
        <ele>188.39999389648</ele>
        <time>2012-07-31T13:23:50.000Z</time>
      </trkpt>
      <trkpt lat="48.75052" lon="1.75313">
        <ele>188</ele>
        <time>2012-07-31T13:23:56.000Z</time>
      </trkpt>
      <trkpt lat="48.75041" lon="1.75309">
        <ele>187.60000610352</ele>
        <time>2012-07-31T13:24:03.000Z</time>
      </trkpt>
      <trkpt lat="48.75037" lon="1.75307">
        <ele>187.39999389648</ele>
        <time>2012-07-31T13:24:06.000Z</time>
      </trkpt>
      <trkpt lat="48.75031" lon="1.753">
        <ele>187.19999694824</ele>
        <time>2012-07-31T13:24:12.000Z</time>
      </trkpt>
      <trkpt lat="48.75022" lon="1.75295">
        <ele>187</ele>
        <time>2012-07-31T13:24:19.000Z</time>
      </trkpt>
      <trkpt lat="48.7502" lon="1.75295">
        <ele>186.80000305176</ele>
        <time>2012-07-31T13:24:20.000Z</time>
      </trkpt>
      <trkpt lat="48.75017" lon="1.75292">
        <ele>186.80000305176</ele>
        <time>2012-07-31T13:24:23.000Z</time>
      </trkpt>
      <trkpt lat="48.7501" lon="1.75287">
        <ele>186.39999389648</ele>
        <time>2012-07-31T13:24:28.000Z</time>
      </trkpt>
      <trkpt lat="48.75005" lon="1.75284">
        <ele>186.19999694824</ele>
        <time>2012-07-31T13:24:33.000Z</time>
      </trkpt>
      <trkpt lat="48.75002" lon="1.75274">
        <ele>186</ele>
        <time>2012-07-31T13:24:39.000Z</time>
      </trkpt>
      <trkpt lat="48.74999" lon="1.75258">
        <ele>185.80000305176</ele>
        <time>2012-07-31T13:24:46.000Z</time>
      </trkpt>
      <trkpt lat="48.74998" lon="1.75252">
        <ele>185.39999389648</ele>
        <time>2012-07-31T13:24:49.000Z</time>
      </trkpt>
      <trkpt lat="48.74997" lon="1.75239">
        <ele>185.39999389648</ele>
        <time>2012-07-31T13:24:55.000Z</time>
      </trkpt>
      <trkpt lat="48.74992" lon="1.7523">
        <ele>184.19999694824</ele>
        <time>2012-07-31T13:25:00.000Z</time>
      </trkpt>
      <trkpt lat="48.74991" lon="1.75227">
        <ele>183.80000305176</ele>
        <time>2012-07-31T13:25:01.000Z</time>
      </trkpt>
      <trkpt lat="48.74987" lon="1.75214">
        <ele>183.19999694824</ele>
        <time>2012-07-31T13:25:08.000Z</time>
      </trkpt>
      <trkpt lat="48.74985" lon="1.75197">
        <ele>182.60000610352</ele>
        <time>2012-07-31T13:25:15.000Z</time>
      </trkpt>
      <trkpt lat="48.74985" lon="1.75186">
        <ele>182.80000305176</ele>
        <time>2012-07-31T13:25:22.000Z</time>
      </trkpt>
      <trkpt lat="48.74985" lon="1.75176">
        <ele>183</ele>
        <time>2012-07-31T13:25:28.000Z</time>
      </trkpt>
      <trkpt lat="48.74986" lon="1.75168">
        <ele>183.19999694824</ele>
        <time>2012-07-31T13:25:33.000Z</time>
      </trkpt>
      <trkpt lat="48.74989" lon="1.75156">
        <ele>183.60000610352</ele>
        <time>2012-07-31T13:25:38.000Z</time>
      </trkpt>
      <trkpt lat="48.7499" lon="1.75151">
        <ele>183.60000610352</ele>
        <time>2012-07-31T13:25:40.000Z</time>
      </trkpt>
      <trkpt lat="48.74991" lon="1.75143">
        <ele>183.80000305176</ele>
        <time>2012-07-31T13:25:44.000Z</time>
      </trkpt>
      <trkpt lat="48.74995" lon="1.75127">
        <ele>184.39999389648</ele>
        <time>2012-07-31T13:25:51.000Z</time>
      </trkpt>
      <trkpt lat="48.74998" lon="1.7512">
        <ele>184.60000610352</ele>
        <time>2012-07-31T13:25:55.000Z</time>
      </trkpt>
      <trkpt lat="48.75" lon="1.7511">
        <ele>184.60000610352</ele>
        <time>2012-07-31T13:26:02.000Z</time>
      </trkpt>
      <trkpt lat="48.74998" lon="1.75106">
        <ele>184.19999694824</ele>
        <time>2012-07-31T13:26:06.000Z</time>
      </trkpt>
      <trkpt lat="48.74992" lon="1.75104">
        <ele>183.39999389648</ele>
        <time>2012-07-31T13:26:10.000Z</time>
      </trkpt>
      <trkpt lat="48.7499" lon="1.75102">
        <ele>183</ele>
        <time>2012-07-31T13:26:12.000Z</time>
      </trkpt>
      <trkpt lat="48.74977" lon="1.75099">
        <ele>181.19999694824</ele>
        <time>2012-07-31T13:26:20.000Z</time>
      </trkpt>
      <trkpt lat="48.7497" lon="1.75091">
        <ele>180.19999694824</ele>
        <time>2012-07-31T13:26:26.000Z</time>
      </trkpt>
      <trkpt lat="48.74963" lon="1.75085">
        <ele>179.39999389648</ele>
        <time>2012-07-31T13:26:32.000Z</time>
      </trkpt>
      <trkpt lat="48.74961" lon="1.75083">
        <ele>179.19999694824</ele>
        <time>2012-07-31T13:26:34.000Z</time>
      </trkpt>
      <trkpt lat="48.74956" lon="1.75079">
        <ele>178.39999389648</ele>
        <time>2012-07-31T13:26:40.000Z</time>
      </trkpt>
      <trkpt lat="48.74952" lon="1.75078">
        <ele>178</ele>
        <time>2012-07-31T13:26:43.000Z</time>
      </trkpt>
      <trkpt lat="48.7495" lon="1.75077">
        <ele>177.60000610352</ele>
        <time>2012-07-31T13:26:45.000Z</time>
      </trkpt>
      <trkpt lat="48.74943" lon="1.75071">
        <ele>176.39999389648</ele>
        <time>2012-07-31T13:26:51.000Z</time>
      </trkpt>
      <trkpt lat="48.74936" lon="1.75065">
        <ele>175.19999694824</ele>
        <time>2012-07-31T13:26:58.000Z</time>
      </trkpt>
      <trkpt lat="48.74929" lon="1.75055">
        <ele>173.80000305176</ele>
        <time>2012-07-31T13:27:05.000Z</time>
      </trkpt>
      <trkpt lat="48.74926" lon="1.75046">
        <ele>172.80000305176</ele>
        <time>2012-07-31T13:27:11.000Z</time>
      </trkpt>
      <trkpt lat="48.74923" lon="1.75039">
        <ele>172</ele>
        <time>2012-07-31T13:27:15.000Z</time>
      </trkpt>
      <trkpt lat="48.74917" lon="1.75025">
        <ele>170.60000610352</ele>
        <time>2012-07-31T13:27:23.000Z</time>
      </trkpt>
      <trkpt lat="48.74912" lon="1.75013">
        <ele>169.19999694824</ele>
        <time>2012-07-31T13:27:30.000Z</time>
      </trkpt>
      <trkpt lat="48.74911" lon="1.75009">
        <ele>169</ele>
        <time>2012-07-31T13:27:32.000Z</time>
      </trkpt>
      <trkpt lat="48.74908" lon="1.75001">
        <ele>168</ele>
        <time>2012-07-31T13:27:38.000Z</time>
      </trkpt>
      <trkpt lat="48.74905" lon="1.74996">
        <ele>167.39999389648</ele>
        <time>2012-07-31T13:27:42.000Z</time>
      </trkpt>
      <trkpt lat="48.74896" lon="1.74981">
        <ele>165.19999694824</ele>
        <time>2012-07-31T13:27:52.000Z</time>
      </trkpt>
      <trkpt lat="48.74894" lon="1.74977">
        <ele>164.80000305176</ele>
        <time>2012-07-31T13:27:54.000Z</time>
      </trkpt>
      <trkpt lat="48.74894" lon="1.74955">
        <ele>163</ele>
        <time>2012-07-31T13:28:06.000Z</time>
      </trkpt>
      <trkpt lat="48.74896" lon="1.74941">
        <ele>162.19999694824</ele>
        <time>2012-07-31T13:28:15.000Z</time>
      </trkpt>
      <trkpt lat="48.74896" lon="1.74931">
        <ele>161.39999389648</ele>
        <time>2012-07-31T13:28:20.000Z</time>
      </trkpt>
      <trkpt lat="48.74893" lon="1.7492">
        <ele>160.19999694824</ele>
        <time>2012-07-31T13:28:26.000Z</time>
      </trkpt>
      <trkpt lat="48.74893" lon="1.74917">
        <ele>160</ele>
        <time>2012-07-31T13:28:29.000Z</time>
      </trkpt>
      <trkpt lat="48.74892" lon="1.74913">
        <ele>159.60000610352</ele>
        <time>2012-07-31T13:28:31.000Z</time>
      </trkpt>
      <trkpt lat="48.74887" lon="1.74905">
        <ele>159</ele>
        <time>2012-07-31T13:28:38.000Z</time>
      </trkpt>
      <trkpt lat="48.74886" lon="1.74894">
        <ele>158.80000305176</ele>
        <time>2012-07-31T13:28:47.000Z</time>
      </trkpt>
      <trkpt lat="48.74881" lon="1.74884">
        <ele>158</ele>
        <time>2012-07-31T13:28:52.000Z</time>
      </trkpt>
      <trkpt lat="48.7487" lon="1.74873">
        <ele>156.19999694824</ele>
        <time>2012-07-31T13:29:01.000Z</time>
      </trkpt>
      <trkpt lat="48.74863" lon="1.74858">
        <ele>154.80000305176</ele>
        <time>2012-07-31T13:29:10.000Z</time>
      </trkpt>
      <trkpt lat="48.74862" lon="1.74849">
        <ele>154.39999389648</ele>
        <time>2012-07-31T13:29:14.000Z</time>
      </trkpt>
      <trkpt lat="48.74862" lon="1.74843">
        <ele>154.19999694824</ele>
        <time>2012-07-31T13:29:17.000Z</time>
      </trkpt>
      <trkpt lat="48.74863" lon="1.74835">
        <ele>154.39999389648</ele>
        <time>2012-07-31T13:29:21.000Z</time>
      </trkpt>
      <trkpt lat="48.74865" lon="1.74826">
        <ele>154.39999389648</ele>
        <time>2012-07-31T13:29:25.000Z</time>
      </trkpt>
      <trkpt lat="48.74865" lon="1.74808">
        <ele>154</ele>
        <time>2012-07-31T13:29:32.000Z</time>
      </trkpt>
      <trkpt lat="48.74866" lon="1.74805">
        <ele>154</ele>
        <time>2012-07-31T13:29:33.000Z</time>
      </trkpt>
      <trkpt lat="48.74867" lon="1.74794">
        <ele>153.80000305176</ele>
        <time>2012-07-31T13:29:38.000Z</time>
      </trkpt>
      <trkpt lat="48.74872" lon="1.74781">
        <ele>153.80000305176</ele>
        <time>2012-07-31T13:29:44.000Z</time>
      </trkpt>
      <trkpt lat="48.74874" lon="1.74765">
        <ele>153.39999389648</ele>
        <time>2012-07-31T13:29:51.000Z</time>
      </trkpt>
      <trkpt lat="48.74872" lon="1.74747">
        <ele>152.60000610352</ele>
        <time>2012-07-31T13:29:59.000Z</time>
      </trkpt>
      <trkpt lat="48.74874" lon="1.74743">
        <ele>152.80000305176</ele>
        <time>2012-07-31T13:30:01.000Z</time>
      </trkpt>
      <trkpt lat="48.74878" lon="1.74736">
        <ele>152.80000305176</ele>
        <time>2012-07-31T13:30:05.000Z</time>
      </trkpt>
      <trkpt lat="48.7488" lon="1.74731">
        <ele>152.80000305176</ele>
        <time>2012-07-31T13:30:08.000Z</time>
      </trkpt>
      <trkpt lat="48.74883" lon="1.7472">
        <ele>152.80000305176</ele>
        <time>2012-07-31T13:30:14.000Z</time>
      </trkpt>
      <trkpt lat="48.74884" lon="1.74708">
        <ele>152.39999389648</ele>
        <time>2012-07-31T13:30:21.000Z</time>
      </trkpt>
      <trkpt lat="48.74889" lon="1.74699">
        <ele>152.39999389648</ele>
        <time>2012-07-31T13:30:27.000Z</time>
      </trkpt>
      <trkpt lat="48.74892" lon="1.74687">
        <ele>152</ele>
        <time>2012-07-31T13:30:34.000Z</time>
      </trkpt>
      <trkpt lat="48.74894" lon="1.74679">
        <ele>151.60000610352</ele>
        <time>2012-07-31T13:30:37.000Z</time>
      </trkpt>
      <trkpt lat="48.74894" lon="1.74665">
        <ele>151</ele>
        <time>2012-07-31T13:30:45.000Z</time>
      </trkpt>
      <trkpt lat="48.74894" lon="1.74663">
        <ele>151</ele>
        <time>2012-07-31T13:30:46.000Z</time>
      </trkpt>
      <trkpt lat="48.74893" lon="1.74652">
        <ele>151</ele>
        <time>2012-07-31T13:30:51.000Z</time>
      </trkpt>
      <trkpt lat="48.74893" lon="1.74645">
        <ele>151</ele>
        <time>2012-07-31T13:30:55.000Z</time>
      </trkpt>
      <trkpt lat="48.74896" lon="1.7463">
        <ele>151</ele>
        <time>2012-07-31T13:31:01.000Z</time>
      </trkpt>
      <trkpt lat="48.74903" lon="1.74615">
        <ele>150.80000305176</ele>
        <time>2012-07-31T13:31:08.000Z</time>
      </trkpt>
      <trkpt lat="48.74904" lon="1.7461">
        <ele>150.80000305176</ele>
        <time>2012-07-31T13:31:10.000Z</time>
      </trkpt>
      <trkpt lat="48.74905" lon="1.74598">
        <ele>150.60000610352</ele>
        <time>2012-07-31T13:31:16.000Z</time>
      </trkpt>
      <trkpt lat="48.74905" lon="1.74595">
        <ele>150.60000610352</ele>
        <time>2012-07-31T13:31:18.000Z</time>
      </trkpt>
      <trkpt lat="48.74903" lon="1.74589">
        <ele>150.60000610352</ele>
        <time>2012-07-31T13:31:21.000Z</time>
      </trkpt>
      <trkpt lat="48.74906" lon="1.7458">
        <ele>150.60000610352</ele>
        <time>2012-07-31T13:31:26.000Z</time>
      </trkpt>
      <trkpt lat="48.7491" lon="1.74568">
        <ele>150.19999694824</ele>
        <time>2012-07-31T13:31:33.000Z</time>
      </trkpt>
      <trkpt lat="48.74907" lon="1.74557">
        <ele>150.39999389648</ele>
        <time>2012-07-31T13:31:38.000Z</time>
      </trkpt>
      <trkpt lat="48.7491" lon="1.74535">
        <ele>150.19999694824</ele>
        <time>2012-07-31T13:31:46.000Z</time>
      </trkpt>
      <trkpt lat="48.74904" lon="1.74518">
        <ele>150.80000305176</ele>
        <time>2012-07-31T13:31:53.000Z</time>
      </trkpt>
      <trkpt lat="48.74904" lon="1.74508">
        <ele>151</ele>
        <time>2012-07-31T13:31:58.000Z</time>
      </trkpt>
      <trkpt lat="48.74905" lon="1.74497">
        <ele>151</ele>
        <time>2012-07-31T13:32:04.000Z</time>
      </trkpt>
      <trkpt lat="48.74907" lon="1.74492">
        <ele>150.80000305176</ele>
        <time>2012-07-31T13:32:08.000Z</time>
      </trkpt>
      <trkpt lat="48.74914" lon="1.74475">
        <ele>150.39999389648</ele>
        <time>2012-07-31T13:32:16.000Z</time>
      </trkpt>
      <trkpt lat="48.74921" lon="1.74461">
        <ele>150.60000610352</ele>
        <time>2012-07-31T13:32:22.000Z</time>
      </trkpt>
      <trkpt lat="48.74921" lon="1.74461">
        <ele>150.60000610352</ele>
        <time>2012-07-31T13:32:23.000Z</time>
      </trkpt>
      <trkpt lat="48.7492" lon="1.74445">
        <ele>151</ele>
        <time>2012-07-31T13:32:31.000Z</time>
      </trkpt>
      <trkpt lat="48.74922" lon="1.74438">
        <ele>151.39999389648</ele>
        <time>2012-07-31T13:32:37.000Z</time>
      </trkpt>
      <trkpt lat="48.74922" lon="1.7443">
        <ele>151.60000610352</ele>
        <time>2012-07-31T13:32:41.000Z</time>
      </trkpt>
      <trkpt lat="48.74927" lon="1.74416">
        <ele>151.80000305176</ele>
        <time>2012-07-31T13:32:46.000Z</time>
      </trkpt>
      <trkpt lat="48.74936" lon="1.74405">
        <ele>152</ele>
        <time>2012-07-31T13:32:51.000Z</time>
      </trkpt>
      <trkpt lat="48.74938" lon="1.74396">
        <ele>152</ele>
        <time>2012-07-31T13:32:55.000Z</time>
      </trkpt>
      <trkpt lat="48.74935" lon="1.74388">
        <ele>152.19999694824</ele>
        <time>2012-07-31T13:32:59.000Z</time>
      </trkpt>
      <trkpt lat="48.74934" lon="1.74385">
        <ele>152.39999389648</ele>
        <time>2012-07-31T13:33:02.000Z</time>
      </trkpt>
      <trkpt lat="48.74933" lon="1.74382">
        <ele>152.39999389648</ele>
        <time>2012-07-31T13:33:05.000Z</time>
      </trkpt>
      <trkpt lat="48.7493" lon="1.74372">
        <ele>152.80000305176</ele>
        <time>2012-07-31T13:33:11.000Z</time>
      </trkpt>
      <trkpt lat="48.74933" lon="1.74362">
        <ele>153</ele>
        <time>2012-07-31T13:33:17.000Z</time>
      </trkpt>
      <trkpt lat="48.74935" lon="1.74354">
        <ele>152.80000305176</ele>
        <time>2012-07-31T13:33:22.000Z</time>
      </trkpt>
      <trkpt lat="48.74934" lon="1.74348">
        <ele>153</ele>
        <time>2012-07-31T13:33:25.000Z</time>
      </trkpt>
      <trkpt lat="48.74938" lon="1.74336">
        <ele>153</ele>
        <time>2012-07-31T13:33:33.000Z</time>
      </trkpt>
      <trkpt lat="48.74941" lon="1.74325">
        <ele>152.60000610352</ele>
        <time>2012-07-31T13:33:39.000Z</time>
      </trkpt>
      <trkpt lat="48.74944" lon="1.74322">
        <ele>152.39999389648</ele>
        <time>2012-07-31T13:33:41.000Z</time>
      </trkpt>
      <trkpt lat="48.7494" lon="1.74305">
        <ele>152.60000610352</ele>
        <time>2012-07-31T13:33:47.000Z</time>
      </trkpt>
      <trkpt lat="48.74938" lon="1.74299">
        <ele>152.80000305176</ele>
        <time>2012-07-31T13:33:49.000Z</time>
      </trkpt>
      <trkpt lat="48.74942" lon="1.74291">
        <ele>152.39999389648</ele>
        <time>2012-07-31T13:33:53.000Z</time>
      </trkpt>
      <trkpt lat="48.74945" lon="1.74279">
        <ele>152</ele>
        <time>2012-07-31T13:34:00.000Z</time>
      </trkpt>
      <trkpt lat="48.74939" lon="1.74266">
        <ele>152.39999389648</ele>
        <time>2012-07-31T13:34:06.000Z</time>
      </trkpt>
      <trkpt lat="48.74941" lon="1.74251">
        <ele>152.19999694824</ele>
        <time>2012-07-31T13:34:12.000Z</time>
      </trkpt>
      <trkpt lat="48.74944" lon="1.74242">
        <ele>151.80000305176</ele>
        <time>2012-07-31T13:34:16.000Z</time>
      </trkpt>
      <trkpt lat="48.74948" lon="1.74229">
        <ele>151</ele>
        <time>2012-07-31T13:34:22.000Z</time>
      </trkpt>
      <trkpt lat="48.74948" lon="1.74219">
        <ele>150.60000610352</ele>
        <time>2012-07-31T13:34:27.000Z</time>
      </trkpt>
      <trkpt lat="48.74951" lon="1.74201">
        <ele>150</ele>
        <time>2012-07-31T13:34:36.000Z</time>
      </trkpt>
      <trkpt lat="48.74956" lon="1.74188">
        <ele>149.19999694824</ele>
        <time>2012-07-31T13:34:42.000Z</time>
      </trkpt>
      <trkpt lat="48.74964" lon="1.74176">
        <ele>148.60000610352</ele>
        <time>2012-07-31T13:34:49.000Z</time>
      </trkpt>
      <trkpt lat="48.74971" lon="1.74164">
        <ele>148</ele>
        <time>2012-07-31T13:34:56.000Z</time>
      </trkpt>
      <trkpt lat="48.74972" lon="1.7416">
        <ele>147.80000305176</ele>
        <time>2012-07-31T13:34:58.000Z</time>
      </trkpt>
      <trkpt lat="48.74975" lon="1.74146">
        <ele>147.39999389648</ele>
        <time>2012-07-31T13:35:05.000Z</time>
      </trkpt>
      <trkpt lat="48.74976" lon="1.74135">
        <ele>147</ele>
        <time>2012-07-31T13:35:10.000Z</time>
      </trkpt>
      <trkpt lat="48.74976" lon="1.74132">
        <ele>147</ele>
        <time>2012-07-31T13:35:11.000Z</time>
      </trkpt>
      <trkpt lat="48.74977" lon="1.74124">
        <ele>146.60000610352</ele>
        <time>2012-07-31T13:35:16.000Z</time>
      </trkpt>
      <trkpt lat="48.74982" lon="1.74111">
        <ele>146</ele>
        <time>2012-07-31T13:35:23.000Z</time>
      </trkpt>
      <trkpt lat="48.74984" lon="1.74109">
        <ele>145.80000305176</ele>
        <time>2012-07-31T13:35:25.000Z</time>
      </trkpt>
      <trkpt lat="48.74991" lon="1.74099">
        <ele>145.19999694824</ele>
        <time>2012-07-31T13:35:31.000Z</time>
      </trkpt>
      <trkpt lat="48.74994" lon="1.74085">
        <ele>144.39999389648</ele>
        <time>2012-07-31T13:35:37.000Z</time>
      </trkpt>
      <trkpt lat="48.74999" lon="1.74076">
        <ele>144.19999694824</ele>
        <time>2012-07-31T13:35:41.000Z</time>
      </trkpt>
      <trkpt lat="48.74998" lon="1.74067">
        <ele>144.19999694824</ele>
        <time>2012-07-31T13:35:44.000Z</time>
      </trkpt>
      <trkpt lat="48.74988" lon="1.74054">
        <ele>145.19999694824</ele>
        <time>2012-07-31T13:35:51.000Z</time>
      </trkpt>
      <trkpt lat="48.74988" lon="1.74043">
        <ele>145.19999694824</ele>
        <time>2012-07-31T13:35:57.000Z</time>
      </trkpt>
      <trkpt lat="48.7499" lon="1.7403">
        <ele>145.19999694824</ele>
        <time>2012-07-31T13:36:03.000Z</time>
      </trkpt>
      <trkpt lat="48.74991" lon="1.74016">
        <ele>145</ele>
        <time>2012-07-31T13:36:10.000Z</time>
      </trkpt>
      <trkpt lat="48.7499" lon="1.73996">
        <ele>145.39999389648</ele>
        <time>2012-07-31T13:36:18.000Z</time>
      </trkpt>
      <trkpt lat="48.74993" lon="1.7398">
        <ele>145.19999694824</ele>
        <time>2012-07-31T13:36:26.000Z</time>
      </trkpt>
      <trkpt lat="48.7499" lon="1.73975">
        <ele>145.60000610352</ele>
        <time>2012-07-31T13:36:28.000Z</time>
      </trkpt>
      <trkpt lat="48.74996" lon="1.73968">
        <ele>145</ele>
        <time>2012-07-31T13:36:32.000Z</time>
      </trkpt>
      <trkpt lat="48.75" lon="1.73954">
        <ele>144.60000610352</ele>
        <time>2012-07-31T13:36:39.000Z</time>
      </trkpt>
      <trkpt lat="48.74999" lon="1.73952">
        <ele>144.80000305176</ele>
        <time>2012-07-31T13:36:40.000Z</time>
      </trkpt>
      <trkpt lat="48.75001" lon="1.73946">
        <ele>144.60000610352</ele>
        <time>2012-07-31T13:36:44.000Z</time>
      </trkpt>
      <trkpt lat="48.75001" lon="1.73931">
        <ele>144.80000305176</ele>
        <time>2012-07-31T13:36:51.000Z</time>
      </trkpt>
      <trkpt lat="48.75003" lon="1.7392">
        <ele>145</ele>
        <time>2012-07-31T13:36:58.000Z</time>
      </trkpt>
      <trkpt lat="48.75002" lon="1.73919">
        <ele>145</ele>
        <time>2012-07-31T13:36:59.000Z</time>
      </trkpt>
      <trkpt lat="48.75007" lon="1.73912">
        <ele>145</ele>
        <time>2012-07-31T13:37:11.000Z</time>
      </trkpt>
      <trkpt lat="48.75008" lon="1.73911">
        <ele>145</ele>
        <time>2012-07-31T13:37:13.000Z</time>
      </trkpt>
      <trkpt lat="48.75025" lon="1.73908">
        <ele>144.80000305176</ele>
        <time>2012-07-31T13:37:20.000Z</time>
      </trkpt>
      <trkpt lat="48.75029" lon="1.73901">
        <ele>145</ele>
        <time>2012-07-31T13:37:25.000Z</time>
      </trkpt>
      <trkpt lat="48.75032" lon="1.73895">
        <ele>145.19999694824</ele>
        <time>2012-07-31T13:37:30.000Z</time>
      </trkpt>
      <trkpt lat="48.75034" lon="1.73891">
        <ele>145.19999694824</ele>
        <time>2012-07-31T13:37:32.000Z</time>
      </trkpt>
      <trkpt lat="48.75037" lon="1.73879">
        <ele>145.80000305176</ele>
        <time>2012-07-31T13:37:39.000Z</time>
      </trkpt>
      <trkpt lat="48.75038" lon="1.73876">
        <ele>145.80000305176</ele>
        <time>2012-07-31T13:37:41.000Z</time>
      </trkpt>
      <trkpt lat="48.75042" lon="1.73871">
        <ele>146</ele>
        <time>2012-07-31T13:37:45.000Z</time>
      </trkpt>
      <trkpt lat="48.75045" lon="1.73864">
        <ele>146.19999694824</ele>
        <time>2012-07-31T13:37:51.000Z</time>
      </trkpt>
      <trkpt lat="48.75045" lon="1.73863">
        <ele>146.19999694824</ele>
        <time>2012-07-31T13:37:52.000Z</time>
      </trkpt>
      <trkpt lat="48.75048" lon="1.73856">
        <ele>146.39999389648</ele>
        <time>2012-07-31T13:37:57.000Z</time>
      </trkpt>
      <trkpt lat="48.75054" lon="1.73845">
        <ele>146.60000610352</ele>
        <time>2012-07-31T13:38:02.000Z</time>
      </trkpt>
      <trkpt lat="48.75061" lon="1.73837">
        <ele>146.60000610352</ele>
        <time>2012-07-31T13:38:07.000Z</time>
      </trkpt>
      <trkpt lat="48.75068" lon="1.73834">
        <ele>146.60000610352</ele>
        <time>2012-07-31T13:38:11.000Z</time>
      </trkpt>
      <trkpt lat="48.75083" lon="1.73824">
        <ele>146.19999694824</ele>
        <time>2012-07-31T13:38:19.000Z</time>
      </trkpt>
      <trkpt lat="48.75091" lon="1.73814">
        <ele>146.19999694824</ele>
        <time>2012-07-31T13:38:26.000Z</time>
      </trkpt>
      <trkpt lat="48.75094" lon="1.73808">
        <ele>146.19999694824</ele>
        <time>2012-07-31T13:38:29.000Z</time>
      </trkpt>
      <trkpt lat="48.75105" lon="1.73799">
        <ele>146</ele>
        <time>2012-07-31T13:38:39.000Z</time>
      </trkpt>
      <trkpt lat="48.7511" lon="1.7379">
        <ele>146</ele>
        <time>2012-07-31T13:38:46.000Z</time>
      </trkpt>
      <trkpt lat="48.75115" lon="1.73781">
        <ele>146</ele>
        <time>2012-07-31T13:38:54.000Z</time>
      </trkpt>
      <trkpt lat="48.75122" lon="1.73774">
        <ele>145.80000305176</ele>
        <time>2012-07-31T13:39:02.000Z</time>
      </trkpt>
      <trkpt lat="48.75129" lon="1.73767">
        <ele>145.60000610352</ele>
        <time>2012-07-31T13:39:08.000Z</time>
      </trkpt>
      <trkpt lat="48.75133" lon="1.73762">
        <ele>145.39999389648</ele>
        <time>2012-07-31T13:39:12.000Z</time>
      </trkpt>
      <trkpt lat="48.75141" lon="1.73751">
        <ele>145.19999694824</ele>
        <time>2012-07-31T13:39:20.000Z</time>
      </trkpt>
      <trkpt lat="48.75147" lon="1.7374">
        <ele>145.19999694824</ele>
        <time>2012-07-31T13:39:26.000Z</time>
      </trkpt>
      <trkpt lat="48.75155" lon="1.73733">
        <ele>144.80000305176</ele>
        <time>2012-07-31T13:39:31.000Z</time>
      </trkpt>
      <trkpt lat="48.75164" lon="1.73726">
        <ele>144.19999694824</ele>
        <time>2012-07-31T13:39:38.000Z</time>
      </trkpt>
      <trkpt lat="48.75169" lon="1.7372">
        <ele>144</ele>
        <time>2012-07-31T13:39:44.000Z</time>
      </trkpt>
      <trkpt lat="48.7518" lon="1.73708">
        <ele>143.60000610352</ele>
        <time>2012-07-31T13:39:52.000Z</time>
      </trkpt>
      <trkpt lat="48.75186" lon="1.73705">
        <ele>143.39999389648</ele>
        <time>2012-07-31T13:39:58.000Z</time>
      </trkpt>
      <trkpt lat="48.75191" lon="1.73698">
        <ele>143.19999694824</ele>
        <time>2012-07-31T13:40:05.000Z</time>
      </trkpt>
      <trkpt lat="48.75196" lon="1.73693">
        <ele>143.19999694824</ele>
        <time>2012-07-31T13:40:08.000Z</time>
      </trkpt>
      <trkpt lat="48.75204" lon="1.73681">
        <ele>143.19999694824</ele>
        <time>2012-07-31T13:40:16.000Z</time>
      </trkpt>
      <trkpt lat="48.75205" lon="1.73677">
        <ele>143.39999389648</ele>
        <time>2012-07-31T13:40:18.000Z</time>
      </trkpt>
      <trkpt lat="48.75205" lon="1.73671">
        <ele>143.39999389648</ele>
        <time>2012-07-31T13:40:21.000Z</time>
      </trkpt>
      <trkpt lat="48.752" lon="1.7366">
        <ele>144</ele>
        <time>2012-07-31T13:40:28.000Z</time>
      </trkpt>
      <trkpt lat="48.75197" lon="1.73653">
        <ele>144.39999389648</ele>
        <time>2012-07-31T13:40:33.000Z</time>
      </trkpt>
      <trkpt lat="48.75197" lon="1.73651">
        <ele>144.39999389648</ele>
        <time>2012-07-31T13:40:34.000Z</time>
      </trkpt>
      <trkpt lat="48.75197" lon="1.73638">
        <ele>145.19999694824</ele>
        <time>2012-07-31T13:40:41.000Z</time>
      </trkpt>
      <trkpt lat="48.75196" lon="1.73636">
        <ele>145.19999694824</ele>
        <time>2012-07-31T13:40:42.000Z</time>
      </trkpt>
      <trkpt lat="48.75194" lon="1.73623">
        <ele>146</ele>
        <time>2012-07-31T13:40:50.000Z</time>
      </trkpt>
      <trkpt lat="48.75194" lon="1.73614">
        <ele>146.39999389648</ele>
        <time>2012-07-31T13:40:54.000Z</time>
      </trkpt>
      <trkpt lat="48.75191" lon="1.73598">
        <ele>147.39999389648</ele>
        <time>2012-07-31T13:41:01.000Z</time>
      </trkpt>
      <trkpt lat="48.75191" lon="1.73596">
        <ele>147.39999389648</ele>
        <time>2012-07-31T13:41:02.000Z</time>
      </trkpt>
      <trkpt lat="48.75189" lon="1.73587">
        <ele>148</ele>
        <time>2012-07-31T13:41:06.000Z</time>
      </trkpt>
      <trkpt lat="48.75189" lon="1.73583">
        <ele>148.19999694824</ele>
        <time>2012-07-31T13:41:08.000Z</time>
      </trkpt>
      <trkpt lat="48.75189" lon="1.73573">
        <ele>149</ele>
        <time>2012-07-31T13:41:13.000Z</time>
      </trkpt>
      <trkpt lat="48.7519" lon="1.73571">
        <ele>149.19999694824</ele>
        <time>2012-07-31T13:41:14.000Z</time>
      </trkpt>
      <trkpt lat="48.75186" lon="1.73558">
        <ele>150.39999389648</ele>
        <time>2012-07-31T13:41:19.000Z</time>
      </trkpt>
      <trkpt lat="48.7518" lon="1.73548">
        <ele>151.39999389648</ele>
        <time>2012-07-31T13:41:25.000Z</time>
      </trkpt>
      <trkpt lat="48.75173" lon="1.73537">
        <ele>152.60000610352</ele>
        <time>2012-07-31T13:41:32.000Z</time>
      </trkpt>
      <trkpt lat="48.75169" lon="1.73532">
        <ele>153.19999694824</ele>
        <time>2012-07-31T13:41:36.000Z</time>
      </trkpt>
      <trkpt lat="48.75161" lon="1.73524">
        <ele>154.60000610352</ele>
        <time>2012-07-31T13:41:41.000Z</time>
      </trkpt>
      <trkpt lat="48.75156" lon="1.73518">
        <ele>155.39999389648</ele>
        <time>2012-07-31T13:41:45.000Z</time>
      </trkpt>
      <trkpt lat="48.75153" lon="1.73514">
        <ele>155.80000305176</ele>
        <time>2012-07-31T13:41:48.000Z</time>
      </trkpt>
      <trkpt lat="48.75145" lon="1.73505">
        <ele>157.19999694824</ele>
        <time>2012-07-31T13:41:55.000Z</time>
      </trkpt>
      <trkpt lat="48.75144" lon="1.73504">
        <ele>157.39999389648</ele>
        <time>2012-07-31T13:41:56.000Z</time>
      </trkpt>
      <trkpt lat="48.75136" lon="1.73498">
        <ele>158.39999389648</ele>
        <time>2012-07-31T13:42:02.000Z</time>
      </trkpt>
      <trkpt lat="48.75127" lon="1.73489">
        <ele>159.39999389648</ele>
        <time>2012-07-31T13:42:08.000Z</time>
      </trkpt>
      <trkpt lat="48.75121" lon="1.73483">
        <ele>160.39999389648</ele>
        <time>2012-07-31T13:42:13.000Z</time>
      </trkpt>
      <trkpt lat="48.7512" lon="1.73481">
        <ele>160.60000610352</ele>
        <time>2012-07-31T13:42:14.000Z</time>
      </trkpt>
      <trkpt lat="48.75099" lon="1.7347">
        <ele>163</ele>
        <time>2012-07-31T13:42:18.000Z</time>
      </trkpt>
      <trkpt lat="48.75073" lon="1.73457">
        <ele>166.39999389648</ele>
        <time>2012-07-31T13:42:23.000Z</time>
      </trkpt>
      <trkpt lat="48.7507" lon="1.73456">
        <ele>167</ele>
        <time>2012-07-31T13:42:24.000Z</time>
      </trkpt>
      <trkpt lat="48.75076" lon="1.73456">
        <ele>166.19999694824</ele>
        <time>2012-07-31T13:42:26.000Z</time>
      </trkpt>
      <trkpt lat="48.75079" lon="1.73451">
        <ele>166</ele>
        <time>2012-07-31T13:42:31.000Z</time>
      </trkpt>
      <trkpt lat="48.75079" lon="1.73445">
        <ele>166.39999389648</ele>
        <time>2012-07-31T13:42:38.000Z</time>
      </trkpt>
      <trkpt lat="48.7508" lon="1.73442">
        <ele>166.60000610352</ele>
        <time>2012-07-31T13:42:42.000Z</time>
      </trkpt>
      <trkpt lat="48.75079" lon="1.73434">
        <ele>167.39999389648</ele>
        <time>2012-07-31T13:42:49.000Z</time>
      </trkpt>
      <trkpt lat="48.75078" lon="1.73434">
        <ele>167.39999389648</ele>
        <time>2012-07-31T13:42:51.000Z</time>
      </trkpt>
      <trkpt lat="48.75072" lon="1.73427">
        <ele>168.80000305176</ele>
        <time>2012-07-31T13:43:00.000Z</time>
      </trkpt>
      <trkpt lat="48.75066" lon="1.73421">
        <ele>170</ele>
        <time>2012-07-31T13:43:04.000Z</time>
      </trkpt>
      <trkpt lat="48.7506" lon="1.73414">
        <ele>171.19999694824</ele>
        <time>2012-07-31T13:43:10.000Z</time>
      </trkpt>
      <trkpt lat="48.75053" lon="1.73407">
        <ele>172.39999389648</ele>
        <time>2012-07-31T13:43:16.000Z</time>
      </trkpt>
      <trkpt lat="48.75048" lon="1.73398">
        <ele>173.60000610352</ele>
        <time>2012-07-31T13:43:22.000Z</time>
      </trkpt>
      <trkpt lat="48.75042" lon="1.73396">
        <ele>174.39999389648</ele>
        <time>2012-07-31T13:43:28.000Z</time>
      </trkpt>
      <trkpt lat="48.7504" lon="1.73394">
        <ele>174.60000610352</ele>
        <time>2012-07-31T13:43:30.000Z</time>
      </trkpt>
      <trkpt lat="48.75035" lon="1.7339">
        <ele>175.39999389648</ele>
        <time>2012-07-31T13:43:36.000Z</time>
      </trkpt>
      <trkpt lat="48.75031" lon="1.73388">
        <ele>176</ele>
        <time>2012-07-31T13:43:40.000Z</time>
      </trkpt>
      <trkpt lat="48.75026" lon="1.73385">
        <ele>176.80000305176</ele>
        <time>2012-07-31T13:43:45.000Z</time>
      </trkpt>
      <trkpt lat="48.75019" lon="1.73381">
        <ele>177.60000610352</ele>
        <time>2012-07-31T13:43:52.000Z</time>
      </trkpt>
      <trkpt lat="48.75013" lon="1.73381">
        <ele>178.19999694824</ele>
        <time>2012-07-31T13:43:57.000Z</time>
      </trkpt>
      <trkpt lat="48.7501" lon="1.73381">
        <ele>178.60000610352</ele>
        <time>2012-07-31T13:44:00.000Z</time>
      </trkpt>
      <trkpt lat="48.75007" lon="1.73379">
        <ele>179</ele>
        <time>2012-07-31T13:44:03.000Z</time>
      </trkpt>
      <trkpt lat="48.75002" lon="1.73376">
        <ele>179.80000305176</ele>
        <time>2012-07-31T13:44:10.000Z</time>
      </trkpt>
      <trkpt lat="48.74995" lon="1.73375">
        <ele>180.19999694824</ele>
        <time>2012-07-31T13:44:15.000Z</time>
      </trkpt>
      <trkpt lat="48.74993" lon="1.73374">
        <ele>180.39999389648</ele>
        <time>2012-07-31T13:44:16.000Z</time>
      </trkpt>
      <trkpt lat="48.74985" lon="1.73371">
        <ele>180.80000305176</ele>
        <time>2012-07-31T13:44:22.000Z</time>
      </trkpt>
      <trkpt lat="48.74979" lon="1.73365">
        <ele>181.19999694824</ele>
        <time>2012-07-31T13:44:26.000Z</time>
      </trkpt>
      <trkpt lat="48.7497" lon="1.73363">
        <ele>181.60000610352</ele>
        <time>2012-07-31T13:44:35.000Z</time>
      </trkpt>
      <trkpt lat="48.74962" lon="1.73361">
        <ele>182</ele>
        <time>2012-07-31T13:44:42.000Z</time>
      </trkpt>
      <trkpt lat="48.74953" lon="1.73358">
        <ele>182.39999389648</ele>
        <time>2012-07-31T13:44:49.000Z</time>
      </trkpt>
      <trkpt lat="48.74952" lon="1.73357">
        <ele>182.39999389648</ele>
        <time>2012-07-31T13:44:50.000Z</time>
      </trkpt>
      <trkpt lat="48.74948" lon="1.73355">
        <ele>182.60000610352</ele>
        <time>2012-07-31T13:44:55.000Z</time>
      </trkpt>
      <trkpt lat="48.74943" lon="1.73354">
        <ele>183</ele>
        <time>2012-07-31T13:44:59.000Z</time>
      </trkpt>
      <trkpt lat="48.74937" lon="1.73355">
        <ele>183.19999694824</ele>
        <time>2012-07-31T13:45:04.000Z</time>
      </trkpt>
      <trkpt lat="48.74931" lon="1.73355">
        <ele>183.39999389648</ele>
        <time>2012-07-31T13:45:08.000Z</time>
      </trkpt>
      <trkpt lat="48.74923" lon="1.73351">
        <ele>183.80000305176</ele>
        <time>2012-07-31T13:45:14.000Z</time>
      </trkpt>
      <trkpt lat="48.74921" lon="1.73349">
        <ele>183.80000305176</ele>
        <time>2012-07-31T13:45:16.000Z</time>
      </trkpt>
      <trkpt lat="48.74913" lon="1.73344">
        <ele>183.80000305176</ele>
        <time>2012-07-31T13:45:23.000Z</time>
      </trkpt>
      <trkpt lat="48.74907" lon="1.73341">
        <ele>183.39999389648</ele>
        <time>2012-07-31T13:45:28.000Z</time>
      </trkpt>
      <trkpt lat="48.74897" lon="1.73339">
        <ele>182.80000305176</ele>
        <time>2012-07-31T13:45:35.000Z</time>
      </trkpt>
      <trkpt lat="48.74896" lon="1.73338">
        <ele>182.80000305176</ele>
        <time>2012-07-31T13:45:36.000Z</time>
      </trkpt>
      <trkpt lat="48.74885" lon="1.73334">
        <ele>182.19999694824</ele>
        <time>2012-07-31T13:45:43.000Z</time>
      </trkpt>
      <trkpt lat="48.74879" lon="1.7333">
        <ele>181.80000305176</ele>
        <time>2012-07-31T13:45:48.000Z</time>
      </trkpt>
      <trkpt lat="48.74861" lon="1.73325">
        <ele>181</ele>
        <time>2012-07-31T13:45:56.000Z</time>
      </trkpt>
      <trkpt lat="48.74851" lon="1.73321">
        <ele>180.60000610352</ele>
        <time>2012-07-31T13:46:01.000Z</time>
      </trkpt>
      <trkpt lat="48.74844" lon="1.73319">
        <ele>180.39999389648</ele>
        <time>2012-07-31T13:46:09.000Z</time>
      </trkpt>
      <trkpt lat="48.7483" lon="1.73311">
        <ele>180.39999389648</ele>
        <time>2012-07-31T13:46:20.000Z</time>
      </trkpt>
      <trkpt lat="48.74818" lon="1.73306">
        <ele>180.80000305176</ele>
        <time>2012-07-31T13:46:29.000Z</time>
      </trkpt>
      <trkpt lat="48.74806" lon="1.73301">
        <ele>181.19999694824</ele>
        <time>2012-07-31T13:46:39.000Z</time>
      </trkpt>
      <trkpt lat="48.74791" lon="1.73294">
        <ele>181.60000610352</ele>
        <time>2012-07-31T13:46:51.000Z</time>
      </trkpt>
      <trkpt lat="48.74779" lon="1.7329">
        <ele>182</ele>
        <time>2012-07-31T13:47:00.000Z</time>
      </trkpt>
      <trkpt lat="48.74769" lon="1.73285">
        <ele>182</ele>
        <time>2012-07-31T13:47:08.000Z</time>
      </trkpt>
      <trkpt lat="48.74763" lon="1.73286">
        <ele>182</ele>
        <time>2012-07-31T13:47:13.000Z</time>
      </trkpt>
      <trkpt lat="48.74754" lon="1.73287">
        <ele>182</ele>
        <time>2012-07-31T13:47:19.000Z</time>
      </trkpt>
      <trkpt lat="48.74751" lon="1.73284">
        <ele>182.19999694824</ele>
        <time>2012-07-31T13:47:22.000Z</time>
      </trkpt>
      <trkpt lat="48.74739" lon="1.73281">
        <ele>182.19999694824</ele>
        <time>2012-07-31T13:47:31.000Z</time>
      </trkpt>
      <trkpt lat="48.74728" lon="1.73278">
        <ele>182.19999694824</ele>
        <time>2012-07-31T13:47:39.000Z</time>
      </trkpt>
      <trkpt lat="48.74716" lon="1.73275">
        <ele>182.19999694824</ele>
        <time>2012-07-31T13:47:48.000Z</time>
      </trkpt>
      <trkpt lat="48.74704" lon="1.73272">
        <ele>182</ele>
        <time>2012-07-31T13:47:57.000Z</time>
      </trkpt>
      <trkpt lat="48.74693" lon="1.73265">
        <ele>182</ele>
        <time>2012-07-31T13:48:05.000Z</time>
      </trkpt>
      <trkpt lat="48.74681" lon="1.7326">
        <ele>182</ele>
        <time>2012-07-31T13:48:13.000Z</time>
      </trkpt>
      <trkpt lat="48.74669" lon="1.73257">
        <ele>182</ele>
        <time>2012-07-31T13:48:22.000Z</time>
      </trkpt>
      <trkpt lat="48.74658" lon="1.73255">
        <ele>182.19999694824</ele>
        <time>2012-07-31T13:48:31.000Z</time>
      </trkpt>
      <trkpt lat="48.74648" lon="1.7325">
        <ele>182.60000610352</ele>
        <time>2012-07-31T13:48:40.000Z</time>
      </trkpt>
      <trkpt lat="48.74644" lon="1.73245">
        <ele>182.60000610352</ele>
        <time>2012-07-31T13:48:46.000Z</time>
      </trkpt>
      <trkpt lat="48.74635" lon="1.73243">
        <ele>183</ele>
        <time>2012-07-31T13:48:53.000Z</time>
      </trkpt>
      <trkpt lat="48.74624" lon="1.7324">
        <ele>183.19999694824</ele>
        <time>2012-07-31T13:49:00.000Z</time>
      </trkpt>
      <trkpt lat="48.74614" lon="1.73236">
        <ele>183.39999389648</ele>
        <time>2012-07-31T13:49:08.000Z</time>
      </trkpt>
      <trkpt lat="48.74606" lon="1.73234">
        <ele>183.39999389648</ele>
        <time>2012-07-31T13:49:14.000Z</time>
      </trkpt>
      <trkpt lat="48.74598" lon="1.7323">
        <ele>183.39999389648</ele>
        <time>2012-07-31T13:49:20.000Z</time>
      </trkpt>
      <trkpt lat="48.74587" lon="1.73227">
        <ele>183.60000610352</ele>
        <time>2012-07-31T13:49:26.000Z</time>
      </trkpt>
      <trkpt lat="48.74568" lon="1.73222">
        <ele>182.60000610352</ele>
        <time>2012-07-31T13:49:34.000Z</time>
      </trkpt>
      <trkpt lat="48.74556" lon="1.73215">
        <ele>181.60000610352</ele>
        <time>2012-07-31T13:49:42.000Z</time>
      </trkpt>
      <trkpt lat="48.74543" lon="1.73209">
        <ele>180.60000610352</ele>
        <time>2012-07-31T13:49:51.000Z</time>
      </trkpt>
      <trkpt lat="48.74534" lon="1.73211">
        <ele>180.19999694824</ele>
        <time>2012-07-31T13:49:57.000Z</time>
      </trkpt>
      <trkpt lat="48.74523" lon="1.73208">
        <ele>179.60000610352</ele>
        <time>2012-07-31T13:50:05.000Z</time>
      </trkpt>
      <trkpt lat="48.74516" lon="1.73205">
        <ele>179.19999694824</ele>
        <time>2012-07-31T13:50:11.000Z</time>
      </trkpt>
      <trkpt lat="48.74507" lon="1.73203">
        <ele>178.60000610352</ele>
        <time>2012-07-31T13:50:17.000Z</time>
      </trkpt>
      <trkpt lat="48.74498" lon="1.73198">
        <ele>178</ele>
        <time>2012-07-31T13:50:25.000Z</time>
      </trkpt>
      <trkpt lat="48.74494" lon="1.73195">
        <ele>177.39999389648</ele>
        <time>2012-07-31T13:50:29.000Z</time>
      </trkpt>
      <trkpt lat="48.74485" lon="1.73188">
        <ele>176.39999389648</ele>
        <time>2012-07-31T13:50:37.000Z</time>
      </trkpt>
      <trkpt lat="48.74475" lon="1.73185">
        <ele>175.19999694824</ele>
        <time>2012-07-31T13:50:44.000Z</time>
      </trkpt>
      <trkpt lat="48.74463" lon="1.73179">
        <ele>174</ele>
        <time>2012-07-31T13:50:53.000Z</time>
      </trkpt>
      <trkpt lat="48.74452" lon="1.73174">
        <ele>172.60000610352</ele>
        <time>2012-07-31T13:51:02.000Z</time>
      </trkpt>
      <trkpt lat="48.74444" lon="1.73171">
        <ele>171.80000305176</ele>
        <time>2012-07-31T13:51:08.000Z</time>
      </trkpt>
      <trkpt lat="48.74437" lon="1.73169">
        <ele>171</ele>
        <time>2012-07-31T13:51:14.000Z</time>
      </trkpt>
      <trkpt lat="48.74424" lon="1.73165">
        <ele>169.80000305176</ele>
        <time>2012-07-31T13:51:23.000Z</time>
      </trkpt>
      <trkpt lat="48.74415" lon="1.73158">
        <ele>169.19999694824</ele>
        <time>2012-07-31T13:51:31.000Z</time>
      </trkpt>
      <trkpt lat="48.74408" lon="1.73154">
        <ele>168.60000610352</ele>
        <time>2012-07-31T13:51:37.000Z</time>
      </trkpt>
      <trkpt lat="48.74399" lon="1.7315">
        <ele>167.60000610352</ele>
        <time>2012-07-31T13:51:44.000Z</time>
      </trkpt>
      <trkpt lat="48.74391" lon="1.73146">
        <ele>166.80000305176</ele>
        <time>2012-07-31T13:51:51.000Z</time>
      </trkpt>
      <trkpt lat="48.7438" lon="1.73144">
        <ele>165.60000610352</ele>
        <time>2012-07-31T13:51:58.000Z</time>
      </trkpt>
      <trkpt lat="48.74378" lon="1.73144">
        <ele>165.19999694824</ele>
        <time>2012-07-31T13:52:00.000Z</time>
      </trkpt>
      <trkpt lat="48.74367" lon="1.73143">
        <ele>163.80000305176</ele>
        <time>2012-07-31T13:52:07.000Z</time>
      </trkpt>
      <trkpt lat="48.74364" lon="1.73142">
        <ele>163.60000610352</ele>
        <time>2012-07-31T13:52:09.000Z</time>
      </trkpt>
      <trkpt lat="48.7436" lon="1.73136">
        <ele>163</ele>
        <time>2012-07-31T13:52:13.000Z</time>
      </trkpt>
      <trkpt lat="48.74343" lon="1.73129">
        <ele>160.80000305176</ele>
        <time>2012-07-31T13:52:24.000Z</time>
      </trkpt>
      <trkpt lat="48.74331" lon="1.73124">
        <ele>159.39999389648</ele>
        <time>2012-07-31T13:52:32.000Z</time>
      </trkpt>
      <trkpt lat="48.74321" lon="1.7312">
        <ele>159</ele>
        <time>2012-07-31T13:52:40.000Z</time>
      </trkpt>
      <trkpt lat="48.74312" lon="1.73116">
        <ele>158.60000610352</ele>
        <time>2012-07-31T13:52:47.000Z</time>
      </trkpt>
      <trkpt lat="48.74304" lon="1.73113">
        <ele>158.19999694824</ele>
        <time>2012-07-31T13:52:53.000Z</time>
      </trkpt>
      <trkpt lat="48.74288" lon="1.73108">
        <ele>157.39999389648</ele>
        <time>2012-07-31T13:53:03.000Z</time>
      </trkpt>
      <trkpt lat="48.74272" lon="1.73101">
        <ele>156.60000610352</ele>
        <time>2012-07-31T13:53:14.000Z</time>
      </trkpt>
      <trkpt lat="48.74257" lon="1.73096">
        <ele>155.80000305176</ele>
        <time>2012-07-31T13:53:24.000Z</time>
      </trkpt>
      <trkpt lat="48.74244" lon="1.7309">
        <ele>155.19999694824</ele>
        <time>2012-07-31T13:53:34.000Z</time>
      </trkpt>
      <trkpt lat="48.74231" lon="1.73086">
        <ele>154.60000610352</ele>
        <time>2012-07-31T13:53:43.000Z</time>
      </trkpt>
      <trkpt lat="48.74219" lon="1.73082">
        <ele>154.19999694824</ele>
        <time>2012-07-31T13:53:53.000Z</time>
      </trkpt>
      <trkpt lat="48.74208" lon="1.73077">
        <ele>154</ele>
        <time>2012-07-31T13:54:01.000Z</time>
      </trkpt>
      <trkpt lat="48.74194" lon="1.73071">
        <ele>153.60000610352</ele>
        <time>2012-07-31T13:54:11.000Z</time>
      </trkpt>
      <trkpt lat="48.74184" lon="1.73067">
        <ele>153.39999389648</ele>
        <time>2012-07-31T13:54:18.000Z</time>
      </trkpt>
      <trkpt lat="48.7417" lon="1.73062">
        <ele>152.80000305176</ele>
        <time>2012-07-31T13:54:28.000Z</time>
      </trkpt>
      <trkpt lat="48.74156" lon="1.73057">
        <ele>152.19999694824</ele>
        <time>2012-07-31T13:54:39.000Z</time>
      </trkpt>
      <trkpt lat="48.74149" lon="1.73055">
        <ele>152</ele>
        <time>2012-07-31T13:54:44.000Z</time>
      </trkpt>
      <trkpt lat="48.74136" lon="1.73051">
        <ele>151.39999389648</ele>
        <time>2012-07-31T13:54:53.000Z</time>
      </trkpt>
      <trkpt lat="48.74127" lon="1.73048">
        <ele>151</ele>
        <time>2012-07-31T13:55:00.000Z</time>
      </trkpt>
      <trkpt lat="48.74112" lon="1.73043">
        <ele>150.19999694824</ele>
        <time>2012-07-31T13:55:10.000Z</time>
      </trkpt>
      <trkpt lat="48.74101" lon="1.73037">
        <ele>149.60000610352</ele>
        <time>2012-07-31T13:55:19.000Z</time>
      </trkpt>
      <trkpt lat="48.74094" lon="1.73036">
        <ele>149.39999389648</ele>
        <time>2012-07-31T13:55:24.000Z</time>
      </trkpt>
      <trkpt lat="48.74087" lon="1.73044">
        <ele>149.19999694824</ele>
        <time>2012-07-31T13:55:31.000Z</time>
      </trkpt>
      <trkpt lat="48.74084" lon="1.73055">
        <ele>149.39999389648</ele>
        <time>2012-07-31T13:55:37.000Z</time>
      </trkpt>
      <trkpt lat="48.74079" lon="1.73072">
        <ele>149.60000610352</ele>
        <time>2012-07-31T13:55:46.000Z</time>
      </trkpt>
      <trkpt lat="48.74076" lon="1.7309">
        <ele>149.80000305176</ele>
        <time>2012-07-31T13:55:55.000Z</time>
      </trkpt>
      <trkpt lat="48.74073" lon="1.73103">
        <ele>149.80000305176</ele>
        <time>2012-07-31T13:56:02.000Z</time>
      </trkpt>
      <trkpt lat="48.74067" lon="1.73122">
        <ele>149.80000305176</ele>
        <time>2012-07-31T13:56:12.000Z</time>
      </trkpt>
      <trkpt lat="48.74063" lon="1.73137">
        <ele>150</ele>
        <time>2012-07-31T13:56:20.000Z</time>
      </trkpt>
      <trkpt lat="48.7406" lon="1.73153">
        <ele>150</ele>
        <time>2012-07-31T13:56:28.000Z</time>
      </trkpt>
      <trkpt lat="48.74057" lon="1.73167">
        <ele>150</ele>
        <time>2012-07-31T13:56:35.000Z</time>
      </trkpt>
      <trkpt lat="48.74051" lon="1.73184">
        <ele>150.19999694824</ele>
        <time>2012-07-31T13:56:44.000Z</time>
      </trkpt>
      <trkpt lat="48.74044" lon="1.73211">
        <ele>150.80000305176</ele>
        <time>2012-07-31T13:56:57.000Z</time>
      </trkpt>
      <trkpt lat="48.7404" lon="1.73228">
        <ele>151.19999694824</ele>
        <time>2012-07-31T13:57:05.000Z</time>
      </trkpt>
      <trkpt lat="48.74037" lon="1.73244">
        <ele>151.60000610352</ele>
        <time>2012-07-31T13:57:13.000Z</time>
      </trkpt>
      <trkpt lat="48.74035" lon="1.73256">
        <ele>151.80000305176</ele>
        <time>2012-07-31T13:57:19.000Z</time>
      </trkpt>
      <trkpt lat="48.74031" lon="1.73275">
        <ele>152.19999694824</ele>
        <time>2012-07-31T13:57:28.000Z</time>
      </trkpt>
      <trkpt lat="48.74025" lon="1.73291">
        <ele>152.39999389648</ele>
        <time>2012-07-31T13:57:36.000Z</time>
      </trkpt>
      <trkpt lat="48.74022" lon="1.73308">
        <ele>152.80000305176</ele>
        <time>2012-07-31T13:57:44.000Z</time>
      </trkpt>
      <trkpt lat="48.74017" lon="1.73325">
        <ele>153.19999694824</ele>
        <time>2012-07-31T13:57:52.000Z</time>
      </trkpt>
      <trkpt lat="48.74014" lon="1.73338">
        <ele>153.60000610352</ele>
        <time>2012-07-31T13:57:58.000Z</time>
      </trkpt>
      <trkpt lat="48.74011" lon="1.73351">
        <ele>154.60000610352</ele>
        <time>2012-07-31T13:58:03.000Z</time>
      </trkpt>
      <trkpt lat="48.74006" lon="1.73371">
        <ele>156.19999694824</ele>
        <time>2012-07-31T13:58:09.000Z</time>
      </trkpt>
      <trkpt lat="48.74002" lon="1.73385">
        <ele>157.19999694824</ele>
        <time>2012-07-31T13:58:17.000Z</time>
      </trkpt>
      <trkpt lat="48.73999" lon="1.73392">
        <ele>158</ele>
        <time>2012-07-31T13:58:22.000Z</time>
      </trkpt>
      <trkpt lat="48.73994" lon="1.73409">
        <ele>159.39999389648</ele>
        <time>2012-07-31T13:58:31.000Z</time>
      </trkpt>
      <trkpt lat="48.7399" lon="1.73423">
        <ele>160.60000610352</ele>
        <time>2012-07-31T13:58:39.000Z</time>
      </trkpt>
      <trkpt lat="48.73986" lon="1.73439">
        <ele>161.80000305176</ele>
        <time>2012-07-31T13:58:48.000Z</time>
      </trkpt>
      <trkpt lat="48.73984" lon="1.73448">
        <ele>162.60000610352</ele>
        <time>2012-07-31T13:58:53.000Z</time>
      </trkpt>
      <trkpt lat="48.73982" lon="1.73456">
        <ele>163.19999694824</ele>
        <time>2012-07-31T13:58:57.000Z</time>
      </trkpt>
      <trkpt lat="48.73979" lon="1.73469">
        <ele>164.39999389648</ele>
        <time>2012-07-31T13:59:04.000Z</time>
      </trkpt>
      <trkpt lat="48.73978" lon="1.73476">
        <ele>165</ele>
        <time>2012-07-31T13:59:08.000Z</time>
      </trkpt>
      <trkpt lat="48.73977" lon="1.73484">
        <ele>165.60000610352</ele>
        <time>2012-07-31T13:59:13.000Z</time>
      </trkpt>
      <trkpt lat="48.73972" lon="1.73505">
        <ele>167.39999389648</ele>
        <time>2012-07-31T13:59:22.000Z</time>
      </trkpt>
      <trkpt lat="48.73971" lon="1.73509">
        <ele>167.60000610352</ele>
        <time>2012-07-31T13:59:24.000Z</time>
      </trkpt>
      <trkpt lat="48.73969" lon="1.73518">
        <ele>168.39999389648</ele>
        <time>2012-07-31T13:59:30.000Z</time>
      </trkpt>
      <trkpt lat="48.73968" lon="1.73532">
        <ele>169.39999389648</ele>
        <time>2012-07-31T13:59:37.000Z</time>
      </trkpt>
      <trkpt lat="48.73967" lon="1.73545">
        <ele>170.39999389648</ele>
        <time>2012-07-31T13:59:44.000Z</time>
      </trkpt>
      <trkpt lat="48.73965" lon="1.73553">
        <ele>171.19999694824</ele>
        <time>2012-07-31T13:59:49.000Z</time>
      </trkpt>
      <trkpt lat="48.7396" lon="1.73568">
        <ele>172.39999389648</ele>
        <time>2012-07-31T13:59:57.000Z</time>
      </trkpt>
      <trkpt lat="48.73956" lon="1.73586">
        <ele>173.60000610352</ele>
        <time>2012-07-31T14:00:07.000Z</time>
      </trkpt>
      <trkpt lat="48.73954" lon="1.73591">
        <ele>174</ele>
        <time>2012-07-31T14:00:10.000Z</time>
      </trkpt>
      <trkpt lat="48.73948" lon="1.73605">
        <ele>174.80000305176</ele>
        <time>2012-07-31T14:00:19.000Z</time>
      </trkpt>
      <trkpt lat="48.73945" lon="1.73617">
        <ele>175.39999389648</ele>
        <time>2012-07-31T14:00:26.000Z</time>
      </trkpt>
      <trkpt lat="48.73941" lon="1.73631">
        <ele>176</ele>
        <time>2012-07-31T14:00:33.000Z</time>
      </trkpt>
      <trkpt lat="48.73939" lon="1.73641">
        <ele>176.39999389648</ele>
        <time>2012-07-31T14:00:38.000Z</time>
      </trkpt>
      <trkpt lat="48.73936" lon="1.73657">
        <ele>177.19999694824</ele>
        <time>2012-07-31T14:00:46.000Z</time>
      </trkpt>
      <trkpt lat="48.73932" lon="1.73671">
        <ele>177.60000610352</ele>
        <time>2012-07-31T14:00:54.000Z</time>
      </trkpt>
      <trkpt lat="48.73927" lon="1.73687">
        <ele>177.80000305176</ele>
        <time>2012-07-31T14:01:02.000Z</time>
      </trkpt>
      <trkpt lat="48.73922" lon="1.73706">
        <ele>178</ele>
        <time>2012-07-31T14:01:13.000Z</time>
      </trkpt>
      <trkpt lat="48.73918" lon="1.73719">
        <ele>178</ele>
        <time>2012-07-31T14:01:19.000Z</time>
      </trkpt>
      <trkpt lat="48.73915" lon="1.73733">
        <ele>178</ele>
        <time>2012-07-31T14:01:27.000Z</time>
      </trkpt>
      <trkpt lat="48.73911" lon="1.73747">
        <ele>178.39999389648</ele>
        <time>2012-07-31T14:01:34.000Z</time>
      </trkpt>
      <trkpt lat="48.73908" lon="1.73759">
        <ele>178.60000610352</ele>
        <time>2012-07-31T14:01:40.000Z</time>
      </trkpt>
      <trkpt lat="48.73905" lon="1.73774">
        <ele>179.19999694824</ele>
        <time>2012-07-31T14:01:48.000Z</time>
      </trkpt>
      <trkpt lat="48.73903" lon="1.73787">
        <ele>179.39999389648</ele>
        <time>2012-07-31T14:01:54.000Z</time>
      </trkpt>
      <trkpt lat="48.73902" lon="1.73789">
        <ele>179.39999389648</ele>
        <time>2012-07-31T14:01:55.000Z</time>
      </trkpt>
      <trkpt lat="48.73898" lon="1.738">
        <ele>179.80000305176</ele>
        <time>2012-07-31T14:02:01.000Z</time>
      </trkpt>
      <trkpt lat="48.73897" lon="1.73802">
        <ele>179.80000305176</ele>
        <time>2012-07-31T14:02:02.000Z</time>
      </trkpt>
      <trkpt lat="48.73896" lon="1.73822">
        <ele>180.19999694824</ele>
        <time>2012-07-31T14:02:12.000Z</time>
      </trkpt>
      <trkpt lat="48.73896" lon="1.73838">
        <ele>180.19999694824</ele>
        <time>2012-07-31T14:02:20.000Z</time>
      </trkpt>
      <trkpt lat="48.73892" lon="1.73853">
        <ele>179.80000305176</ele>
        <time>2012-07-31T14:02:27.000Z</time>
      </trkpt>
      <trkpt lat="48.73891" lon="1.73862">
        <ele>179.60000610352</ele>
        <time>2012-07-31T14:02:32.000Z</time>
      </trkpt>
      <trkpt lat="48.73886" lon="1.73875">
        <ele>179.19999694824</ele>
        <time>2012-07-31T14:02:38.000Z</time>
      </trkpt>
      <trkpt lat="48.73884" lon="1.73887">
        <ele>178.80000305176</ele>
        <time>2012-07-31T14:02:44.000Z</time>
      </trkpt>
      <trkpt lat="48.73882" lon="1.73895">
        <ele>178.39999389648</ele>
        <time>2012-07-31T14:02:48.000Z</time>
      </trkpt>
      <trkpt lat="48.73877" lon="1.73913">
        <ele>177.60000610352</ele>
        <time>2012-07-31T14:02:58.000Z</time>
      </trkpt>
      <trkpt lat="48.73876" lon="1.7393">
        <ele>176.60000610352</ele>
        <time>2012-07-31T14:03:04.000Z</time>
      </trkpt>
      <trkpt lat="48.73874" lon="1.73942">
        <ele>175.39999389648</ele>
        <time>2012-07-31T14:03:10.000Z</time>
      </trkpt>
      <trkpt lat="48.73871" lon="1.73953">
        <ele>174.39999389648</ele>
        <time>2012-07-31T14:03:15.000Z</time>
      </trkpt>
      <trkpt lat="48.73866" lon="1.73971">
        <ele>172.60000610352</ele>
        <time>2012-07-31T14:03:24.000Z</time>
      </trkpt>
      <trkpt lat="48.7386" lon="1.73985">
        <ele>171.19999694824</ele>
        <time>2012-07-31T14:03:31.000Z</time>
      </trkpt>
      <trkpt lat="48.73855" lon="1.74001">
        <ele>169.60000610352</ele>
        <time>2012-07-31T14:03:39.000Z</time>
      </trkpt>
      <trkpt lat="48.73852" lon="1.74012">
        <ele>168.60000610352</ele>
        <time>2012-07-31T14:03:46.000Z</time>
      </trkpt>
      <trkpt lat="48.73849" lon="1.74024">
        <ele>167.60000610352</ele>
        <time>2012-07-31T14:03:53.000Z</time>
      </trkpt>
      <trkpt lat="48.73846" lon="1.74042">
        <ele>166.39999389648</ele>
        <time>2012-07-31T14:04:01.000Z</time>
      </trkpt>
      <trkpt lat="48.73841" lon="1.74058">
        <ele>165</ele>
        <time>2012-07-31T14:04:09.000Z</time>
      </trkpt>
      <trkpt lat="48.73837" lon="1.74081">
        <ele>163.39999389648</ele>
        <time>2012-07-31T14:04:19.000Z</time>
      </trkpt>
      <trkpt lat="48.73835" lon="1.74093">
        <ele>162.60000610352</ele>
        <time>2012-07-31T14:04:24.000Z</time>
      </trkpt>
      <trkpt lat="48.7383" lon="1.74112">
        <ele>161.80000305176</ele>
        <time>2012-07-31T14:04:34.000Z</time>
      </trkpt>
      <trkpt lat="48.73828" lon="1.7413">
        <ele>161</ele>
        <time>2012-07-31T14:04:42.000Z</time>
      </trkpt>
      <trkpt lat="48.73823" lon="1.74148">
        <ele>160.19999694824</ele>
        <time>2012-07-31T14:04:51.000Z</time>
      </trkpt>
      <trkpt lat="48.73818" lon="1.7417">
        <ele>159.60000610352</ele>
        <time>2012-07-31T14:05:01.000Z</time>
      </trkpt>
      <trkpt lat="48.73813" lon="1.74189">
        <ele>159.39999389648</ele>
        <time>2012-07-31T14:05:09.000Z</time>
      </trkpt>
      <trkpt lat="48.73807" lon="1.74212">
        <ele>159.19999694824</ele>
        <time>2012-07-31T14:05:18.000Z</time>
      </trkpt>
      <trkpt lat="48.73803" lon="1.74231">
        <ele>159</ele>
        <time>2012-07-31T14:05:26.000Z</time>
      </trkpt>
      <trkpt lat="48.73799" lon="1.74246">
        <ele>158.60000610352</ele>
        <time>2012-07-31T14:05:33.000Z</time>
      </trkpt>
      <trkpt lat="48.73799" lon="1.74249">
        <ele>158.60000610352</ele>
        <time>2012-07-31T14:05:35.000Z</time>
      </trkpt>
      <trkpt lat="48.73796" lon="1.74266">
        <ele>158.19999694824</ele>
        <time>2012-07-31T14:05:43.000Z</time>
      </trkpt>
      <trkpt lat="48.73793" lon="1.74275">
        <ele>158</ele>
        <time>2012-07-31T14:05:47.000Z</time>
      </trkpt>
      <trkpt lat="48.7379" lon="1.74289">
        <ele>157.60000610352</ele>
        <time>2012-07-31T14:05:54.000Z</time>
      </trkpt>
      <trkpt lat="48.7379" lon="1.74292">
        <ele>157.39999389648</ele>
        <time>2012-07-31T14:05:55.000Z</time>
      </trkpt>
      <trkpt lat="48.73786" lon="1.74307">
        <ele>156.80000305176</ele>
        <time>2012-07-31T14:06:02.000Z</time>
      </trkpt>
      <trkpt lat="48.73785" lon="1.74312">
        <ele>156.80000305176</ele>
        <time>2012-07-31T14:06:04.000Z</time>
      </trkpt>
      <trkpt lat="48.73782" lon="1.74322">
        <ele>156.19999694824</ele>
        <time>2012-07-31T14:06:09.000Z</time>
      </trkpt>
      <trkpt lat="48.73777" lon="1.7434">
        <ele>155.39999389648</ele>
        <time>2012-07-31T14:06:18.000Z</time>
      </trkpt>
      <trkpt lat="48.73774" lon="1.74358">
        <ele>154.80000305176</ele>
        <time>2012-07-31T14:06:25.000Z</time>
      </trkpt>
      <trkpt lat="48.73772" lon="1.74376">
        <ele>154.39999389648</ele>
        <time>2012-07-31T14:06:33.000Z</time>
      </trkpt>
      <trkpt lat="48.7377" lon="1.74392">
        <ele>153.80000305176</ele>
        <time>2012-07-31T14:06:40.000Z</time>
      </trkpt>
      <trkpt lat="48.73764" lon="1.74404">
        <ele>153.19999694824</ele>
        <time>2012-07-31T14:06:45.000Z</time>
      </trkpt>
      <trkpt lat="48.7376" lon="1.74417">
        <ele>152.60000610352</ele>
        <time>2012-07-31T14:06:50.000Z</time>
      </trkpt>
      <trkpt lat="48.73757" lon="1.74433">
        <ele>152.80000305176</ele>
        <time>2012-07-31T14:06:58.000Z</time>
      </trkpt>
      <trkpt lat="48.73755" lon="1.74451">
        <ele>153.19999694824</ele>
        <time>2012-07-31T14:07:07.000Z</time>
      </trkpt>
      <trkpt lat="48.73751" lon="1.74469">
        <ele>153.39999389648</ele>
        <time>2012-07-31T14:07:16.000Z</time>
      </trkpt>
      <trkpt lat="48.73747" lon="1.74487">
        <ele>153.60000610352</ele>
        <time>2012-07-31T14:07:24.000Z</time>
      </trkpt>
      <trkpt lat="48.73743" lon="1.74505">
        <ele>153.60000610352</ele>
        <time>2012-07-31T14:07:33.000Z</time>
      </trkpt>
      <trkpt lat="48.73742" lon="1.74509">
        <ele>153.60000610352</ele>
        <time>2012-07-31T14:07:35.000Z</time>
      </trkpt>
      <trkpt lat="48.73737" lon="1.74524">
        <ele>153.39999389648</ele>
        <time>2012-07-31T14:07:42.000Z</time>
      </trkpt>
      <trkpt lat="48.73737" lon="1.74526">
        <ele>153.39999389648</ele>
        <time>2012-07-31T14:07:43.000Z</time>
      </trkpt>
      <trkpt lat="48.73732" lon="1.74544">
        <ele>153.19999694824</ele>
        <time>2012-07-31T14:07:51.000Z</time>
      </trkpt>
      <trkpt lat="48.73729" lon="1.74559">
        <ele>153.19999694824</ele>
        <time>2012-07-31T14:07:58.000Z</time>
      </trkpt>
      <trkpt lat="48.73727" lon="1.74575">
        <ele>153.19999694824</ele>
        <time>2012-07-31T14:08:05.000Z</time>
      </trkpt>
      <trkpt lat="48.73724" lon="1.74588">
        <ele>153.19999694824</ele>
        <time>2012-07-31T14:08:11.000Z</time>
      </trkpt>
      <trkpt lat="48.7372" lon="1.74603">
        <ele>153</ele>
        <time>2012-07-31T14:08:18.000Z</time>
      </trkpt>
      <trkpt lat="48.73717" lon="1.74621">
        <ele>153</ele>
        <time>2012-07-31T14:08:26.000Z</time>
      </trkpt>
      <trkpt lat="48.73712" lon="1.74643">
        <ele>153</ele>
        <time>2012-07-31T14:08:37.000Z</time>
      </trkpt>
      <trkpt lat="48.73707" lon="1.74657">
        <ele>152.80000305176</ele>
        <time>2012-07-31T14:08:45.000Z</time>
      </trkpt>
      <trkpt lat="48.737" lon="1.74659">
        <ele>152.60000610352</ele>
        <time>2012-07-31T14:08:50.000Z</time>
      </trkpt>
      <trkpt lat="48.73697" lon="1.74658">
        <ele>152.39999389648</ele>
        <time>2012-07-31T14:08:52.000Z</time>
      </trkpt>
      <trkpt lat="48.73691" lon="1.74651">
        <ele>152</ele>
        <time>2012-07-31T14:08:57.000Z</time>
      </trkpt>
      <trkpt lat="48.73683" lon="1.74644">
        <ele>151.80000305176</ele>
        <time>2012-07-31T14:09:03.000Z</time>
      </trkpt>
      <trkpt lat="48.73682" lon="1.74643">
        <ele>151.60000610352</ele>
        <time>2012-07-31T14:09:04.000Z</time>
      </trkpt>
      <trkpt lat="48.73666" lon="1.74628">
        <ele>151</ele>
        <time>2012-07-31T14:09:17.000Z</time>
      </trkpt>
      <trkpt lat="48.73656" lon="1.74617">
        <ele>150.39999389648</ele>
        <time>2012-07-31T14:09:26.000Z</time>
      </trkpt>
      <trkpt lat="48.73644" lon="1.74606">
        <ele>149.60000610352</ele>
        <time>2012-07-31T14:09:36.000Z</time>
      </trkpt>
      <trkpt lat="48.7363" lon="1.74594">
        <ele>148.80000305176</ele>
        <time>2012-07-31T14:09:47.000Z</time>
      </trkpt>
      <trkpt lat="48.73619" lon="1.7458">
        <ele>148</ele>
        <time>2012-07-31T14:09:57.000Z</time>
      </trkpt>
      <trkpt lat="48.73608" lon="1.74569">
        <ele>147.19999694824</ele>
        <time>2012-07-31T14:10:06.000Z</time>
      </trkpt>
      <trkpt lat="48.73597" lon="1.74556">
        <ele>146.19999694824</ele>
        <time>2012-07-31T14:10:16.000Z</time>
      </trkpt>
      <trkpt lat="48.73584" lon="1.74541">
        <ele>145</ele>
        <time>2012-07-31T14:10:27.000Z</time>
      </trkpt>
      <trkpt lat="48.73572" lon="1.74527">
        <ele>144.39999389648</ele>
        <time>2012-07-31T14:10:37.000Z</time>
      </trkpt>
      <trkpt lat="48.73566" lon="1.74518">
        <ele>144</ele>
        <time>2012-07-31T14:10:43.000Z</time>
      </trkpt>
      <trkpt lat="48.73557" lon="1.74511">
        <ele>143.60000610352</ele>
        <time>2012-07-31T14:10:50.000Z</time>
      </trkpt>
      <trkpt lat="48.73548" lon="1.74503">
        <ele>143.19999694824</ele>
        <time>2012-07-31T14:10:57.000Z</time>
      </trkpt>
      <trkpt lat="48.73532" lon="1.74487">
        <ele>142.39999389648</ele>
        <time>2012-07-31T14:11:10.000Z</time>
      </trkpt>
      <trkpt lat="48.73522" lon="1.74479">
        <ele>142</ele>
        <time>2012-07-31T14:11:18.000Z</time>
      </trkpt>
      <trkpt lat="48.73512" lon="1.74467">
        <ele>141.19999694824</ele>
        <time>2012-07-31T14:11:27.000Z</time>
      </trkpt>
      <trkpt lat="48.73503" lon="1.74457">
        <ele>140.60000610352</ele>
        <time>2012-07-31T14:11:35.000Z</time>
      </trkpt>
      <trkpt lat="48.73492" lon="1.74445">
        <ele>140.19999694824</ele>
        <time>2012-07-31T14:11:44.000Z</time>
      </trkpt>
      <trkpt lat="48.73478" lon="1.74431">
        <ele>140</ele>
        <time>2012-07-31T14:11:55.000Z</time>
      </trkpt>
      <trkpt lat="48.73467" lon="1.74419">
        <ele>139.80000305176</ele>
        <time>2012-07-31T14:12:04.000Z</time>
      </trkpt>
      <trkpt lat="48.73457" lon="1.74408">
        <ele>140</ele>
        <time>2012-07-31T14:12:12.000Z</time>
      </trkpt>
      <trkpt lat="48.73446" lon="1.74395">
        <ele>140</ele>
        <time>2012-07-31T14:12:21.000Z</time>
      </trkpt>
      <trkpt lat="48.73433" lon="1.74382">
        <ele>140.19999694824</ele>
        <time>2012-07-31T14:12:31.000Z</time>
      </trkpt>
      <trkpt lat="48.73421" lon="1.74371">
        <ele>140.39999389648</ele>
        <time>2012-07-31T14:12:41.000Z</time>
      </trkpt>
      <trkpt lat="48.73412" lon="1.74364">
        <ele>140.39999389648</ele>
        <time>2012-07-31T14:12:48.000Z</time>
      </trkpt>
      <trkpt lat="48.73403" lon="1.74354">
        <ele>140.39999389648</ele>
        <time>2012-07-31T14:12:56.000Z</time>
      </trkpt>
      <trkpt lat="48.73394" lon="1.74347">
        <ele>140.39999389648</ele>
        <time>2012-07-31T14:13:04.000Z</time>
      </trkpt>
      <trkpt lat="48.73384" lon="1.74335">
        <ele>140.39999389648</ele>
        <time>2012-07-31T14:13:13.000Z</time>
      </trkpt>
      <trkpt lat="48.73373" lon="1.74324">
        <ele>140.39999389648</ele>
        <time>2012-07-31T14:13:23.000Z</time>
      </trkpt>
      <trkpt lat="48.73362" lon="1.74312">
        <ele>140.39999389648</ele>
        <time>2012-07-31T14:13:33.000Z</time>
      </trkpt>
      <trkpt lat="48.73354" lon="1.74305">
        <ele>140.39999389648</ele>
        <time>2012-07-31T14:13:41.000Z</time>
      </trkpt>
      <trkpt lat="48.73347" lon="1.74293">
        <ele>140.39999389648</ele>
        <time>2012-07-31T14:13:49.000Z</time>
      </trkpt>
      <trkpt lat="48.73337" lon="1.74284">
        <ele>140.39999389648</ele>
        <time>2012-07-31T14:13:57.000Z</time>
      </trkpt>
      <trkpt lat="48.73329" lon="1.74276">
        <ele>140.39999389648</ele>
        <time>2012-07-31T14:14:04.000Z</time>
      </trkpt>
      <trkpt lat="48.73316" lon="1.7426">
        <ele>140.39999389648</ele>
        <time>2012-07-31T14:14:16.000Z</time>
      </trkpt>
      <trkpt lat="48.73306" lon="1.74249">
        <ele>140.39999389648</ele>
        <time>2012-07-31T14:14:25.000Z</time>
      </trkpt>
      <trkpt lat="48.733" lon="1.74252">
        <ele>140.39999389648</ele>
        <time>2012-07-31T14:14:30.000Z</time>
      </trkpt>
      <trkpt lat="48.73295" lon="1.74265">
        <ele>140.60000610352</ele>
        <time>2012-07-31T14:14:36.000Z</time>
      </trkpt>
      <trkpt lat="48.73288" lon="1.74283">
        <ele>140.80000305176</ele>
        <time>2012-07-31T14:14:44.000Z</time>
      </trkpt>
      <trkpt lat="48.73284" lon="1.74295">
        <ele>140.80000305176</ele>
        <time>2012-07-31T14:14:51.000Z</time>
      </trkpt>
      <trkpt lat="48.73279" lon="1.74307">
        <ele>140.80000305176</ele>
        <time>2012-07-31T14:14:58.000Z</time>
      </trkpt>
      <trkpt lat="48.73271" lon="1.7432">
        <ele>141</ele>
        <time>2012-07-31T14:15:06.000Z</time>
      </trkpt>
      <trkpt lat="48.73264" lon="1.74329">
        <ele>141</ele>
        <time>2012-07-31T14:15:13.000Z</time>
      </trkpt>
      <trkpt lat="48.73253" lon="1.74335">
        <ele>141</ele>
        <time>2012-07-31T14:15:21.000Z</time>
      </trkpt>
      <trkpt lat="48.73246" lon="1.7434">
        <ele>141.19999694824</ele>
        <time>2012-07-31T14:15:27.000Z</time>
      </trkpt>
      <trkpt lat="48.73233" lon="1.7435">
        <ele>141.60000610352</ele>
        <time>2012-07-31T14:15:36.000Z</time>
      </trkpt>
      <trkpt lat="48.73223" lon="1.74355">
        <ele>141.80000305176</ele>
        <time>2012-07-31T14:15:44.000Z</time>
      </trkpt>
      <trkpt lat="48.73214" lon="1.74359">
        <ele>142</ele>
        <time>2012-07-31T14:15:51.000Z</time>
      </trkpt>
      <trkpt lat="48.73204" lon="1.74365">
        <ele>142.19999694824</ele>
        <time>2012-07-31T14:15:59.000Z</time>
      </trkpt>
      <trkpt lat="48.73196" lon="1.74371">
        <ele>142.39999389648</ele>
        <time>2012-07-31T14:16:05.000Z</time>
      </trkpt>
      <trkpt lat="48.73185" lon="1.74378">
        <ele>142.60000610352</ele>
        <time>2012-07-31T14:16:13.000Z</time>
      </trkpt>
      <trkpt lat="48.73183" lon="1.74382">
        <ele>142.80000305176</ele>
        <time>2012-07-31T14:16:15.000Z</time>
      </trkpt>
      <trkpt lat="48.73179" lon="1.74383">
        <ele>142.80000305176</ele>
        <time>2012-07-31T14:16:19.000Z</time>
      </trkpt>
      <trkpt lat="48.7317" lon="1.74386">
        <ele>143</ele>
        <time>2012-07-31T14:16:25.000Z</time>
      </trkpt>
      <trkpt lat="48.73166" lon="1.74388">
        <ele>143</ele>
        <time>2012-07-31T14:16:28.000Z</time>
      </trkpt>
      <trkpt lat="48.7315" lon="1.74403">
        <ele>142.39999389648</ele>
        <time>2012-07-31T14:16:38.000Z</time>
      </trkpt>
      <trkpt lat="48.7314" lon="1.7441">
        <ele>142</ele>
        <time>2012-07-31T14:16:45.000Z</time>
      </trkpt>
      <trkpt lat="48.7313" lon="1.74418">
        <ele>141.60000610352</ele>
        <time>2012-07-31T14:16:52.000Z</time>
      </trkpt>
      <trkpt lat="48.73124" lon="1.74419">
        <ele>141.39999389648</ele>
        <time>2012-07-31T14:16:57.000Z</time>
      </trkpt>
      <trkpt lat="48.73114" lon="1.74423">
        <ele>141</ele>
        <time>2012-07-31T14:17:06.000Z</time>
      </trkpt>
      <trkpt lat="48.73108" lon="1.74425">
        <ele>140.80000305176</ele>
        <time>2012-07-31T14:17:11.000Z</time>
      </trkpt>
      <trkpt lat="48.731" lon="1.74431">
        <ele>140.60000610352</ele>
        <time>2012-07-31T14:17:18.000Z</time>
      </trkpt>
      <trkpt lat="48.73091" lon="1.74436">
        <ele>140.19999694824</ele>
        <time>2012-07-31T14:17:25.000Z</time>
      </trkpt>
      <trkpt lat="48.73083" lon="1.74441">
        <ele>140</ele>
        <time>2012-07-31T14:17:32.000Z</time>
      </trkpt>
      <trkpt lat="48.73072" lon="1.74449">
        <ele>140.19999694824</ele>
        <time>2012-07-31T14:17:41.000Z</time>
      </trkpt>
      <trkpt lat="48.73063" lon="1.74452">
        <ele>140.39999389648</ele>
        <time>2012-07-31T14:17:47.000Z</time>
      </trkpt>
      <trkpt lat="48.73052" lon="1.74456">
        <ele>140.60000610352</ele>
        <time>2012-07-31T14:17:56.000Z</time>
      </trkpt>
      <trkpt lat="48.73051" lon="1.74456">
        <ele>140.60000610352</ele>
        <time>2012-07-31T14:17:57.000Z</time>
      </trkpt>
      <trkpt lat="48.73046" lon="1.74442">
        <ele>140.60000610352</ele>
        <time>2012-07-31T14:18:06.000Z</time>
      </trkpt>
      <trkpt lat="48.73043" lon="1.7443">
        <ele>140.60000610352</ele>
        <time>2012-07-31T14:18:12.000Z</time>
      </trkpt>
      <trkpt lat="48.7304" lon="1.74414">
        <ele>140.60000610352</ele>
        <time>2012-07-31T14:18:20.000Z</time>
      </trkpt>
      <trkpt lat="48.73036" lon="1.74401">
        <ele>140.60000610352</ele>
        <time>2012-07-31T14:18:27.000Z</time>
      </trkpt>
      <trkpt lat="48.73035" lon="1.74388">
        <ele>140.80000305176</ele>
        <time>2012-07-31T14:18:34.000Z</time>
      </trkpt>
      <trkpt lat="48.73036" lon="1.74383">
        <ele>140.80000305176</ele>
        <time>2012-07-31T14:18:37.000Z</time>
      </trkpt>
      <trkpt lat="48.73036" lon="1.74371">
        <ele>140.80000305176</ele>
        <time>2012-07-31T14:18:43.000Z</time>
      </trkpt>
      <trkpt lat="48.73036" lon="1.74355">
        <ele>141</ele>
        <time>2012-07-31T14:18:50.000Z</time>
      </trkpt>
      <trkpt lat="48.73034" lon="1.74341">
        <ele>141.19999694824</ele>
        <time>2012-07-31T14:18:56.000Z</time>
      </trkpt>
      <trkpt lat="48.73033" lon="1.74331">
        <ele>141.19999694824</ele>
        <time>2012-07-31T14:19:01.000Z</time>
      </trkpt>
      <trkpt lat="48.7303" lon="1.7432">
        <ele>141.39999389648</ele>
        <time>2012-07-31T14:19:07.000Z</time>
      </trkpt>
      <trkpt lat="48.73031" lon="1.74311">
        <ele>141.39999389648</ele>
        <time>2012-07-31T14:19:12.000Z</time>
      </trkpt>
      <trkpt lat="48.73031" lon="1.74304">
        <ele>141.39999389648</ele>
        <time>2012-07-31T14:19:16.000Z</time>
      </trkpt>
      <trkpt lat="48.73029" lon="1.74295">
        <ele>141.39999389648</ele>
        <time>2012-07-31T14:19:20.000Z</time>
      </trkpt>
      <trkpt lat="48.73029" lon="1.74282">
        <ele>141.60000610352</ele>
        <time>2012-07-31T14:19:27.000Z</time>
      </trkpt>
      <trkpt lat="48.73025" lon="1.74261">
        <ele>141.60000610352</ele>
        <time>2012-07-31T14:19:37.000Z</time>
      </trkpt>
      <trkpt lat="48.73023" lon="1.74247">
        <ele>141.60000610352</ele>
        <time>2012-07-31T14:19:43.000Z</time>
      </trkpt>
      <trkpt lat="48.7302" lon="1.74234">
        <ele>141.60000610352</ele>
        <time>2012-07-31T14:19:49.000Z</time>
      </trkpt>
      <trkpt lat="48.73018" lon="1.74219">
        <ele>141.39999389648</ele>
        <time>2012-07-31T14:19:56.000Z</time>
      </trkpt>
      <trkpt lat="48.73016" lon="1.74207">
        <ele>141.19999694824</ele>
        <time>2012-07-31T14:20:02.000Z</time>
      </trkpt>
      <trkpt lat="48.73016" lon="1.74201">
        <ele>141.19999694824</ele>
        <time>2012-07-31T14:20:05.000Z</time>
      </trkpt>
      <trkpt lat="48.73017" lon="1.74194">
        <ele>141.19999694824</ele>
        <time>2012-07-31T14:20:09.000Z</time>
      </trkpt>
      <trkpt lat="48.73014" lon="1.74178">
        <ele>141</ele>
        <time>2012-07-31T14:20:16.000Z</time>
      </trkpt>
      <trkpt lat="48.73013" lon="1.74163">
        <ele>140.80000305176</ele>
        <time>2012-07-31T14:20:24.000Z</time>
      </trkpt>
      <trkpt lat="48.73011" lon="1.74143">
        <ele>140.39999389648</ele>
        <time>2012-07-31T14:20:32.000Z</time>
      </trkpt>
      <trkpt lat="48.73011" lon="1.74129">
        <ele>140</ele>
        <time>2012-07-31T14:20:39.000Z</time>
      </trkpt>
      <trkpt lat="48.73009" lon="1.74113">
        <ele>139.60000610352</ele>
        <time>2012-07-31T14:20:46.000Z</time>
      </trkpt>
      <trkpt lat="48.73008" lon="1.74103">
        <ele>139.39999389648</ele>
        <time>2012-07-31T14:20:50.000Z</time>
      </trkpt>
      <trkpt lat="48.73009" lon="1.74094">
        <ele>139.19999694824</ele>
        <time>2012-07-31T14:20:55.000Z</time>
      </trkpt>
      <trkpt lat="48.73009" lon="1.74087">
        <ele>139</ele>
        <time>2012-07-31T14:20:59.000Z</time>
      </trkpt>
      <trkpt lat="48.73006" lon="1.74072">
        <ele>138.80000305176</ele>
        <time>2012-07-31T14:21:05.000Z</time>
      </trkpt>
      <trkpt lat="48.73006" lon="1.74069">
        <ele>138.80000305176</ele>
        <time>2012-07-31T14:21:06.000Z</time>
      </trkpt>
      <trkpt lat="48.73006" lon="1.74063">
        <ele>138.60000610352</ele>
        <time>2012-07-31T14:21:09.000Z</time>
      </trkpt>
      <trkpt lat="48.73004" lon="1.74051">
        <ele>138.60000610352</ele>
        <time>2012-07-31T14:21:14.000Z</time>
      </trkpt>
      <trkpt lat="48.73004" lon="1.74034">
        <ele>138.39999389648</ele>
        <time>2012-07-31T14:21:22.000Z</time>
      </trkpt>
      <trkpt lat="48.73004" lon="1.74021">
        <ele>138.19999694824</ele>
        <time>2012-07-31T14:21:28.000Z</time>
      </trkpt>
      <trkpt lat="48.73004" lon="1.74006">
        <ele>138</ele>
        <time>2012-07-31T14:21:35.000Z</time>
      </trkpt>
      <trkpt lat="48.73004" lon="1.73993">
        <ele>138</ele>
        <time>2012-07-31T14:21:41.000Z</time>
      </trkpt>
      <trkpt lat="48.73003" lon="1.73986">
        <ele>138</ele>
        <time>2012-07-31T14:21:44.000Z</time>
      </trkpt>
      <trkpt lat="48.73003" lon="1.73979">
        <ele>138</ele>
        <time>2012-07-31T14:21:48.000Z</time>
      </trkpt>
      <trkpt lat="48.73003" lon="1.73961">
        <ele>138</ele>
        <time>2012-07-31T14:21:56.000Z</time>
      </trkpt>
      <trkpt lat="48.73002" lon="1.73947">
        <ele>138</ele>
        <time>2012-07-31T14:22:02.000Z</time>
      </trkpt>
      <trkpt lat="48.72997" lon="1.73937">
        <ele>138</ele>
        <time>2012-07-31T14:22:08.000Z</time>
      </trkpt>
      <trkpt lat="48.7299" lon="1.73928">
        <ele>138</ele>
        <time>2012-07-31T14:22:14.000Z</time>
      </trkpt>
      <trkpt lat="48.72983" lon="1.73916">
        <ele>137.80000305176</ele>
        <time>2012-07-31T14:22:22.000Z</time>
      </trkpt>
      <trkpt lat="48.72975" lon="1.73909">
        <ele>137.60000610352</ele>
        <time>2012-07-31T14:22:29.000Z</time>
      </trkpt>
      <trkpt lat="48.72969" lon="1.73905">
        <ele>137.39999389648</ele>
        <time>2012-07-31T14:22:34.000Z</time>
      </trkpt>
      <trkpt lat="48.72961" lon="1.73895">
        <ele>137</ele>
        <time>2012-07-31T14:22:42.000Z</time>
      </trkpt>
      <trkpt lat="48.72953" lon="1.7389">
        <ele>136.80000305176</ele>
        <time>2012-07-31T14:22:48.000Z</time>
      </trkpt>
      <trkpt lat="48.72952" lon="1.73888">
        <ele>136.80000305176</ele>
        <time>2012-07-31T14:22:49.000Z</time>
      </trkpt>
      <trkpt lat="48.72941" lon="1.73877">
        <ele>136.39999389648</ele>
        <time>2012-07-31T14:22:59.000Z</time>
      </trkpt>
      <trkpt lat="48.72929" lon="1.73864">
        <ele>135.80000305176</ele>
        <time>2012-07-31T14:23:10.000Z</time>
      </trkpt>
      <trkpt lat="48.7292" lon="1.73855">
        <ele>135.60000610352</ele>
        <time>2012-07-31T14:23:17.000Z</time>
      </trkpt>
      <trkpt lat="48.72919" lon="1.73853">
        <ele>135.60000610352</ele>
        <time>2012-07-31T14:23:18.000Z</time>
      </trkpt>
      <trkpt lat="48.72912" lon="1.73845">
        <ele>135.19999694824</ele>
        <time>2012-07-31T14:23:25.000Z</time>
      </trkpt>
      <trkpt lat="48.72902" lon="1.73833">
        <ele>135</ele>
        <time>2012-07-31T14:23:35.000Z</time>
      </trkpt>
      <trkpt lat="48.72892" lon="1.73821">
        <ele>134.80000305176</ele>
        <time>2012-07-31T14:23:45.000Z</time>
      </trkpt>
      <trkpt lat="48.72881" lon="1.73811">
        <ele>134.60000610352</ele>
        <time>2012-07-31T14:23:54.000Z</time>
      </trkpt>
      <trkpt lat="48.72873" lon="1.73804">
        <ele>134.39999389648</ele>
        <time>2012-07-31T14:24:00.000Z</time>
      </trkpt>
      <trkpt lat="48.72864" lon="1.73793">
        <ele>134.19999694824</ele>
        <time>2012-07-31T14:24:08.000Z</time>
      </trkpt>
      <trkpt lat="48.72856" lon="1.73783">
        <ele>134</ele>
        <time>2012-07-31T14:24:16.000Z</time>
      </trkpt>
      <trkpt lat="48.72845" lon="1.73772">
        <ele>133.60000610352</ele>
        <time>2012-07-31T14:24:25.000Z</time>
      </trkpt>
      <trkpt lat="48.72837" lon="1.73764">
        <ele>133.39999389648</ele>
        <time>2012-07-31T14:24:32.000Z</time>
      </trkpt>
      <trkpt lat="48.72829" lon="1.73754">
        <ele>133</ele>
        <time>2012-07-31T14:24:39.000Z</time>
      </trkpt>
      <trkpt lat="48.72824" lon="1.73749">
        <ele>132.80000305176</ele>
        <time>2012-07-31T14:24:43.000Z</time>
      </trkpt>
      <trkpt lat="48.72822" lon="1.73747">
        <ele>132.80000305176</ele>
        <time>2012-07-31T14:24:45.000Z</time>
      </trkpt>
      <trkpt lat="48.72818" lon="1.73744">
        <ele>132.60000610352</ele>
        <time>2012-07-31T14:24:49.000Z</time>
      </trkpt>
      <trkpt lat="48.72811" lon="1.73739">
        <ele>132.39999389648</ele>
        <time>2012-07-31T14:24:54.000Z</time>
      </trkpt>
      <trkpt lat="48.72809" lon="1.73736">
        <ele>132.39999389648</ele>
        <time>2012-07-31T14:24:56.000Z</time>
      </trkpt>
      <trkpt lat="48.72798" lon="1.73724">
        <ele>131.80000305176</ele>
        <time>2012-07-31T14:25:06.000Z</time>
      </trkpt>
      <trkpt lat="48.72786" lon="1.73711">
        <ele>131.60000610352</ele>
        <time>2012-07-31T14:25:16.000Z</time>
      </trkpt>
      <trkpt lat="48.72782" lon="1.73707">
        <ele>131.39999389648</ele>
        <time>2012-07-31T14:25:20.000Z</time>
      </trkpt>
      <trkpt lat="48.72773" lon="1.73698">
        <ele>131.39999389648</ele>
        <time>2012-07-31T14:25:27.000Z</time>
      </trkpt>
      <trkpt lat="48.72766" lon="1.7369">
        <ele>131.19999694824</ele>
        <time>2012-07-31T14:25:34.000Z</time>
      </trkpt>
      <trkpt lat="48.72757" lon="1.7368">
        <ele>131.19999694824</ele>
        <time>2012-07-31T14:25:42.000Z</time>
      </trkpt>
      <trkpt lat="48.72756" lon="1.73679">
        <ele>131.19999694824</ele>
        <time>2012-07-31T14:25:43.000Z</time>
      </trkpt>
      <trkpt lat="48.72749" lon="1.73673">
        <ele>131</ele>
        <time>2012-07-31T14:25:49.000Z</time>
      </trkpt>
      <trkpt lat="48.72744" lon="1.73666">
        <ele>130.80000305176</ele>
        <time>2012-07-31T14:25:54.000Z</time>
      </trkpt>
      <trkpt lat="48.72743" lon="1.73665">
        <ele>130.80000305176</ele>
        <time>2012-07-31T14:25:57.000Z</time>
      </trkpt>
      <trkpt lat="48.72738" lon="1.73659">
        <ele>130.60000610352</ele>
        <time>2012-07-31T14:26:00.000Z</time>
      </trkpt>
      <trkpt lat="48.72737" lon="1.73658">
        <ele>130.60000610352</ele>
        <time>2012-07-31T14:26:01.000Z</time>
      </trkpt>
      <trkpt lat="48.72725" lon="1.73645">
        <ele>130</ele>
        <time>2012-07-31T14:26:12.000Z</time>
      </trkpt>
      <trkpt lat="48.72713" lon="1.73632">
        <ele>129.39999389648</ele>
        <time>2012-07-31T14:26:23.000Z</time>
      </trkpt>
      <trkpt lat="48.72707" lon="1.73623">
        <ele>129.19999694824</ele>
        <time>2012-07-31T14:26:30.000Z</time>
      </trkpt>
      <trkpt lat="48.72705" lon="1.73621">
        <ele>129.19999694824</ele>
        <time>2012-07-31T14:26:31.000Z</time>
      </trkpt>
      <trkpt lat="48.72695" lon="1.73616">
        <ele>129</ele>
        <time>2012-07-31T14:26:40.000Z</time>
      </trkpt>
      <trkpt lat="48.72692" lon="1.73613">
        <ele>128.80000305176</ele>
        <time>2012-07-31T14:26:46.000Z</time>
      </trkpt>
      <trkpt lat="48.72686" lon="1.73609">
        <ele>128.60000610352</ele>
        <time>2012-07-31T14:26:52.000Z</time>
      </trkpt>
      <trkpt lat="48.72676" lon="1.736">
        <ele>128.39999389648</ele>
        <time>2012-07-31T14:27:01.000Z</time>
      </trkpt>
      <trkpt lat="48.72669" lon="1.73593">
        <ele>128.19999694824</ele>
        <time>2012-07-31T14:27:07.000Z</time>
      </trkpt>
      <trkpt lat="48.72661" lon="1.73585">
        <ele>128</ele>
        <time>2012-07-31T14:27:14.000Z</time>
      </trkpt>
      <trkpt lat="48.72652" lon="1.73575">
        <ele>128</ele>
        <time>2012-07-31T14:27:22.000Z</time>
      </trkpt>
      <trkpt lat="48.72641" lon="1.73567">
        <ele>128</ele>
        <time>2012-07-31T14:27:30.000Z</time>
      </trkpt>
      <trkpt lat="48.72632" lon="1.73561">
        <ele>127.80000305176</ele>
        <time>2012-07-31T14:27:36.000Z</time>
      </trkpt>
      <trkpt lat="48.72631" lon="1.73559">
        <ele>127.80000305176</ele>
        <time>2012-07-31T14:27:37.000Z</time>
      </trkpt>
      <trkpt lat="48.72626" lon="1.73552">
        <ele>127.80000305176</ele>
        <time>2012-07-31T14:27:42.000Z</time>
      </trkpt>
      <trkpt lat="48.72612" lon="1.73536">
        <ele>127.59999847412</ele>
        <time>2012-07-31T14:27:55.000Z</time>
      </trkpt>
      <trkpt lat="48.72601" lon="1.73522">
        <ele>127.40000152588</ele>
        <time>2012-07-31T14:28:05.000Z</time>
      </trkpt>
      <trkpt lat="48.72595" lon="1.73514">
        <ele>127.19999694824</ele>
        <time>2012-07-31T14:28:12.000Z</time>
      </trkpt>
      <trkpt lat="48.72594" lon="1.73513">
        <ele>127.19999694824</ele>
        <time>2012-07-31T14:28:13.000Z</time>
      </trkpt>
      <trkpt lat="48.72588" lon="1.73506">
        <ele>127.19999694824</ele>
        <time>2012-07-31T14:28:18.000Z</time>
      </trkpt>
      <trkpt lat="48.72579" lon="1.73497">
        <ele>127.19999694824</ele>
        <time>2012-07-31T14:28:26.000Z</time>
      </trkpt>
      <trkpt lat="48.7257" lon="1.73489">
        <ele>127.59999847412</ele>
        <time>2012-07-31T14:28:33.000Z</time>
      </trkpt>
      <trkpt lat="48.72563" lon="1.7348">
        <ele>127.80000305176</ele>
        <time>2012-07-31T14:28:40.000Z</time>
      </trkpt>
      <trkpt lat="48.72554" lon="1.7347">
        <ele>128.19999694824</ele>
        <time>2012-07-31T14:28:48.000Z</time>
      </trkpt>
      <trkpt lat="48.72547" lon="1.73463">
        <ele>128.39999389648</ele>
        <time>2012-07-31T14:28:54.000Z</time>
      </trkpt>
      <trkpt lat="48.72538" lon="1.73458">
        <ele>128.60000610352</ele>
        <time>2012-07-31T14:29:01.000Z</time>
      </trkpt>
      <trkpt lat="48.72528" lon="1.73454">
        <ele>128.80000305176</ele>
        <time>2012-07-31T14:29:08.000Z</time>
      </trkpt>
      <trkpt lat="48.72517" lon="1.73451">
        <ele>128.80000305176</ele>
        <time>2012-07-31T14:29:16.000Z</time>
      </trkpt>
      <trkpt lat="48.72509" lon="1.73449">
        <ele>129</ele>
        <time>2012-07-31T14:29:22.000Z</time>
      </trkpt>
      <trkpt lat="48.72505" lon="1.73449">
        <ele>129</ele>
        <time>2012-07-31T14:29:24.000Z</time>
      </trkpt>
      <trkpt lat="48.72502" lon="1.73446">
        <ele>129</ele>
        <time>2012-07-31T14:29:27.000Z</time>
      </trkpt>
      <trkpt lat="48.72498" lon="1.73445">
        <ele>129</ele>
        <time>2012-07-31T14:29:30.000Z</time>
      </trkpt>
      <trkpt lat="48.72489" lon="1.73445">
        <ele>128.60000610352</ele>
        <time>2012-07-31T14:29:37.000Z</time>
      </trkpt>
      <trkpt lat="48.7248" lon="1.73441">
        <ele>128.19999694824</ele>
        <time>2012-07-31T14:29:44.000Z</time>
      </trkpt>
      <trkpt lat="48.72464" lon="1.73438">
        <ele>127.80000305176</ele>
        <time>2012-07-31T14:29:54.000Z</time>
      </trkpt>
      <trkpt lat="48.72453" lon="1.73435">
        <ele>127.40000152588</ele>
        <time>2012-07-31T14:30:02.000Z</time>
      </trkpt>
      <trkpt lat="48.72441" lon="1.73432">
        <ele>126.80000305176</ele>
        <time>2012-07-31T14:30:10.000Z</time>
      </trkpt>
      <trkpt lat="48.72434" lon="1.7343">
        <ele>126.59999847412</ele>
        <time>2012-07-31T14:30:15.000Z</time>
      </trkpt>
      <trkpt lat="48.72425" lon="1.73429">
        <ele>126.19999694824</ele>
        <time>2012-07-31T14:30:21.000Z</time>
      </trkpt>
      <trkpt lat="48.72413" lon="1.7343">
        <ele>126</ele>
        <time>2012-07-31T14:30:29.000Z</time>
      </trkpt>
      <trkpt lat="48.72407" lon="1.73426">
        <ele>126.19999694824</ele>
        <time>2012-07-31T14:30:33.000Z</time>
      </trkpt>
      <trkpt lat="48.72398" lon="1.73425">
        <ele>126.40000152588</ele>
        <time>2012-07-31T14:30:40.000Z</time>
      </trkpt>
      <trkpt lat="48.72397" lon="1.73425">
        <ele>126.40000152588</ele>
        <time>2012-07-31T14:30:41.000Z</time>
      </trkpt>
      <trkpt lat="48.72384" lon="1.73424">
        <ele>126.80000305176</ele>
        <time>2012-07-31T14:30:50.000Z</time>
      </trkpt>
      <trkpt lat="48.72376" lon="1.7342">
        <ele>127</ele>
        <time>2012-07-31T14:30:57.000Z</time>
      </trkpt>
      <trkpt lat="48.72368" lon="1.73418">
        <ele>127.19999694824</ele>
        <time>2012-07-31T14:31:03.000Z</time>
      </trkpt>
      <trkpt lat="48.72357" lon="1.73415">
        <ele>127.40000152588</ele>
        <time>2012-07-31T14:31:11.000Z</time>
      </trkpt>
      <trkpt lat="48.72347" lon="1.73412">
        <ele>127.59999847412</ele>
        <time>2012-07-31T14:31:18.000Z</time>
      </trkpt>
      <trkpt lat="48.72337" lon="1.73412">
        <ele>127.80000305176</ele>
        <time>2012-07-31T14:31:25.000Z</time>
      </trkpt>
      <trkpt lat="48.72326" lon="1.73409">
        <ele>128</ele>
        <time>2012-07-31T14:31:33.000Z</time>
      </trkpt>
      <trkpt lat="48.72323" lon="1.73406">
        <ele>127.80000305176</ele>
        <time>2012-07-31T14:31:36.000Z</time>
      </trkpt>
      <trkpt lat="48.72313" lon="1.73409">
        <ele>128</ele>
        <time>2012-07-31T14:31:43.000Z</time>
      </trkpt>
      <trkpt lat="48.7231" lon="1.73408">
        <ele>128</ele>
        <time>2012-07-31T14:31:45.000Z</time>
      </trkpt>
      <trkpt lat="48.72303" lon="1.73403">
        <ele>127.80000305176</ele>
        <time>2012-07-31T14:31:51.000Z</time>
      </trkpt>
      <trkpt lat="48.72295" lon="1.73402">
        <ele>128</ele>
        <time>2012-07-31T14:31:57.000Z</time>
      </trkpt>
      <trkpt lat="48.72289" lon="1.73405">
        <ele>128</ele>
        <time>2012-07-31T14:32:03.000Z</time>
      </trkpt>
      <trkpt lat="48.72277" lon="1.734">
        <ele>128</ele>
        <time>2012-07-31T14:32:11.000Z</time>
      </trkpt>
      <trkpt lat="48.72268" lon="1.73396">
        <ele>128</ele>
        <time>2012-07-31T14:32:17.000Z</time>
      </trkpt>
      <trkpt lat="48.72253" lon="1.73392">
        <ele>128</ele>
        <time>2012-07-31T14:32:27.000Z</time>
      </trkpt>
      <trkpt lat="48.72241" lon="1.7339">
        <ele>127.80000305176</ele>
        <time>2012-07-31T14:32:34.000Z</time>
      </trkpt>
      <trkpt lat="48.7223" lon="1.73396">
        <ele>127.59999847412</ele>
        <time>2012-07-31T14:32:41.000Z</time>
      </trkpt>
      <trkpt lat="48.7222" lon="1.73397">
        <ele>127.40000152588</ele>
        <time>2012-07-31T14:32:47.000Z</time>
      </trkpt>
      <trkpt lat="48.72211" lon="1.73399">
        <ele>127.40000152588</ele>
        <time>2012-07-31T14:32:53.000Z</time>
      </trkpt>
      <trkpt lat="48.72204" lon="1.73396">
        <ele>127.19999694824</ele>
        <time>2012-07-31T14:33:00.000Z</time>
      </trkpt>
      <trkpt lat="48.72203" lon="1.73395">
        <ele>127.19999694824</ele>
        <time>2012-07-31T14:33:03.000Z</time>
      </trkpt>
      <trkpt lat="48.72195" lon="1.73396">
        <ele>127</ele>
        <time>2012-07-31T14:33:13.000Z</time>
      </trkpt>
      <trkpt lat="48.72184" lon="1.734">
        <ele>126.80000305176</ele>
        <time>2012-07-31T14:33:20.000Z</time>
      </trkpt>
      <trkpt lat="48.72175" lon="1.734">
        <ele>126.80000305176</ele>
        <time>2012-07-31T14:33:28.000Z</time>
      </trkpt>
      <trkpt lat="48.72174" lon="1.734">
        <ele>126.80000305176</ele>
        <time>2012-07-31T14:33:30.000Z</time>
      </trkpt>
      <trkpt lat="48.72169" lon="1.734">
        <ele>126.59999847412</ele>
        <time>2012-07-31T14:33:38.000Z</time>
      </trkpt>
      <trkpt lat="48.72164" lon="1.73402">
        <ele>126.80000305176</ele>
        <time>2012-07-31T14:33:41.000Z</time>
      </trkpt>
      <trkpt lat="48.72156" lon="1.73405">
        <ele>127.19999694824</ele>
        <time>2012-07-31T14:33:47.000Z</time>
      </trkpt>
      <trkpt lat="48.72155" lon="1.73406">
        <ele>127.19999694824</ele>
        <time>2012-07-31T14:33:48.000Z</time>
      </trkpt>
      <trkpt lat="48.72147" lon="1.73402">
        <ele>127.40000152588</ele>
        <time>2012-07-31T14:33:55.000Z</time>
      </trkpt>
      <trkpt lat="48.72145" lon="1.73401">
        <ele>127.40000152588</ele>
        <time>2012-07-31T14:33:57.000Z</time>
      </trkpt>
      <trkpt lat="48.72142" lon="1.73404">
        <ele>127.59999847412</ele>
        <time>2012-07-31T14:34:00.000Z</time>
      </trkpt>
      <trkpt lat="48.72129" lon="1.73405">
        <ele>128</ele>
        <time>2012-07-31T14:34:08.000Z</time>
      </trkpt>
      <trkpt lat="48.72125" lon="1.73402">
        <ele>128.19999694824</ele>
        <time>2012-07-31T14:34:12.000Z</time>
      </trkpt>
      <trkpt lat="48.72125" lon="1.73402">
        <ele>128.19999694824</ele>
        <time>2012-07-31T14:34:13.000Z</time>
      </trkpt>
      <trkpt lat="48.72116" lon="1.73405">
        <ele>128.60000610352</ele>
        <time>2012-07-31T14:35:19.000Z</time>
      </trkpt>
      <trkpt lat="48.72108" lon="1.73407">
        <ele>128.80000305176</ele>
        <time>2012-07-31T14:35:25.000Z</time>
      </trkpt>
      <trkpt lat="48.72098" lon="1.73412">
        <ele>129.39999389648</ele>
        <time>2012-07-31T14:35:32.000Z</time>
      </trkpt>
      <trkpt lat="48.72091" lon="1.73415">
        <ele>129.80000305176</ele>
        <time>2012-07-31T14:35:38.000Z</time>
      </trkpt>
      <trkpt lat="48.7208" lon="1.73415">
        <ele>130</ele>
        <time>2012-07-31T14:35:47.000Z</time>
      </trkpt>
      <trkpt lat="48.72072" lon="1.73414">
        <ele>130</ele>
        <time>2012-07-31T14:35:53.000Z</time>
      </trkpt>
      <trkpt lat="48.72062" lon="1.73416">
        <ele>130</ele>
        <time>2012-07-31T14:36:00.000Z</time>
      </trkpt>
      <trkpt lat="48.7205" lon="1.73421">
        <ele>130</ele>
        <time>2012-07-31T14:36:07.000Z</time>
      </trkpt>
      <trkpt lat="48.72041" lon="1.73421">
        <ele>130</ele>
        <time>2012-07-31T14:36:14.000Z</time>
      </trkpt>
      <trkpt lat="48.72033" lon="1.73425">
        <ele>130</ele>
        <time>2012-07-31T14:36:21.000Z</time>
      </trkpt>
      <trkpt lat="48.72028" lon="1.73423">
        <ele>130</ele>
        <time>2012-07-31T14:36:25.000Z</time>
      </trkpt>
      <trkpt lat="48.72019" lon="1.73426">
        <ele>130.19999694824</ele>
        <time>2012-07-31T14:36:30.000Z</time>
      </trkpt>
      <trkpt lat="48.72005" lon="1.73431">
        <ele>130.39999389648</ele>
        <time>2012-07-31T14:36:40.000Z</time>
      </trkpt>
      <trkpt lat="48.71998" lon="1.73434">
        <ele>130.39999389648</ele>
        <time>2012-07-31T14:36:45.000Z</time>
      </trkpt>
      <trkpt lat="48.71985" lon="1.73442">
        <ele>130.60000610352</ele>
        <time>2012-07-31T14:36:53.000Z</time>
      </trkpt>
      <trkpt lat="48.71975" lon="1.73444">
        <ele>130.60000610352</ele>
        <time>2012-07-31T14:37:00.000Z</time>
      </trkpt>
      <trkpt lat="48.71961" lon="1.73445">
        <ele>130.60000610352</ele>
        <time>2012-07-31T14:37:09.000Z</time>
      </trkpt>
      <trkpt lat="48.71951" lon="1.73446">
        <ele>130.80000305176</ele>
        <time>2012-07-31T14:37:17.000Z</time>
      </trkpt>
      <trkpt lat="48.71942" lon="1.7345">
        <ele>130.80000305176</ele>
        <time>2012-07-31T14:37:24.000Z</time>
      </trkpt>
      <trkpt lat="48.71936" lon="1.73452">
        <ele>130.80000305176</ele>
        <time>2012-07-31T14:37:28.000Z</time>
      </trkpt>
      <trkpt lat="48.71926" lon="1.73451">
        <ele>130.80000305176</ele>
        <time>2012-07-31T14:37:36.000Z</time>
      </trkpt>
      <trkpt lat="48.71914" lon="1.73456">
        <ele>131</ele>
        <time>2012-07-31T14:37:44.000Z</time>
      </trkpt>
      <trkpt lat="48.71907" lon="1.7346">
        <ele>131.19999694824</ele>
        <time>2012-07-31T14:37:50.000Z</time>
      </trkpt>
      <trkpt lat="48.71897" lon="1.73461">
        <ele>131.60000610352</ele>
        <time>2012-07-31T14:37:58.000Z</time>
      </trkpt>
      <trkpt lat="48.71887" lon="1.73466">
        <ele>131.80000305176</ele>
        <time>2012-07-31T14:38:05.000Z</time>
      </trkpt>
      <trkpt lat="48.71876" lon="1.73465">
        <ele>132.19999694824</ele>
        <time>2012-07-31T14:38:14.000Z</time>
      </trkpt>
      <trkpt lat="48.71867" lon="1.73466">
        <ele>132.39999389648</ele>
        <time>2012-07-31T14:38:20.000Z</time>
      </trkpt>
      <trkpt lat="48.71854" lon="1.73465">
        <ele>132.60000610352</ele>
        <time>2012-07-31T14:38:29.000Z</time>
      </trkpt>
      <trkpt lat="48.71839" lon="1.73467">
        <ele>133</ele>
        <time>2012-07-31T14:38:39.000Z</time>
      </trkpt>
      <trkpt lat="48.71826" lon="1.73471">
        <ele>133.60000610352</ele>
        <time>2012-07-31T14:38:47.000Z</time>
      </trkpt>
      <trkpt lat="48.71812" lon="1.73476">
        <ele>134.39999389648</ele>
        <time>2012-07-31T14:38:56.000Z</time>
      </trkpt>
      <trkpt lat="48.71801" lon="1.73478">
        <ele>134.80000305176</ele>
        <time>2012-07-31T14:39:04.000Z</time>
      </trkpt>
      <trkpt lat="48.71795" lon="1.7348">
        <ele>135.19999694824</ele>
        <time>2012-07-31T14:39:08.000Z</time>
      </trkpt>
      <trkpt lat="48.71785" lon="1.73481">
        <ele>135.60000610352</ele>
        <time>2012-07-31T14:39:15.000Z</time>
      </trkpt>
      <trkpt lat="48.71779" lon="1.73485">
        <ele>135.80000305176</ele>
        <time>2012-07-31T14:39:19.000Z</time>
      </trkpt>
      <trkpt lat="48.71772" lon="1.73488">
        <ele>136.19999694824</ele>
        <time>2012-07-31T14:39:24.000Z</time>
      </trkpt>
      <trkpt lat="48.71765" lon="1.73493">
        <ele>136.39999389648</ele>
        <time>2012-07-31T14:39:29.000Z</time>
      </trkpt>
      <trkpt lat="48.71759" lon="1.73493">
        <ele>136.60000610352</ele>
        <time>2012-07-31T14:39:33.000Z</time>
      </trkpt>
      <trkpt lat="48.71748" lon="1.73492">
        <ele>137</ele>
        <time>2012-07-31T14:39:40.000Z</time>
      </trkpt>
      <trkpt lat="48.71736" lon="1.73497">
        <ele>137.39999389648</ele>
        <time>2012-07-31T14:39:48.000Z</time>
      </trkpt>
      <trkpt lat="48.71729" lon="1.73498">
        <ele>137.80000305176</ele>
        <time>2012-07-31T14:39:54.000Z</time>
      </trkpt>
      <trkpt lat="48.71719" lon="1.73499">
        <ele>138.19999694824</ele>
        <time>2012-07-31T14:40:01.000Z</time>
      </trkpt>
      <trkpt lat="48.71712" lon="1.73501">
        <ele>138.39999389648</ele>
        <time>2012-07-31T14:40:06.000Z</time>
      </trkpt>
      <trkpt lat="48.717" lon="1.73505">
        <ele>138.80000305176</ele>
        <time>2012-07-31T14:40:13.000Z</time>
      </trkpt>
      <trkpt lat="48.7169" lon="1.73506">
        <ele>139.19999694824</ele>
        <time>2012-07-31T14:40:20.000Z</time>
      </trkpt>
      <trkpt lat="48.71679" lon="1.73508">
        <ele>139.60000610352</ele>
        <time>2012-07-31T14:40:29.000Z</time>
      </trkpt>
      <trkpt lat="48.71671" lon="1.73506">
        <ele>139.80000305176</ele>
        <time>2012-07-31T14:40:36.000Z</time>
      </trkpt>
      <trkpt lat="48.71659" lon="1.73509">
        <ele>140.39999389648</ele>
        <time>2012-07-31T14:40:43.000Z</time>
      </trkpt>
      <trkpt lat="48.71651" lon="1.7351">
        <ele>140.80000305176</ele>
        <time>2012-07-31T14:40:50.000Z</time>
      </trkpt>
      <trkpt lat="48.71646" lon="1.73515">
        <ele>141</ele>
        <time>2012-07-31T14:40:54.000Z</time>
      </trkpt>
      <trkpt lat="48.71643" lon="1.73515">
        <ele>141.19999694824</ele>
        <time>2012-07-31T14:40:56.000Z</time>
      </trkpt>
      <trkpt lat="48.71637" lon="1.73516">
        <ele>141.39999389648</ele>
        <time>2012-07-31T14:41:00.000Z</time>
      </trkpt>
      <trkpt lat="48.71623" lon="1.73522">
        <ele>142.19999694824</ele>
        <time>2012-07-31T14:41:09.000Z</time>
      </trkpt>
      <trkpt lat="48.71613" lon="1.73526">
        <ele>142.80000305176</ele>
        <time>2012-07-31T14:41:15.000Z</time>
      </trkpt>
      <trkpt lat="48.71611" lon="1.73528">
        <ele>142.80000305176</ele>
        <time>2012-07-31T14:41:16.000Z</time>
      </trkpt>
      <trkpt lat="48.71598" lon="1.73533">
        <ele>143.60000610352</ele>
        <time>2012-07-31T14:41:25.000Z</time>
      </trkpt>
      <trkpt lat="48.71595" lon="1.73533">
        <ele>143.80000305176</ele>
        <time>2012-07-31T14:41:27.000Z</time>
      </trkpt>
      <trkpt lat="48.7159" lon="1.73533">
        <ele>144</ele>
        <time>2012-07-31T14:41:31.000Z</time>
      </trkpt>
      <trkpt lat="48.71584" lon="1.73534">
        <ele>144.39999389648</ele>
        <time>2012-07-31T14:41:35.000Z</time>
      </trkpt>
      <trkpt lat="48.71578" lon="1.73537">
        <ele>145</ele>
        <time>2012-07-31T14:41:40.000Z</time>
      </trkpt>
      <trkpt lat="48.71568" lon="1.7354">
        <ele>146.19999694824</ele>
        <time>2012-07-31T14:41:47.000Z</time>
      </trkpt>
      <trkpt lat="48.71557" lon="1.73543">
        <ele>147.39999389648</ele>
        <time>2012-07-31T14:41:55.000Z</time>
      </trkpt>
      <trkpt lat="48.71548" lon="1.73546">
        <ele>148.39999389648</ele>
        <time>2012-07-31T14:42:03.000Z</time>
      </trkpt>
      <trkpt lat="48.71537" lon="1.73548">
        <ele>149.60000610352</ele>
        <time>2012-07-31T14:42:09.000Z</time>
      </trkpt>
      <trkpt lat="48.71527" lon="1.7355">
        <ele>150.80000305176</ele>
        <time>2012-07-31T14:42:15.000Z</time>
      </trkpt>
      <trkpt lat="48.71516" lon="1.73552">
        <ele>152</ele>
        <time>2012-07-31T14:42:23.000Z</time>
      </trkpt>
      <trkpt lat="48.71504" lon="1.7355">
        <ele>153.39999389648</ele>
        <time>2012-07-31T14:42:31.000Z</time>
      </trkpt>
      <trkpt lat="48.71497" lon="1.73553">
        <ele>154.39999389648</ele>
        <time>2012-07-31T14:42:36.000Z</time>
      </trkpt>
      <trkpt lat="48.71488" lon="1.73556">
        <ele>155.39999389648</ele>
        <time>2012-07-31T14:42:41.000Z</time>
      </trkpt>
      <trkpt lat="48.71486" lon="1.73557">
        <ele>155.60000610352</ele>
        <time>2012-07-31T14:42:42.000Z</time>
      </trkpt>
      <trkpt lat="48.71473" lon="1.73561">
        <ele>157</ele>
        <time>2012-07-31T14:42:50.000Z</time>
      </trkpt>
      <trkpt lat="48.71468" lon="1.73564">
        <ele>157.60000610352</ele>
        <time>2012-07-31T14:42:54.000Z</time>
      </trkpt>
      <trkpt lat="48.71459" lon="1.73569">
        <ele>158.39999389648</ele>
        <time>2012-07-31T14:43:02.000Z</time>
      </trkpt>
      <trkpt lat="48.71456" lon="1.7357">
        <ele>158.80000305176</ele>
        <time>2012-07-31T14:43:05.000Z</time>
      </trkpt>
      <trkpt lat="48.71449" lon="1.73572">
        <ele>159.39999389648</ele>
        <time>2012-07-31T14:43:10.000Z</time>
      </trkpt>
      <trkpt lat="48.71441" lon="1.73575">
        <ele>160.19999694824</ele>
        <time>2012-07-31T14:43:14.000Z</time>
      </trkpt>
      <trkpt lat="48.71432" lon="1.73577">
        <ele>161</ele>
        <time>2012-07-31T14:43:20.000Z</time>
      </trkpt>
      <trkpt lat="48.71426" lon="1.73578">
        <ele>161.39999389648</ele>
        <time>2012-07-31T14:43:25.000Z</time>
      </trkpt>
      <trkpt lat="48.71415" lon="1.7358">
        <ele>162.39999389648</ele>
        <time>2012-07-31T14:43:33.000Z</time>
      </trkpt>
      <trkpt lat="48.71411" lon="1.73581">
        <ele>162.80000305176</ele>
        <time>2012-07-31T14:43:35.000Z</time>
      </trkpt>
      <trkpt lat="48.71402" lon="1.73584">
        <ele>163.60000610352</ele>
        <time>2012-07-31T14:43:40.000Z</time>
      </trkpt>
      <trkpt lat="48.71397" lon="1.73584">
        <ele>164</ele>
        <time>2012-07-31T14:43:44.000Z</time>
      </trkpt>
      <trkpt lat="48.71388" lon="1.73578">
        <ele>165.39999389648</ele>
        <time>2012-07-31T14:43:52.000Z</time>
      </trkpt>
      <trkpt lat="48.7138" lon="1.73569">
        <ele>166.80000305176</ele>
        <time>2012-07-31T14:44:00.000Z</time>
      </trkpt>
      <trkpt lat="48.71372" lon="1.73563">
        <ele>168</ele>
        <time>2012-07-31T14:44:07.000Z</time>
      </trkpt>
      <trkpt lat="48.71366" lon="1.73556">
        <ele>169.19999694824</ele>
        <time>2012-07-31T14:44:13.000Z</time>
      </trkpt>
      <trkpt lat="48.71359" lon="1.73548">
        <ele>170.39999389648</ele>
        <time>2012-07-31T14:44:20.000Z</time>
      </trkpt>
      <trkpt lat="48.71352" lon="1.73541">
        <ele>171.80000305176</ele>
        <time>2012-07-31T14:44:27.000Z</time>
      </trkpt>
      <trkpt lat="48.71346" lon="1.73535">
        <ele>173</ele>
        <time>2012-07-31T14:44:33.000Z</time>
      </trkpt>
      <trkpt lat="48.71339" lon="1.73527">
        <ele>174.19999694824</ele>
        <time>2012-07-31T14:44:39.000Z</time>
      </trkpt>
      <trkpt lat="48.71336" lon="1.73524">
        <ele>175</ele>
        <time>2012-07-31T14:44:43.000Z</time>
      </trkpt>
      <trkpt lat="48.71329" lon="1.73527">
        <ele>175.39999389648</ele>
        <time>2012-07-31T14:44:48.000Z</time>
      </trkpt>
      <trkpt lat="48.71328" lon="1.73531">
        <ele>175.19999694824</ele>
        <time>2012-07-31T14:44:51.000Z</time>
      </trkpt>
      <trkpt lat="48.71319" lon="1.73539">
        <ele>175.80000305176</ele>
        <time>2012-07-31T14:44:58.000Z</time>
      </trkpt>
      <trkpt lat="48.71313" lon="1.73544">
        <ele>176.19999694824</ele>
        <time>2012-07-31T14:45:03.000Z</time>
      </trkpt>
      <trkpt lat="48.71309" lon="1.7355">
        <ele>176.39999389648</ele>
        <time>2012-07-31T14:45:08.000Z</time>
      </trkpt>
      <trkpt lat="48.71306" lon="1.73562">
        <ele>176.39999389648</ele>
        <time>2012-07-31T14:45:16.000Z</time>
      </trkpt>
      <trkpt lat="48.71304" lon="1.73565">
        <ele>176.39999389648</ele>
        <time>2012-07-31T14:45:18.000Z</time>
      </trkpt>
      <trkpt lat="48.71303" lon="1.73573">
        <ele>176.39999389648</ele>
        <time>2012-07-31T14:45:23.000Z</time>
      </trkpt>
      <trkpt lat="48.713" lon="1.73585">
        <ele>176.60000610352</ele>
        <time>2012-07-31T14:45:29.000Z</time>
      </trkpt>
      <trkpt lat="48.71293" lon="1.73594">
        <ele>177.39999389648</ele>
        <time>2012-07-31T14:45:35.000Z</time>
      </trkpt>
      <trkpt lat="48.71283" lon="1.73604">
        <ele>179</ele>
        <time>2012-07-31T14:45:43.000Z</time>
      </trkpt>
      <trkpt lat="48.71274" lon="1.73613">
        <ele>180.19999694824</ele>
        <time>2012-07-31T14:45:50.000Z</time>
      </trkpt>
      <trkpt lat="48.71264" lon="1.73615">
        <ele>181.80000305176</ele>
        <time>2012-07-31T14:45:58.000Z</time>
      </trkpt>
      <trkpt lat="48.71256" lon="1.73619">
        <ele>183.19999694824</ele>
        <time>2012-07-31T14:46:04.000Z</time>
      </trkpt>
      <trkpt lat="48.71246" lon="1.73616">
        <ele>184</ele>
        <time>2012-07-31T14:46:12.000Z</time>
      </trkpt>
      <trkpt lat="48.71242" lon="1.73614">
        <ele>184</ele>
        <time>2012-07-31T14:46:15.000Z</time>
      </trkpt>
      <trkpt lat="48.71237" lon="1.73612">
        <ele>183.80000305176</ele>
        <time>2012-07-31T14:46:19.000Z</time>
      </trkpt>
      <trkpt lat="48.71225" lon="1.73611">
        <ele>183.39999389648</ele>
        <time>2012-07-31T14:46:27.000Z</time>
      </trkpt>
      <trkpt lat="48.71213" lon="1.7361">
        <ele>182.80000305176</ele>
        <time>2012-07-31T14:46:35.000Z</time>
      </trkpt>
      <trkpt lat="48.71203" lon="1.73605">
        <ele>182.39999389648</ele>
        <time>2012-07-31T14:46:42.000Z</time>
      </trkpt>
      <trkpt lat="48.71196" lon="1.73613">
        <ele>182.19999694824</ele>
        <time>2012-07-31T14:46:48.000Z</time>
      </trkpt>
      <trkpt lat="48.71187" lon="1.73624">
        <ele>182</ele>
        <time>2012-07-31T14:46:56.000Z</time>
      </trkpt>
      <trkpt lat="48.71185" lon="1.73626">
        <ele>182</ele>
        <time>2012-07-31T14:46:58.000Z</time>
      </trkpt>
      <trkpt lat="48.71173" lon="1.73638">
        <ele>182</ele>
        <time>2012-07-31T14:47:08.000Z</time>
      </trkpt>
      <trkpt lat="48.71165" lon="1.73646">
        <ele>182.19999694824</ele>
        <time>2012-07-31T14:47:15.000Z</time>
      </trkpt>
      <trkpt lat="48.71155" lon="1.73656">
        <ele>182</ele>
        <time>2012-07-31T14:47:23.000Z</time>
      </trkpt>
      <trkpt lat="48.71145" lon="1.73666">
        <ele>182</ele>
        <time>2012-07-31T14:47:32.000Z</time>
      </trkpt>
      <trkpt lat="48.71138" lon="1.73672">
        <ele>181.80000305176</ele>
        <time>2012-07-31T14:47:38.000Z</time>
      </trkpt>
      <trkpt lat="48.71129" lon="1.73684">
        <ele>181.60000610352</ele>
        <time>2012-07-31T14:47:47.000Z</time>
      </trkpt>
      <trkpt lat="48.71127" lon="1.73686">
        <ele>181.60000610352</ele>
        <time>2012-07-31T14:47:49.000Z</time>
      </trkpt>
      <trkpt lat="48.71119" lon="1.73692">
        <ele>181.60000610352</ele>
        <time>2012-07-31T14:47:55.000Z</time>
      </trkpt>
      <trkpt lat="48.71111" lon="1.73701">
        <ele>181.60000610352</ele>
        <time>2012-07-31T14:48:02.000Z</time>
      </trkpt>
      <trkpt lat="48.71107" lon="1.73705">
        <ele>181.60000610352</ele>
        <time>2012-07-31T14:48:05.000Z</time>
      </trkpt>
      <trkpt lat="48.71103" lon="1.7371">
        <ele>181.60000610352</ele>
        <time>2012-07-31T14:48:09.000Z</time>
      </trkpt>
      <trkpt lat="48.71097" lon="1.73717">
        <ele>181.80000305176</ele>
        <time>2012-07-31T14:48:14.000Z</time>
      </trkpt>
      <trkpt lat="48.71086" lon="1.73727">
        <ele>182</ele>
        <time>2012-07-31T14:48:22.000Z</time>
      </trkpt>
      <trkpt lat="48.71075" lon="1.73735">
        <ele>182.19999694824</ele>
        <time>2012-07-31T14:48:30.000Z</time>
      </trkpt>
      <trkpt lat="48.71061" lon="1.73748">
        <ele>182.39999389648</ele>
        <time>2012-07-31T14:48:40.000Z</time>
      </trkpt>
      <trkpt lat="48.71052" lon="1.7376">
        <ele>182.19999694824</ele>
        <time>2012-07-31T14:48:48.000Z</time>
      </trkpt>
      <trkpt lat="48.71046" lon="1.73766">
        <ele>182.19999694824</ele>
        <time>2012-07-31T14:48:54.000Z</time>
      </trkpt>
      <trkpt lat="48.71039" lon="1.73774">
        <ele>182.19999694824</ele>
        <time>2012-07-31T14:49:00.000Z</time>
      </trkpt>
      <trkpt lat="48.71036" lon="1.73778">
        <ele>182</ele>
        <time>2012-07-31T14:49:03.000Z</time>
      </trkpt>
      <trkpt lat="48.71026" lon="1.73789">
        <ele>182.19999694824</ele>
        <time>2012-07-31T14:49:11.000Z</time>
      </trkpt>
      <trkpt lat="48.71025" lon="1.7379">
        <ele>182.19999694824</ele>
        <time>2012-07-31T14:49:12.000Z</time>
      </trkpt>
      <trkpt lat="48.71014" lon="1.73801">
        <ele>182.19999694824</ele>
        <time>2012-07-31T14:49:21.000Z</time>
      </trkpt>
      <trkpt lat="48.71009" lon="1.73806">
        <ele>182.39999389648</ele>
        <time>2012-07-31T14:49:25.000Z</time>
      </trkpt>
      <trkpt lat="48.71006" lon="1.7381">
        <ele>182.39999389648</ele>
        <time>2012-07-31T14:49:28.000Z</time>
      </trkpt>
      <trkpt lat="48.71002" lon="1.73826">
        <ele>182.80000305176</ele>
        <time>2012-07-31T14:49:37.000Z</time>
      </trkpt>
      <trkpt lat="48.70997" lon="1.73844">
        <ele>183.19999694824</ele>
        <time>2012-07-31T14:49:45.000Z</time>
      </trkpt>
      <trkpt lat="48.70993" lon="1.73859">
        <ele>183.39999389648</ele>
        <time>2012-07-31T14:49:52.000Z</time>
      </trkpt>
      <trkpt lat="48.70989" lon="1.73875">
        <ele>183.60000610352</ele>
        <time>2012-07-31T14:50:00.000Z</time>
      </trkpt>
      <trkpt lat="48.70988" lon="1.73886">
        <ele>184</ele>
        <time>2012-07-31T14:50:05.000Z</time>
      </trkpt>
      <trkpt lat="48.70985" lon="1.739">
        <ele>184.19999694824</ele>
        <time>2012-07-31T14:50:11.000Z</time>
      </trkpt>
      <trkpt lat="48.70981" lon="1.73911">
        <ele>184.39999389648</ele>
        <time>2012-07-31T14:50:17.000Z</time>
      </trkpt>
      <trkpt lat="48.70977" lon="1.73928">
        <ele>184.19999694824</ele>
        <time>2012-07-31T14:50:25.000Z</time>
      </trkpt>
      <trkpt lat="48.70974" lon="1.73946">
        <ele>183.60000610352</ele>
        <time>2012-07-31T14:50:34.000Z</time>
      </trkpt>
      <trkpt lat="48.7097" lon="1.73965">
        <ele>183.19999694824</ele>
        <time>2012-07-31T14:50:43.000Z</time>
      </trkpt>
      <trkpt lat="48.70966" lon="1.73987">
        <ele>182.60000610352</ele>
        <time>2012-07-31T14:50:53.000Z</time>
      </trkpt>
      <trkpt lat="48.70964" lon="1.74">
        <ele>182.39999389648</ele>
        <time>2012-07-31T14:51:00.000Z</time>
      </trkpt>
      <trkpt lat="48.70959" lon="1.74018">
        <ele>182.39999389648</ele>
        <time>2012-07-31T14:51:09.000Z</time>
      </trkpt>
      <trkpt lat="48.70955" lon="1.74031">
        <ele>182.60000610352</ele>
        <time>2012-07-31T14:51:16.000Z</time>
      </trkpt>
      <trkpt lat="48.70953" lon="1.74038">
        <ele>182.60000610352</ele>
        <time>2012-07-31T14:51:20.000Z</time>
      </trkpt>
      <trkpt lat="48.7095" lon="1.74054">
        <ele>182.60000610352</ele>
        <time>2012-07-31T14:51:28.000Z</time>
      </trkpt>
      <trkpt lat="48.70949" lon="1.7406">
        <ele>182.60000610352</ele>
        <time>2012-07-31T14:51:31.000Z</time>
      </trkpt>
      <trkpt lat="48.70944" lon="1.7408">
        <ele>182.60000610352</ele>
        <time>2012-07-31T14:51:41.000Z</time>
      </trkpt>
      <trkpt lat="48.70944" lon="1.74095">
        <ele>182.60000610352</ele>
        <time>2012-07-31T14:51:48.000Z</time>
      </trkpt>
      <trkpt lat="48.7094" lon="1.74103">
        <ele>182.60000610352</ele>
        <time>2012-07-31T14:51:53.000Z</time>
      </trkpt>
      <trkpt lat="48.70937" lon="1.74116">
        <ele>182.60000610352</ele>
        <time>2012-07-31T14:52:00.000Z</time>
      </trkpt>
      <trkpt lat="48.70936" lon="1.7412">
        <ele>182.60000610352</ele>
        <time>2012-07-31T14:52:02.000Z</time>
      </trkpt>
      <trkpt lat="48.70934" lon="1.74136">
        <ele>182.60000610352</ele>
        <time>2012-07-31T14:52:10.000Z</time>
      </trkpt>
      <trkpt lat="48.70931" lon="1.74146">
        <ele>182.60000610352</ele>
        <time>2012-07-31T14:52:18.000Z</time>
      </trkpt>
      <trkpt lat="48.7093" lon="1.74157">
        <ele>182.60000610352</ele>
        <time>2012-07-31T14:52:23.000Z</time>
      </trkpt>
      <trkpt lat="48.70926" lon="1.74174">
        <ele>182.60000610352</ele>
        <time>2012-07-31T14:52:30.000Z</time>
      </trkpt>
      <trkpt lat="48.70922" lon="1.7419">
        <ele>182.19999694824</ele>
        <time>2012-07-31T14:52:37.000Z</time>
      </trkpt>
      <trkpt lat="48.70919" lon="1.74204">
        <ele>182</ele>
        <time>2012-07-31T14:52:44.000Z</time>
      </trkpt>
      <trkpt lat="48.70916" lon="1.74217">
        <ele>181.80000305176</ele>
        <time>2012-07-31T14:52:51.000Z</time>
      </trkpt>
      <trkpt lat="48.70913" lon="1.74228">
        <ele>181.39999389648</ele>
        <time>2012-07-31T14:52:56.000Z</time>
      </trkpt>
      <trkpt lat="48.7091" lon="1.7424">
        <ele>181.19999694824</ele>
        <time>2012-07-31T14:53:02.000Z</time>
      </trkpt>
      <trkpt lat="48.70905" lon="1.74252">
        <ele>180.80000305176</ele>
        <time>2012-07-31T14:53:08.000Z</time>
      </trkpt>
      <trkpt lat="48.70899" lon="1.74263">
        <ele>180</ele>
        <time>2012-07-31T14:53:16.000Z</time>
      </trkpt>
      <trkpt lat="48.70897" lon="1.74268">
        <ele>179.80000305176</ele>
        <time>2012-07-31T14:53:19.000Z</time>
      </trkpt>
      <trkpt lat="48.70888" lon="1.74283">
        <ele>179</ele>
        <time>2012-07-31T14:53:27.000Z</time>
      </trkpt>
      <trkpt lat="48.70885" lon="1.74291">
        <ele>178.60000610352</ele>
        <time>2012-07-31T14:53:31.000Z</time>
      </trkpt>
      <trkpt lat="48.70875" lon="1.74308">
        <ele>177.60000610352</ele>
        <time>2012-07-31T14:53:41.000Z</time>
      </trkpt>
      <trkpt lat="48.7087" lon="1.74315">
        <ele>177.39999389648</ele>
        <time>2012-07-31T14:53:45.000Z</time>
      </trkpt>
      <trkpt lat="48.70861" lon="1.7433">
        <ele>176.80000305176</ele>
        <time>2012-07-31T14:53:54.000Z</time>
      </trkpt>
      <trkpt lat="48.70854" lon="1.74342">
        <ele>176.60000610352</ele>
        <time>2012-07-31T14:54:02.000Z</time>
      </trkpt>
      <trkpt lat="48.70853" lon="1.74345">
        <ele>176.60000610352</ele>
        <time>2012-07-31T14:54:04.000Z</time>
      </trkpt>
      <trkpt lat="48.70849" lon="1.74359">
        <ele>176.60000610352</ele>
        <time>2012-07-31T14:54:12.000Z</time>
      </trkpt>
      <trkpt lat="48.70838" lon="1.74376">
        <ele>176.39999389648</ele>
        <time>2012-07-31T14:54:23.000Z</time>
      </trkpt>
      <trkpt lat="48.7083" lon="1.74386">
        <ele>176.39999389648</ele>
        <time>2012-07-31T14:54:30.000Z</time>
      </trkpt>
      <trkpt lat="48.70821" lon="1.74394">
        <ele>176.60000610352</ele>
        <time>2012-07-31T14:54:38.000Z</time>
      </trkpt>
      <trkpt lat="48.70809" lon="1.74404">
        <ele>176.80000305176</ele>
        <time>2012-07-31T14:54:48.000Z</time>
      </trkpt>
      <trkpt lat="48.70794" lon="1.74412">
        <ele>177</ele>
        <time>2012-07-31T14:55:00.000Z</time>
      </trkpt>
      <trkpt lat="48.70781" lon="1.74418">
        <ele>177.19999694824</ele>
        <time>2012-07-31T14:55:09.000Z</time>
      </trkpt>
      <trkpt lat="48.70768" lon="1.74428">
        <ele>177.39999389648</ele>
        <time>2012-07-31T14:55:20.000Z</time>
      </trkpt>
      <trkpt lat="48.70758" lon="1.74435">
        <ele>177.60000610352</ele>
        <time>2012-07-31T14:55:29.000Z</time>
      </trkpt>
      <trkpt lat="48.70746" lon="1.74443">
        <ele>177.80000305176</ele>
        <time>2012-07-31T14:55:38.000Z</time>
      </trkpt>
      <trkpt lat="48.70737" lon="1.74449">
        <ele>178</ele>
        <time>2012-07-31T14:55:46.000Z</time>
      </trkpt>
      <trkpt lat="48.70731" lon="1.74463">
        <ele>178.19999694824</ele>
        <time>2012-07-31T14:55:54.000Z</time>
      </trkpt>
      <trkpt lat="48.70734" lon="1.74473">
        <ele>177.80000305176</ele>
        <time>2012-07-31T14:56:00.000Z</time>
      </trkpt>
      <trkpt lat="48.7074" lon="1.74483">
        <ele>177.60000610352</ele>
        <time>2012-07-31T14:56:06.000Z</time>
      </trkpt>
      <trkpt lat="48.70749" lon="1.74495">
        <ele>177</ele>
        <time>2012-07-31T14:56:14.000Z</time>
      </trkpt>
      <trkpt lat="48.7076" lon="1.74508">
        <ele>176.80000305176</ele>
        <time>2012-07-31T14:56:23.000Z</time>
      </trkpt>
      <trkpt lat="48.70769" lon="1.74518">
        <ele>176.80000305176</ele>
        <time>2012-07-31T14:56:31.000Z</time>
      </trkpt>
      <trkpt lat="48.70779" lon="1.74526">
        <ele>176.60000610352</ele>
        <time>2012-07-31T14:56:39.000Z</time>
      </trkpt>
      <trkpt lat="48.70791" lon="1.74541">
        <ele>176.60000610352</ele>
        <time>2012-07-31T14:56:50.000Z</time>
      </trkpt>
      <trkpt lat="48.70801" lon="1.74557">
        <ele>176.39999389648</ele>
        <time>2012-07-31T14:57:01.000Z</time>
      </trkpt>
      <trkpt lat="48.70802" lon="1.74559">
        <ele>176.39999389648</ele>
        <time>2012-07-31T14:57:02.000Z</time>
      </trkpt>
      <trkpt lat="48.70805" lon="1.74564">
        <ele>176.39999389648</ele>
        <time>2012-07-31T14:57:06.000Z</time>
      </trkpt>
      <trkpt lat="48.70812" lon="1.74573">
        <ele>176.19999694824</ele>
        <time>2012-07-31T14:57:12.000Z</time>
      </trkpt>
      <trkpt lat="48.70818" lon="1.74584">
        <ele>176.19999694824</ele>
        <time>2012-07-31T14:57:19.000Z</time>
      </trkpt>
      <trkpt lat="48.70821" lon="1.74587">
        <ele>176.19999694824</ele>
        <time>2012-07-31T14:57:21.000Z</time>
      </trkpt>
      <trkpt lat="48.7083" lon="1.74598">
        <ele>176</ele>
        <time>2012-07-31T14:57:28.000Z</time>
      </trkpt>
      <trkpt lat="48.70839" lon="1.7461">
        <ele>176</ele>
        <time>2012-07-31T14:57:37.000Z</time>
      </trkpt>
      <trkpt lat="48.70848" lon="1.74622">
        <ele>176</ele>
        <time>2012-07-31T14:57:45.000Z</time>
      </trkpt>
      <trkpt lat="48.70861" lon="1.74637">
        <ele>175.80000305176</ele>
        <time>2012-07-31T14:57:56.000Z</time>
      </trkpt>
      <trkpt lat="48.70866" lon="1.74645">
        <ele>175.80000305176</ele>
        <time>2012-07-31T14:58:03.000Z</time>
      </trkpt>
      <trkpt lat="48.70873" lon="1.74655">
        <ele>176</ele>
        <time>2012-07-31T14:58:10.000Z</time>
      </trkpt>
      <trkpt lat="48.7088" lon="1.74664">
        <ele>176</ele>
        <time>2012-07-31T14:58:17.000Z</time>
      </trkpt>
      <trkpt lat="48.7089" lon="1.74676">
        <ele>176.39999389648</ele>
        <time>2012-07-31T14:58:25.000Z</time>
      </trkpt>
      <trkpt lat="48.70894" lon="1.74682">
        <ele>176.39999389648</ele>
        <time>2012-07-31T14:58:30.000Z</time>
      </trkpt>
      <trkpt lat="48.709" lon="1.74686">
        <ele>176.60000610352</ele>
        <time>2012-07-31T14:58:34.000Z</time>
      </trkpt>
      <trkpt lat="48.70905" lon="1.74697">
        <ele>176.80000305176</ele>
        <time>2012-07-31T14:58:39.000Z</time>
      </trkpt>
      <trkpt lat="48.70914" lon="1.74709">
        <ele>177</ele>
        <time>2012-07-31T14:58:47.000Z</time>
      </trkpt>
      <trkpt lat="48.7092" lon="1.74718">
        <ele>177.19999694824</ele>
        <time>2012-07-31T14:58:53.000Z</time>
      </trkpt>
      <trkpt lat="48.70928" lon="1.74728">
        <ele>177.60000610352</ele>
        <time>2012-07-31T14:59:00.000Z</time>
      </trkpt>
      <trkpt lat="48.70937" lon="1.74739">
        <ele>177.80000305176</ele>
        <time>2012-07-31T14:59:07.000Z</time>
      </trkpt>
      <trkpt lat="48.70941" lon="1.74746">
        <ele>178</ele>
        <time>2012-07-31T14:59:11.000Z</time>
      </trkpt>
      <trkpt lat="48.70949" lon="1.74754">
        <ele>178</ele>
        <time>2012-07-31T14:59:18.000Z</time>
      </trkpt>
      <trkpt lat="48.70955" lon="1.74763">
        <ele>178</ele>
        <time>2012-07-31T14:59:24.000Z</time>
      </trkpt>
      <trkpt lat="48.70959" lon="1.74767">
        <ele>178.19999694824</ele>
        <time>2012-07-31T14:59:29.000Z</time>
      </trkpt>
      <trkpt lat="48.70968" lon="1.74772">
        <ele>178.19999694824</ele>
        <time>2012-07-31T14:59:37.000Z</time>
      </trkpt>
      <trkpt lat="48.7097" lon="1.74773">
        <ele>178.19999694824</ele>
        <time>2012-07-31T14:59:39.000Z</time>
      </trkpt>
      <trkpt lat="48.70973" lon="1.74775">
        <ele>178.19999694824</ele>
        <time>2012-07-31T14:59:41.000Z</time>
      </trkpt>
      <trkpt lat="48.70978" lon="1.74785">
        <ele>178.39999389648</ele>
        <time>2012-07-31T14:59:46.000Z</time>
      </trkpt>
      <trkpt lat="48.70989" lon="1.74807">
        <ele>178.60000610352</ele>
        <time>2012-07-31T14:59:56.000Z</time>
      </trkpt>
      <trkpt lat="48.70995" lon="1.74814">
        <ele>178.80000305176</ele>
        <time>2012-07-31T15:00:01.000Z</time>
      </trkpt>
      <trkpt lat="48.71008" lon="1.74825">
        <ele>178.39999389648</ele>
        <time>2012-07-31T15:00:10.000Z</time>
      </trkpt>
      <trkpt lat="48.7101" lon="1.74829">
        <ele>178.39999389648</ele>
        <time>2012-07-31T15:00:12.000Z</time>
      </trkpt>
      <trkpt lat="48.7101" lon="1.74843">
        <ele>178.39999389648</ele>
        <time>2012-07-31T15:00:18.000Z</time>
      </trkpt>
      <trkpt lat="48.7101" lon="1.74849">
        <ele>178.39999389648</ele>
        <time>2012-07-31T15:00:21.000Z</time>
      </trkpt>
      <trkpt lat="48.71001" lon="1.74862">
        <ele>179</ele>
        <time>2012-07-31T15:00:30.000Z</time>
      </trkpt>
      <trkpt lat="48.70999" lon="1.74864">
        <ele>179</ele>
        <time>2012-07-31T15:00:32.000Z</time>
      </trkpt>
      <trkpt lat="48.70991" lon="1.74875">
        <ele>178.80000305176</ele>
        <time>2012-07-31T15:00:39.000Z</time>
      </trkpt>
      <trkpt lat="48.70983" lon="1.74884">
        <ele>178.39999389648</ele>
        <time>2012-07-31T15:00:46.000Z</time>
      </trkpt>
      <trkpt lat="48.70981" lon="1.74887">
        <ele>178.39999389648</ele>
        <time>2012-07-31T15:00:50.000Z</time>
      </trkpt>
      <trkpt lat="48.7097" lon="1.74904">
        <ele>177.80000305176</ele>
        <time>2012-07-31T15:01:37.000Z</time>
      </trkpt>
      <trkpt lat="48.70964" lon="1.74912">
        <ele>177.39999389648</ele>
        <time>2012-07-31T15:01:43.000Z</time>
      </trkpt>
      <trkpt lat="48.70961" lon="1.74916">
        <ele>177.19999694824</ele>
        <time>2012-07-31T15:01:47.000Z</time>
      </trkpt>
      <trkpt lat="48.70957" lon="1.74921">
        <ele>177</ele>
        <time>2012-07-31T15:01:51.000Z</time>
      </trkpt>
      <trkpt lat="48.70956" lon="1.74922">
        <ele>176.80000305176</ele>
        <time>2012-07-31T15:01:52.000Z</time>
      </trkpt>
      <trkpt lat="48.70953" lon="1.74926">
        <ele>176.80000305176</ele>
        <time>2012-07-31T15:01:55.000Z</time>
      </trkpt>
      <trkpt lat="48.7095" lon="1.7493">
        <ele>176.60000610352</ele>
        <time>2012-07-31T15:01:58.000Z</time>
      </trkpt>
      <trkpt lat="48.70944" lon="1.74939">
        <ele>176.19999694824</ele>
        <time>2012-07-31T15:02:04.000Z</time>
      </trkpt>
      <trkpt lat="48.70939" lon="1.74945">
        <ele>176</ele>
        <time>2012-07-31T15:02:08.000Z</time>
      </trkpt>
      <trkpt lat="48.70937" lon="1.74949">
        <ele>175.80000305176</ele>
        <time>2012-07-31T15:02:10.000Z</time>
      </trkpt>
      <trkpt lat="48.70931" lon="1.74962">
        <ele>175.60000610352</ele>
        <time>2012-07-31T15:02:18.000Z</time>
      </trkpt>
      <trkpt lat="48.70925" lon="1.74973">
        <ele>175.39999389648</ele>
        <time>2012-07-31T15:02:25.000Z</time>
      </trkpt>
      <trkpt lat="48.70923" lon="1.74976">
        <ele>175.19999694824</ele>
        <time>2012-07-31T15:02:27.000Z</time>
      </trkpt>
      <trkpt lat="48.70921" lon="1.74979">
        <ele>175.19999694824</ele>
        <time>2012-07-31T15:02:32.000Z</time>
      </trkpt>
      <trkpt lat="48.70921" lon="1.74979">
        <ele>175.19999694824</ele>
        <time>2012-07-31T15:02:33.000Z</time>
      </trkpt>
      <trkpt lat="48.70908" lon="1.75007">
        <ele>175</ele>
        <time>2012-07-31T15:03:16.000Z</time>
      </trkpt>
      <trkpt lat="48.70903" lon="1.7502">
        <ele>174.80000305176</ele>
        <time>2012-07-31T15:03:23.000Z</time>
      </trkpt>
      <trkpt lat="48.70901" lon="1.75023">
        <ele>174.80000305176</ele>
        <time>2012-07-31T15:03:25.000Z</time>
      </trkpt>
      <trkpt lat="48.70897" lon="1.75033">
        <ele>174.60000610352</ele>
        <time>2012-07-31T15:03:31.000Z</time>
      </trkpt>
      <trkpt lat="48.70894" lon="1.7504">
        <ele>174.60000610352</ele>
        <time>2012-07-31T15:03:35.000Z</time>
      </trkpt>
      <trkpt lat="48.7089" lon="1.75048">
        <ele>174.39999389648</ele>
        <time>2012-07-31T15:03:41.000Z</time>
      </trkpt>
      <trkpt lat="48.70889" lon="1.75049">
        <ele>174.39999389648</ele>
        <time>2012-07-31T15:03:44.000Z</time>
      </trkpt>
      <trkpt lat="48.70884" lon="1.75056">
        <ele>174.39999389648</ele>
        <time>2012-07-31T15:04:05.000Z</time>
      </trkpt>
      <trkpt lat="48.7088" lon="1.75063">
        <ele>174.19999694824</ele>
        <time>2012-07-31T15:04:09.000Z</time>
      </trkpt>
      <trkpt lat="48.7088" lon="1.75064">
        <ele>174.19999694824</ele>
        <time>2012-07-31T15:04:10.000Z</time>
      </trkpt>
      <trkpt lat="48.70879" lon="1.75069">
        <ele>174.19999694824</ele>
        <time>2012-07-31T15:04:13.000Z</time>
      </trkpt>
      <trkpt lat="48.70878" lon="1.75074">
        <ele>174.19999694824</ele>
        <time>2012-07-31T15:04:18.000Z</time>
      </trkpt>
      <trkpt lat="48.70875" lon="1.7508">
        <ele>174</ele>
        <time>2012-07-31T15:04:24.000Z</time>
      </trkpt>
      <trkpt lat="48.70871" lon="1.75089">
        <ele>174</ele>
        <time>2012-07-31T15:04:31.000Z</time>
      </trkpt>
      <trkpt lat="48.7087" lon="1.75092">
        <ele>174</ele>
        <time>2012-07-31T15:04:33.000Z</time>
      </trkpt>
      <trkpt lat="48.70864" lon="1.75104">
        <ele>174</ele>
        <time>2012-07-31T15:04:41.000Z</time>
      </trkpt>
      <trkpt lat="48.70859" lon="1.75115">
        <ele>174.19999694824</ele>
        <time>2012-07-31T15:04:47.000Z</time>
      </trkpt>
      <trkpt lat="48.70854" lon="1.75127">
        <ele>174.19999694824</ele>
        <time>2012-07-31T15:04:54.000Z</time>
      </trkpt>
      <trkpt lat="48.70849" lon="1.75138">
        <ele>174.19999694824</ele>
        <time>2012-07-31T15:05:01.000Z</time>
      </trkpt>
      <trkpt lat="48.70843" lon="1.7515">
        <ele>174</ele>
        <time>2012-07-31T15:05:08.000Z</time>
      </trkpt>
      <trkpt lat="48.70838" lon="1.75161">
        <ele>174</ele>
        <time>2012-07-31T15:05:15.000Z</time>
      </trkpt>
      <trkpt lat="48.70832" lon="1.75177">
        <ele>174</ele>
        <time>2012-07-31T15:05:25.000Z</time>
      </trkpt>
      <trkpt lat="48.70827" lon="1.75189">
        <ele>174</ele>
        <time>2012-07-31T15:05:33.000Z</time>
      </trkpt>
      <trkpt lat="48.70821" lon="1.75203">
        <ele>173.80000305176</ele>
        <time>2012-07-31T15:05:41.000Z</time>
      </trkpt>
      <trkpt lat="48.70817" lon="1.75211">
        <ele>173.80000305176</ele>
        <time>2012-07-31T15:05:46.000Z</time>
      </trkpt>
      <trkpt lat="48.70814" lon="1.75215">
        <ele>173.80000305176</ele>
        <time>2012-07-31T15:05:49.000Z</time>
      </trkpt>
      <trkpt lat="48.7081" lon="1.75222">
        <ele>173.80000305176</ele>
        <time>2012-07-31T15:05:54.000Z</time>
      </trkpt>
      <trkpt lat="48.70805" lon="1.75232">
        <ele>173.60000610352</ele>
        <time>2012-07-31T15:06:00.000Z</time>
      </trkpt>
      <trkpt lat="48.70803" lon="1.75241">
        <ele>173.60000610352</ele>
        <time>2012-07-31T15:06:05.000Z</time>
      </trkpt>
      <trkpt lat="48.70799" lon="1.75251">
        <ele>173.60000610352</ele>
        <time>2012-07-31T15:06:11.000Z</time>
      </trkpt>
      <trkpt lat="48.70795" lon="1.7526">
        <ele>173.60000610352</ele>
        <time>2012-07-31T15:06:16.000Z</time>
      </trkpt>
      <trkpt lat="48.70792" lon="1.75268">
        <ele>173.60000610352</ele>
        <time>2012-07-31T15:06:21.000Z</time>
      </trkpt>
      <trkpt lat="48.70791" lon="1.7527">
        <ele>173.39999389648</ele>
        <time>2012-07-31T15:06:22.000Z</time>
      </trkpt>
      <trkpt lat="48.70785" lon="1.75285">
        <ele>173.39999389648</ele>
        <time>2012-07-31T15:06:31.000Z</time>
      </trkpt>
      <trkpt lat="48.70783" lon="1.75288">
        <ele>173.39999389648</ele>
        <time>2012-07-31T15:06:33.000Z</time>
      </trkpt>
      <trkpt lat="48.7078" lon="1.75299">
        <ele>173.39999389648</ele>
        <time>2012-07-31T15:06:39.000Z</time>
      </trkpt>
      <trkpt lat="48.70776" lon="1.75308">
        <ele>173.39999389648</ele>
        <time>2012-07-31T15:06:44.000Z</time>
      </trkpt>
      <trkpt lat="48.70775" lon="1.75311">
        <ele>173.19999694824</ele>
        <time>2012-07-31T15:06:46.000Z</time>
      </trkpt>
      <trkpt lat="48.7077" lon="1.75325">
        <ele>173.19999694824</ele>
        <time>2012-07-31T15:06:53.000Z</time>
      </trkpt>
      <trkpt lat="48.70763" lon="1.75343">
        <ele>173</ele>
        <time>2012-07-31T15:07:03.000Z</time>
      </trkpt>
      <trkpt lat="48.70757" lon="1.75357">
        <ele>172.80000305176</ele>
        <time>2012-07-31T15:07:11.000Z</time>
      </trkpt>
      <trkpt lat="48.70752" lon="1.75371">
        <ele>172.60000610352</ele>
        <time>2012-07-31T15:07:19.000Z</time>
      </trkpt>
      <trkpt lat="48.70745" lon="1.75387">
        <ele>172.19999694824</ele>
        <time>2012-07-31T15:07:29.000Z</time>
      </trkpt>
      <trkpt lat="48.70738" lon="1.75405">
        <ele>172</ele>
        <time>2012-07-31T15:07:39.000Z</time>
      </trkpt>
      <trkpt lat="48.70734" lon="1.75416">
        <ele>171.80000305176</ele>
        <time>2012-07-31T15:07:46.000Z</time>
      </trkpt>
      <trkpt lat="48.7073" lon="1.75425">
        <ele>171.80000305176</ele>
        <time>2012-07-31T15:07:52.000Z</time>
      </trkpt>
      <trkpt lat="48.70723" lon="1.75442">
        <ele>171.60000610352</ele>
        <time>2012-07-31T15:08:02.000Z</time>
      </trkpt>
      <trkpt lat="48.70717" lon="1.75455">
        <ele>171.60000610352</ele>
        <time>2012-07-31T15:08:10.000Z</time>
      </trkpt>
      <trkpt lat="48.70709" lon="1.75473">
        <ele>171.80000305176</ele>
        <time>2012-07-31T15:08:21.000Z</time>
      </trkpt>
      <trkpt lat="48.70703" lon="1.75483">
        <ele>172</ele>
        <time>2012-07-31T15:08:28.000Z</time>
      </trkpt>
      <trkpt lat="48.70699" lon="1.75482">
        <ele>172</ele>
        <time>2012-07-31T15:08:35.000Z</time>
      </trkpt>
      <trkpt lat="48.70699" lon="1.75482">
        <ele>172</ele>
        <time>2012-07-31T15:08:37.000Z</time>
      </trkpt>
    </trkseg>
  </trk>
</gpx>